<?xml version="1.0" encoding="UTF-8" standalone="no" ?>
<gpx xmlns="http://www.topografix.com/GPX/1/1" creator="www.cicloide.com" version="1.1" xmlns:xsi="http://www.w3.org/2001/XMLSchema-instance" xsi:schemaLocation="http://www.topografix.com/GPX/1/1 http://www.topografix.com/GPX/1/1/gpx.xsd">
  <trk>
    <name>www.cicloide.com 133854</name>
    <desc>www.cicloide.com 133854</desc>
    <trkseg>
      <trkpt lat="41.605817460" lon="2.540356420">
        <ele>115.01</ele>
        <time>2016-02-21T06:06:21Z</time>
      </trkpt>
      <trkpt lat="41.605809420" lon="2.540351560">
        <ele>115.01</ele>
        <time>2016-02-21T06:06:31Z</time>
      </trkpt>
      <trkpt lat="41.605816040" lon="2.540366310">
        <ele>115.01</ele>
        <time>2016-02-21T06:06:40Z</time>
      </trkpt>
      <trkpt lat="41.605823580" lon="2.540361450">
        <ele>115.01</ele>
        <time>2016-02-21T06:06:47Z</time>
      </trkpt>
      <trkpt lat="41.605887620" lon="2.540384000">
        <ele>115.01</ele>
        <time>2016-02-21T06:06:55Z</time>
      </trkpt>
      <trkpt lat="41.606036060" lon="2.540362290">
        <ele>115.50</ele>
        <time>2016-02-21T06:07:01Z</time>
      </trkpt>
      <trkpt lat="41.606237570" lon="2.540393890">
        <ele>115.50</ele>
        <time>2016-02-21T06:07:09Z</time>
      </trkpt>
      <trkpt lat="41.606475860" lon="2.540507720">
        <ele>115.50</ele>
        <time>2016-02-21T06:07:20Z</time>
      </trkpt>
      <trkpt lat="41.606703260" lon="2.540625570">
        <ele>115.98</ele>
        <time>2016-02-21T06:07:31Z</time>
      </trkpt>
      <trkpt lat="41.606925380" lon="2.540728660">
        <ele>115.98</ele>
        <time>2016-02-21T06:07:41Z</time>
      </trkpt>
      <trkpt lat="41.607150270" lon="2.540804520">
        <ele>117.42</ele>
        <time>2016-02-21T06:07:51Z</time>
      </trkpt>
      <trkpt lat="41.607338780" lon="2.540849870">
        <ele>117.90</ele>
        <time>2016-02-21T06:07:59Z</time>
      </trkpt>
      <trkpt lat="41.607508770" lon="2.540862610">
        <ele>118.38</ele>
        <time>2016-02-21T06:08:07Z</time>
      </trkpt>
      <trkpt lat="41.607684450" lon="2.540855480">
        <ele>118.86</ele>
        <time>2016-02-21T06:08:15Z</time>
      </trkpt>
      <trkpt lat="41.607863910" lon="2.540845840">
        <ele>119.34</ele>
        <time>2016-02-21T06:08:23Z</time>
      </trkpt>
      <trkpt lat="41.608053590" lon="2.540834270">
        <ele>119.82</ele>
        <time>2016-02-21T06:08:31Z</time>
      </trkpt>
      <trkpt lat="41.608189880" lon="2.540819520">
        <ele>120.30</ele>
        <time>2016-02-21T06:08:37Z</time>
      </trkpt>
      <trkpt lat="41.608364390" lon="2.540780300">
        <ele>120.78</ele>
        <time>2016-02-21T06:08:44Z</time>
      </trkpt>
      <trkpt lat="41.608554070" lon="2.540762270">
        <ele>121.26</ele>
        <time>2016-02-21T06:08:52Z</time>
      </trkpt>
      <trkpt lat="41.608713500" lon="2.540761860">
        <ele>121.74</ele>
        <time>2016-02-21T06:08:59Z</time>
      </trkpt>
      <trkpt lat="41.608905110" lon="2.540703010">
        <ele>122.22</ele>
        <time>2016-02-21T06:09:07Z</time>
      </trkpt>
      <trkpt lat="41.609158580" lon="2.540642750">
        <ele>122.71</ele>
        <time>2016-02-21T06:09:17Z</time>
      </trkpt>
      <trkpt lat="41.609352530" lon="2.540604280">
        <ele>123.67</ele>
        <time>2016-02-21T06:09:25Z</time>
      </trkpt>
      <trkpt lat="41.609545650" lon="2.540580470">
        <ele>124.15</ele>
        <time>2016-02-21T06:09:33Z</time>
      </trkpt>
      <trkpt lat="41.609738940" lon="2.540571080">
        <ele>124.63</ele>
        <time>2016-02-21T06:09:41Z</time>
      </trkpt>
      <trkpt lat="41.609952590" lon="2.540529680">
        <ele>125.11</ele>
        <time>2016-02-21T06:09:50Z</time>
      </trkpt>
      <trkpt lat="41.610109080" lon="2.540437980">
        <ele>126.07</ele>
        <time>2016-02-21T06:09:57Z</time>
      </trkpt>
      <trkpt lat="41.610291810" lon="2.540357760">
        <ele>126.55</ele>
        <time>2016-02-21T06:10:05Z</time>
      </trkpt>
      <trkpt lat="41.610454080" lon="2.540293390">
        <ele>126.55</ele>
        <time>2016-02-21T06:10:12Z</time>
      </trkpt>
      <trkpt lat="41.610657930" lon="2.540132710">
        <ele>127.51</ele>
        <time>2016-02-21T06:10:20Z</time>
      </trkpt>
      <trkpt lat="41.610821630" lon="2.540067670">
        <ele>127.99</ele>
        <time>2016-02-21T06:10:27Z</time>
      </trkpt>
      <trkpt lat="41.611000160" lon="2.540001030">
        <ele>128.95</ele>
        <time>2016-02-21T06:10:35Z</time>
      </trkpt>
      <trkpt lat="41.611161260" lon="2.539899110">
        <ele>128.95</ele>
        <time>2016-02-21T06:10:42Z</time>
      </trkpt>
      <trkpt lat="41.611323030" lon="2.539802210">
        <ele>129.92</ele>
        <time>2016-02-21T06:10:49Z</time>
      </trkpt>
      <trkpt lat="41.611505760" lon="2.539678830">
        <ele>130.88</ele>
        <time>2016-02-21T06:10:57Z</time>
      </trkpt>
      <trkpt lat="41.611596030" lon="2.539581430">
        <ele>131.36</ele>
        <time>2016-02-21T06:11:01Z</time>
      </trkpt>
      <trkpt lat="41.611736510" lon="2.539431310">
        <ele>131.36</ele>
        <time>2016-02-21T06:11:08Z</time>
      </trkpt>
      <trkpt lat="41.611856040" lon="2.539279260">
        <ele>131.84</ele>
        <time>2016-02-21T06:11:15Z</time>
      </trkpt>
      <trkpt lat="41.611972460" lon="2.539136600">
        <ele>132.80</ele>
        <time>2016-02-21T06:11:21Z</time>
      </trkpt>
      <trkpt lat="41.612098280" lon="2.538958820">
        <ele>133.28</ele>
        <time>2016-02-21T06:11:28Z</time>
      </trkpt>
      <trkpt lat="41.612222330" lon="2.538704940">
        <ele>134.72</ele>
        <time>2016-02-21T06:11:36Z</time>
      </trkpt>
      <trkpt lat="41.612381420" lon="2.538441830">
        <ele>135.68</ele>
        <time>2016-02-21T06:11:45Z</time>
      </trkpt>
      <trkpt lat="41.612563470" lon="2.538202520">
        <ele>136.16</ele>
        <time>2016-02-21T06:11:54Z</time>
      </trkpt>
      <trkpt lat="41.612733710" lon="2.537993310">
        <ele>137.13</ele>
        <time>2016-02-21T06:12:03Z</time>
      </trkpt>
      <trkpt lat="41.612931940" lon="2.537770610">
        <ele>138.09</ele>
        <time>2016-02-21T06:12:13Z</time>
      </trkpt>
      <trkpt lat="41.613102600" lon="2.537569690">
        <ele>138.57</ele>
        <time>2016-02-21T06:12:22Z</time>
      </trkpt>
      <trkpt lat="41.613290520" lon="2.537341030">
        <ele>139.53</ele>
        <time>2016-02-21T06:12:32Z</time>
      </trkpt>
      <trkpt lat="41.613454130" lon="2.537118410">
        <ele>140.49</ele>
        <time>2016-02-21T06:12:41Z</time>
      </trkpt>
      <trkpt lat="41.613625120" lon="2.536859160">
        <ele>141.45</ele>
        <time>2016-02-21T06:12:51Z</time>
      </trkpt>
      <trkpt lat="41.613609950" lon="2.536755390">
        <ele>141.45</ele>
        <time>2016-02-21T06:12:56Z</time>
      </trkpt>
      <trkpt lat="41.613615320" lon="2.536662010">
        <ele>141.45</ele>
        <time>2016-02-21T06:13:01Z</time>
      </trkpt>
      <trkpt lat="41.613718580" lon="2.536435030">
        <ele>141.93</ele>
        <time>2016-02-21T06:13:10Z</time>
      </trkpt>
      <trkpt lat="41.613820510" lon="2.536172760">
        <ele>142.89</ele>
        <time>2016-02-21T06:13:19Z</time>
      </trkpt>
      <trkpt lat="41.613908260" lon="2.535909490">
        <ele>143.85</ele>
        <time>2016-02-21T06:13:28Z</time>
      </trkpt>
      <trkpt lat="41.613973640" lon="2.535716370">
        <ele>144.34</ele>
        <time>2016-02-21T06:13:35Z</time>
      </trkpt>
      <trkpt lat="41.614041450" lon="2.535495840">
        <ele>145.30</ele>
        <time>2016-02-21T06:13:42Z</time>
      </trkpt>
      <trkpt lat="41.614126110" lon="2.535218230">
        <ele>146.26</ele>
        <time>2016-02-21T06:13:51Z</time>
      </trkpt>
      <trkpt lat="41.614211940" lon="2.534954620">
        <ele>147.22</ele>
        <time>2016-02-21T06:14:00Z</time>
      </trkpt>
      <trkpt lat="41.614311600" lon="2.534661670">
        <ele>148.66</ele>
        <time>2016-02-21T06:14:10Z</time>
      </trkpt>
      <trkpt lat="41.614396260" lon="2.534389680">
        <ele>149.14</ele>
        <time>2016-02-21T06:14:19Z</time>
      </trkpt>
      <trkpt lat="41.614474710" lon="2.534143250">
        <ele>150.58</ele>
        <time>2016-02-21T06:14:27Z</time>
      </trkpt>
      <trkpt lat="41.614581000" lon="2.533793560">
        <ele>151.06</ele>
        <time>2016-02-21T06:14:38Z</time>
      </trkpt>
      <trkpt lat="41.614684600" lon="2.533434560">
        <ele>152.51</ele>
        <time>2016-02-21T06:14:49Z</time>
      </trkpt>
      <trkpt lat="41.614747380" lon="2.533206990">
        <ele>152.99</ele>
        <time>2016-02-21T06:14:56Z</time>
      </trkpt>
      <trkpt lat="41.614841510" lon="2.532859560">
        <ele>153.95</ele>
        <time>2016-02-21T06:15:07Z</time>
      </trkpt>
      <trkpt lat="41.614956090" lon="2.532479860">
        <ele>155.39</ele>
        <time>2016-02-21T06:15:19Z</time>
      </trkpt>
      <trkpt lat="41.615037730" lon="2.532123550">
        <ele>155.87</ele>
        <time>2016-02-21T06:15:30Z</time>
      </trkpt>
      <trkpt lat="41.615079220" lon="2.531779890">
        <ele>157.31</ele>
        <time>2016-02-21T06:15:40Z</time>
      </trkpt>
      <trkpt lat="41.615113830" lon="2.531400110">
        <ele>158.27</ele>
        <time>2016-02-21T06:15:51Z</time>
      </trkpt>
      <trkpt lat="41.615134540" lon="2.531085280">
        <ele>159.24</ele>
        <time>2016-02-21T06:16:00Z</time>
      </trkpt>
      <trkpt lat="41.615166050" lon="2.530674320">
        <ele>159.72</ele>
        <time>2016-02-21T06:16:12Z</time>
      </trkpt>
      <trkpt lat="41.615165300" lon="2.530416910">
        <ele>160.68</ele>
        <time>2016-02-21T06:16:20Z</time>
      </trkpt>
      <trkpt lat="41.615175360" lon="2.530134610">
        <ele>162.12</ele>
        <time>2016-02-21T06:16:29Z</time>
      </trkpt>
      <trkpt lat="41.615180970" lon="2.529864210">
        <ele>162.60</ele>
        <time>2016-02-21T06:16:37Z</time>
      </trkpt>
      <trkpt lat="41.615193710" lon="2.529533120">
        <ele>163.56</ele>
        <time>2016-02-21T06:16:47Z</time>
      </trkpt>
      <trkpt lat="41.615198240" lon="2.529198770">
        <ele>165.00</ele>
        <time>2016-02-21T06:16:57Z</time>
      </trkpt>
      <trkpt lat="41.615194630" lon="2.529139090">
        <ele>165.48</ele>
        <time>2016-02-21T06:16:59Z</time>
      </trkpt>
      <trkpt lat="41.615252720" lon="2.528781430">
        <ele>165.96</ele>
        <time>2016-02-21T06:17:09Z</time>
      </trkpt>
      <trkpt lat="41.615319780" lon="2.528419170">
        <ele>166.45</ele>
        <time>2016-02-21T06:17:19Z</time>
      </trkpt>
      <trkpt lat="41.615369570" lon="2.528138120">
        <ele>167.41</ele>
        <time>2016-02-21T06:17:27Z</time>
      </trkpt>
      <trkpt lat="41.615432930" lon="2.527846010">
        <ele>167.89</ele>
        <time>2016-02-21T06:17:36Z</time>
      </trkpt>
      <trkpt lat="41.615484900" lon="2.527557000">
        <ele>168.85</ele>
        <time>2016-02-21T06:17:45Z</time>
      </trkpt>
      <trkpt lat="41.615530080" lon="2.527300430">
        <ele>169.81</ele>
        <time>2016-02-21T06:17:53Z</time>
      </trkpt>
      <trkpt lat="41.615574170" lon="2.527085610">
        <ele>170.77</ele>
        <time>2016-02-21T06:18:00Z</time>
      </trkpt>
      <trkpt lat="41.615593780" lon="2.526853180">
        <ele>171.73</ele>
        <time>2016-02-21T06:18:08Z</time>
      </trkpt>
      <trkpt lat="41.615581880" lon="2.526552600">
        <ele>173.66</ele>
        <time>2016-02-21T06:18:18Z</time>
      </trkpt>
      <trkpt lat="41.615557990" lon="2.526215900">
        <ele>174.62</ele>
        <time>2016-02-21T06:18:28Z</time>
      </trkpt>
      <trkpt lat="41.615535190" lon="2.525879620">
        <ele>175.10</ele>
        <time>2016-02-21T06:18:38Z</time>
      </trkpt>
      <trkpt lat="41.615531420" lon="2.525575270">
        <ele>176.54</ele>
        <time>2016-02-21T06:18:47Z</time>
      </trkpt>
      <trkpt lat="41.615530330" lon="2.525272100">
        <ele>177.02</ele>
        <time>2016-02-21T06:18:56Z</time>
      </trkpt>
      <trkpt lat="41.615546590" lon="2.524954000">
        <ele>177.98</ele>
        <time>2016-02-21T06:19:05Z</time>
      </trkpt>
      <trkpt lat="41.615569310" lon="2.524685110">
        <ele>178.94</ele>
        <time>2016-02-21T06:19:13Z</time>
      </trkpt>
      <trkpt lat="41.615593610" lon="2.524390410">
        <ele>180.38</ele>
        <time>2016-02-21T06:19:22Z</time>
      </trkpt>
      <trkpt lat="41.615636610" lon="2.524058310">
        <ele>181.83</ele>
        <time>2016-02-21T06:19:33Z</time>
      </trkpt>
      <trkpt lat="41.615653210" lon="2.523789840">
        <ele>183.27</ele>
        <time>2016-02-21T06:19:42Z</time>
      </trkpt>
      <trkpt lat="41.615673490" lon="2.523563030">
        <ele>184.23</ele>
        <time>2016-02-21T06:19:49Z</time>
      </trkpt>
      <trkpt lat="41.615710040" lon="2.523235300">
        <ele>185.19</ele>
        <time>2016-02-21T06:19:59Z</time>
      </trkpt>
      <trkpt lat="41.615745580" lon="2.522976130">
        <ele>186.15</ele>
        <time>2016-02-21T06:20:07Z</time>
      </trkpt>
      <trkpt lat="41.615777510" lon="2.522787450">
        <ele>186.63</ele>
        <time>2016-02-21T06:20:13Z</time>
      </trkpt>
      <trkpt lat="41.615813890" lon="2.522542450">
        <ele>187.59</ele>
        <time>2016-02-21T06:20:21Z</time>
      </trkpt>
      <trkpt lat="41.615837950" lon="2.522310690">
        <ele>188.56</ele>
        <time>2016-02-21T06:20:28Z</time>
      </trkpt>
      <trkpt lat="41.615872060" lon="2.522028390">
        <ele>190.00</ele>
        <time>2016-02-21T06:20:37Z</time>
      </trkpt>
      <trkpt lat="41.615886390" lon="2.521811550">
        <ele>190.96</ele>
        <time>2016-02-21T06:20:44Z</time>
      </trkpt>
      <trkpt lat="41.615936350" lon="2.521496970">
        <ele>190.48</ele>
        <time>2016-02-21T06:20:52Z</time>
      </trkpt>
      <trkpt lat="41.615973820" lon="2.521235710">
        <ele>190.96</ele>
        <time>2016-02-21T06:21:00Z</time>
      </trkpt>
      <trkpt lat="41.616030230" lon="2.520961370">
        <ele>191.44</ele>
        <time>2016-02-21T06:21:08Z</time>
      </trkpt>
      <trkpt lat="41.616091330" lon="2.520682170">
        <ele>191.92</ele>
        <time>2016-02-21T06:21:16Z</time>
      </trkpt>
      <trkpt lat="41.616159980" lon="2.520434230">
        <ele>192.88</ele>
        <time>2016-02-21T06:21:24Z</time>
      </trkpt>
      <trkpt lat="41.616234330" lon="2.520248070">
        <ele>193.36</ele>
        <time>2016-02-21T06:21:31Z</time>
      </trkpt>
      <trkpt lat="41.616304480" lon="2.520008770">
        <ele>194.32</ele>
        <time>2016-02-21T06:21:40Z</time>
      </trkpt>
      <trkpt lat="41.616377740" lon="2.519784130">
        <ele>194.80</ele>
        <time>2016-02-21T06:21:47Z</time>
      </trkpt>
      <trkpt lat="41.616441110" lon="2.519485480">
        <ele>195.77</ele>
        <time>2016-02-21T06:21:56Z</time>
      </trkpt>
      <trkpt lat="41.616498190" lon="2.519214830">
        <ele>196.73</ele>
        <time>2016-02-21T06:22:04Z</time>
      </trkpt>
      <trkpt lat="41.616566170" lon="2.518914590">
        <ele>197.69</ele>
        <time>2016-02-21T06:22:13Z</time>
      </trkpt>
      <trkpt lat="41.616671530" lon="2.518616950">
        <ele>197.69</ele>
        <time>2016-02-21T06:22:22Z</time>
      </trkpt>
      <trkpt lat="41.616730030" lon="2.518354010">
        <ele>197.69</ele>
        <time>2016-02-21T06:22:29Z</time>
      </trkpt>
      <trkpt lat="41.616734730" lon="2.518061900">
        <ele>197.69</ele>
        <time>2016-02-21T06:22:38Z</time>
      </trkpt>
      <trkpt lat="41.616728100" lon="2.517819830">
        <ele>198.65</ele>
        <time>2016-02-21T06:22:46Z</time>
      </trkpt>
      <trkpt lat="41.616747130" lon="2.517610950">
        <ele>199.13</ele>
        <time>2016-02-21T06:22:53Z</time>
      </trkpt>
      <trkpt lat="41.616766490" lon="2.517335360">
        <ele>200.57</ele>
        <time>2016-02-21T06:23:02Z</time>
      </trkpt>
      <trkpt lat="41.616790380" lon="2.517081220">
        <ele>201.53</ele>
        <time>2016-02-21T06:23:10Z</time>
      </trkpt>
      <trkpt lat="41.616808570" lon="2.516839900">
        <ele>202.01</ele>
        <time>2016-02-21T06:23:17Z</time>
      </trkpt>
      <trkpt lat="41.616824410" lon="2.516553660">
        <ele>202.98</ele>
        <time>2016-02-21T06:23:26Z</time>
      </trkpt>
      <trkpt lat="41.616837400" lon="2.516252920">
        <ele>204.42</ele>
        <time>2016-02-21T06:23:35Z</time>
      </trkpt>
      <trkpt lat="41.616849560" lon="2.515996100">
        <ele>204.90</ele>
        <time>2016-02-21T06:23:43Z</time>
      </trkpt>
      <trkpt lat="41.616866490" lon="2.515696780">
        <ele>205.38</ele>
        <time>2016-02-21T06:23:52Z</time>
      </trkpt>
      <trkpt lat="41.616880490" lon="2.515342640">
        <ele>207.30</ele>
        <time>2016-02-21T06:24:03Z</time>
      </trkpt>
      <trkpt lat="41.616879900" lon="2.515152710">
        <ele>207.78</ele>
        <time>2016-02-21T06:24:09Z</time>
      </trkpt>
      <trkpt lat="41.616880240" lon="2.514869570">
        <ele>208.74</ele>
        <time>2016-02-21T06:24:18Z</time>
      </trkpt>
      <trkpt lat="41.616886610" lon="2.514557260">
        <ele>209.70</ele>
        <time>2016-02-21T06:24:27Z</time>
      </trkpt>
      <trkpt lat="41.616882000" lon="2.514217630">
        <ele>210.67</ele>
        <time>2016-02-21T06:24:37Z</time>
      </trkpt>
      <trkpt lat="41.616888870" lon="2.513881090">
        <ele>211.63</ele>
        <time>2016-02-21T06:24:47Z</time>
      </trkpt>
      <trkpt lat="41.616901270" lon="2.513631560">
        <ele>212.59</ele>
        <time>2016-02-21T06:24:55Z</time>
      </trkpt>
      <trkpt lat="41.616892560" lon="2.513389580">
        <ele>213.55</ele>
        <time>2016-02-21T06:25:03Z</time>
      </trkpt>
      <trkpt lat="41.616898420" lon="2.513090430">
        <ele>214.51</ele>
        <time>2016-02-21T06:25:12Z</time>
      </trkpt>
      <trkpt lat="41.616859200" lon="2.512737800">
        <ele>215.47</ele>
        <time>2016-02-21T06:25:23Z</time>
      </trkpt>
      <trkpt lat="41.616794570" lon="2.512476960">
        <ele>215.95</ele>
        <time>2016-02-21T06:25:32Z</time>
      </trkpt>
      <trkpt lat="41.616698850" lon="2.512272770">
        <ele>217.40</ele>
        <time>2016-02-21T06:25:40Z</time>
      </trkpt>
      <trkpt lat="41.616612430" lon="2.512117460">
        <ele>217.40</ele>
        <time>2016-02-21T06:25:47Z</time>
      </trkpt>
      <trkpt lat="41.616508080" lon="2.511913520">
        <ele>218.36</ele>
        <time>2016-02-21T06:25:55Z</time>
      </trkpt>
      <trkpt lat="41.616429790" lon="2.511732470">
        <ele>219.32</ele>
        <time>2016-02-21T06:26:02Z</time>
      </trkpt>
      <trkpt lat="41.616417390" lon="2.511674390">
        <ele>219.32</ele>
        <time>2016-02-21T06:26:04Z</time>
      </trkpt>
      <trkpt lat="41.616392410" lon="2.511502980">
        <ele>219.80</ele>
        <time>2016-02-21T06:26:10Z</time>
      </trkpt>
      <trkpt lat="41.616398360" lon="2.511240040">
        <ele>220.28</ele>
        <time>2016-02-21T06:26:20Z</time>
      </trkpt>
      <trkpt lat="41.616417970" lon="2.511049850">
        <ele>221.24</ele>
        <time>2016-02-21T06:26:27Z</time>
      </trkpt>
      <trkpt lat="41.616469940" lon="2.510876180">
        <ele>222.68</ele>
        <time>2016-02-21T06:26:34Z</time>
      </trkpt>
      <trkpt lat="41.616523000" lon="2.510770400">
        <ele>223.16</ele>
        <time>2016-02-21T06:26:40Z</time>
      </trkpt>
      <trkpt lat="41.616530380" lon="2.510784230">
        <ele>223.16</ele>
        <time>2016-02-21T06:26:46Z</time>
      </trkpt>
      <trkpt lat="41.616514870" lon="2.510778870">
        <ele>223.16</ele>
        <time>2016-02-21T06:26:53Z</time>
      </trkpt>
      <trkpt lat="41.616512440" lon="2.510727070">
        <ele>223.16</ele>
        <time>2016-02-21T06:27:09Z</time>
      </trkpt>
      <trkpt lat="41.616526600" lon="2.510701920">
        <ele>223.16</ele>
        <time>2016-02-21T06:27:13Z</time>
      </trkpt>
      <trkpt lat="41.616593320" lon="2.510643080">
        <ele>224.12</ele>
        <time>2016-02-21T06:27:20Z</time>
      </trkpt>
      <trkpt lat="41.616662640" lon="2.510544840">
        <ele>226.05</ele>
        <time>2016-02-21T06:27:27Z</time>
      </trkpt>
      <trkpt lat="41.616718300" lon="2.510402850">
        <ele>227.97</ele>
        <time>2016-02-21T06:27:35Z</time>
      </trkpt>
      <trkpt lat="41.616726260" lon="2.510379130">
        <ele>227.97</ele>
        <time>2016-02-21T06:27:36Z</time>
      </trkpt>
      <trkpt lat="41.616765150" lon="2.510221640">
        <ele>229.41</ele>
        <time>2016-02-21T06:27:44Z</time>
      </trkpt>
      <trkpt lat="41.616768920" lon="2.510050060">
        <ele>231.33</ele>
        <time>2016-02-21T06:27:53Z</time>
      </trkpt>
      <trkpt lat="41.616798430" lon="2.509874370">
        <ele>233.26</ele>
        <time>2016-02-21T06:28:02Z</time>
      </trkpt>
      <trkpt lat="41.616879230" lon="2.509669440">
        <ele>233.74</ele>
        <time>2016-02-21T06:28:13Z</time>
      </trkpt>
      <trkpt lat="41.616909910" lon="2.509591820">
        <ele>233.74</ele>
        <time>2016-02-21T06:28:17Z</time>
      </trkpt>
      <trkpt lat="41.616885180" lon="2.509531050">
        <ele>233.74</ele>
        <time>2016-02-21T06:28:21Z</time>
      </trkpt>
      <trkpt lat="41.616781080" lon="2.509603720">
        <ele>235.66</ele>
        <time>2016-02-21T06:28:31Z</time>
      </trkpt>
      <trkpt lat="41.616689300" lon="2.509745710">
        <ele>236.62</ele>
        <time>2016-02-21T06:28:41Z</time>
      </trkpt>
      <trkpt lat="41.616614700" lon="2.509828360">
        <ele>237.10</ele>
        <time>2016-02-21T06:28:48Z</time>
      </trkpt>
      <trkpt lat="41.616466840" lon="2.509796250">
        <ele>238.54</ele>
        <time>2016-02-21T06:28:57Z</time>
      </trkpt>
      <trkpt lat="41.616378080" lon="2.509715960">
        <ele>239.99</ele>
        <time>2016-02-21T06:29:05Z</time>
      </trkpt>
      <trkpt lat="41.616370530" lon="2.509702710">
        <ele>239.99</ele>
        <time>2016-02-21T06:29:06Z</time>
      </trkpt>
      <trkpt lat="41.616350500" lon="2.509608170">
        <ele>241.43</ele>
        <time>2016-02-21T06:29:12Z</time>
      </trkpt>
      <trkpt lat="41.616339100" lon="2.509460140">
        <ele>243.35</ele>
        <time>2016-02-21T06:29:21Z</time>
      </trkpt>
      <trkpt lat="41.616324520" lon="2.509257050">
        <ele>245.75</ele>
        <time>2016-02-21T06:29:33Z</time>
      </trkpt>
      <trkpt lat="41.616307080" lon="2.509102990">
        <ele>247.20</ele>
        <time>2016-02-21T06:29:42Z</time>
      </trkpt>
      <trkpt lat="41.616285540" lon="2.508956560">
        <ele>249.12</ele>
        <time>2016-02-21T06:29:51Z</time>
      </trkpt>
      <trkpt lat="41.616261570" lon="2.508848510">
        <ele>250.56</ele>
        <time>2016-02-21T06:29:58Z</time>
      </trkpt>
      <trkpt lat="41.616228460" lon="2.508744490">
        <ele>252.00</ele>
        <time>2016-02-21T06:30:05Z</time>
      </trkpt>
      <trkpt lat="41.616211280" lon="2.508637880">
        <ele>252.96</ele>
        <time>2016-02-21T06:30:12Z</time>
      </trkpt>
      <trkpt lat="41.616198950" lon="2.508547350">
        <ele>254.89</ele>
        <time>2016-02-21T06:30:18Z</time>
      </trkpt>
      <trkpt lat="41.616191750" lon="2.508493960">
        <ele>255.37</ele>
        <time>2016-02-21T06:30:21Z</time>
      </trkpt>
      <trkpt lat="41.616134830" lon="2.508312160">
        <ele>256.81</ele>
        <time>2016-02-21T06:30:32Z</time>
      </trkpt>
      <trkpt lat="41.616077750" lon="2.508163960">
        <ele>258.73</ele>
        <time>2016-02-21T06:30:42Z</time>
      </trkpt>
      <trkpt lat="41.616038440" lon="2.508025330">
        <ele>260.65</ele>
        <time>2016-02-21T06:30:52Z</time>
      </trkpt>
      <trkpt lat="41.615997870" lon="2.507879900">
        <ele>261.14</ele>
        <time>2016-02-21T06:30:59Z</time>
      </trkpt>
      <trkpt lat="41.615947920" lon="2.507730450">
        <ele>262.58</ele>
        <time>2016-02-21T06:31:08Z</time>
      </trkpt>
      <trkpt lat="41.615888320" lon="2.507582260">
        <ele>264.50</ele>
        <time>2016-02-21T06:31:18Z</time>
      </trkpt>
      <trkpt lat="41.615859400" lon="2.507445630">
        <ele>265.94</ele>
        <time>2016-02-21T06:31:26Z</time>
      </trkpt>
      <trkpt lat="41.615815230" lon="2.507302970">
        <ele>266.90</ele>
        <time>2016-02-21T06:31:35Z</time>
      </trkpt>
      <trkpt lat="41.615756140" lon="2.507107340">
        <ele>268.83</ele>
        <time>2016-02-21T06:31:47Z</time>
      </trkpt>
      <trkpt lat="41.615740880" lon="2.507063670">
        <ele>269.31</ele>
        <time>2016-02-21T06:31:50Z</time>
      </trkpt>
      <trkpt lat="41.615712390" lon="2.506912130">
        <ele>270.75</ele>
        <time>2016-02-21T06:32:00Z</time>
      </trkpt>
      <trkpt lat="41.615718920" lon="2.506790670">
        <ele>272.19</ele>
        <time>2016-02-21T06:32:08Z</time>
      </trkpt>
      <trkpt lat="41.615716580" lon="2.506684720">
        <ele>273.63</ele>
        <time>2016-02-21T06:32:15Z</time>
      </trkpt>
      <trkpt lat="41.615724540" lon="2.506658910">
        <ele>274.11</ele>
        <time>2016-02-21T06:32:17Z</time>
      </trkpt>
      <trkpt lat="41.615761750" lon="2.506470570">
        <ele>276.52</ele>
        <time>2016-02-21T06:32:28Z</time>
      </trkpt>
      <trkpt lat="41.615800560" lon="2.506332100">
        <ele>278.44</ele>
        <time>2016-02-21T06:32:38Z</time>
      </trkpt>
      <trkpt lat="41.615852700" lon="2.506208800">
        <ele>279.88</ele>
        <time>2016-02-21T06:32:46Z</time>
      </trkpt>
      <trkpt lat="41.615899970" lon="2.506077620">
        <ele>281.80</ele>
        <time>2016-02-21T06:32:54Z</time>
      </trkpt>
      <trkpt lat="41.615946660" lon="2.505942090">
        <ele>283.25</ele>
        <time>2016-02-21T06:33:02Z</time>
      </trkpt>
      <trkpt lat="41.615981110" lon="2.505821560">
        <ele>285.17</ele>
        <time>2016-02-21T06:33:11Z</time>
      </trkpt>
      <trkpt lat="41.615995110" lon="2.505787110">
        <ele>285.65</ele>
        <time>2016-02-21T06:33:14Z</time>
      </trkpt>
      <trkpt lat="41.616043140" lon="2.505663050">
        <ele>287.57</ele>
        <time>2016-02-21T06:33:24Z</time>
      </trkpt>
      <trkpt lat="41.616078510" lon="2.505548890">
        <ele>288.53</ele>
        <time>2016-02-21T06:33:32Z</time>
      </trkpt>
      <trkpt lat="41.616138020" lon="2.505364580">
        <ele>290.46</ele>
        <time>2016-02-21T06:33:42Z</time>
      </trkpt>
      <trkpt lat="41.616158220" lon="2.505165250">
        <ele>293.34</ele>
        <time>2016-02-21T06:33:53Z</time>
      </trkpt>
      <trkpt lat="41.616153360" lon="2.505000470">
        <ele>294.30</ele>
        <time>2016-02-21T06:34:01Z</time>
      </trkpt>
      <trkpt lat="41.616072050" lon="2.504857890">
        <ele>295.74</ele>
        <time>2016-02-21T06:34:10Z</time>
      </trkpt>
      <trkpt lat="41.615954370" lon="2.504860990">
        <ele>296.70</ele>
        <time>2016-02-21T06:34:18Z</time>
      </trkpt>
      <trkpt lat="41.615801570" lon="2.504843470">
        <ele>297.67</ele>
        <time>2016-02-21T06:34:27Z</time>
      </trkpt>
      <trkpt lat="41.615626220" lon="2.504850090">
        <ele>299.59</ele>
        <time>2016-02-21T06:34:38Z</time>
      </trkpt>
      <trkpt lat="41.615529830" lon="2.504839870">
        <ele>300.55</ele>
        <time>2016-02-21T06:34:45Z</time>
      </trkpt>
      <trkpt lat="41.615407790" lon="2.504794610">
        <ele>301.99</ele>
        <time>2016-02-21T06:34:54Z</time>
      </trkpt>
      <trkpt lat="41.615400330" lon="2.504780610">
        <ele>301.99</ele>
        <time>2016-02-21T06:34:55Z</time>
      </trkpt>
      <trkpt lat="41.615384320" lon="2.504740120">
        <ele>302.47</ele>
        <time>2016-02-21T06:34:58Z</time>
      </trkpt>
      <trkpt lat="41.615383980" lon="2.504579360">
        <ele>304.39</ele>
        <time>2016-02-21T06:35:08Z</time>
      </trkpt>
      <trkpt lat="41.615382220" lon="2.504564520">
        <ele>304.88</ele>
        <time>2016-02-21T06:35:09Z</time>
      </trkpt>
      <trkpt lat="41.615393290" lon="2.504411720">
        <ele>306.80</ele>
        <time>2016-02-21T06:35:19Z</time>
      </trkpt>
      <trkpt lat="41.615403930" lon="2.504219610">
        <ele>309.20</ele>
        <time>2016-02-21T06:35:30Z</time>
      </trkpt>
      <trkpt lat="41.615417930" lon="2.504077200">
        <ele>310.64</ele>
        <time>2016-02-21T06:35:39Z</time>
      </trkpt>
      <trkpt lat="41.615429750" lon="2.503960350">
        <ele>312.57</ele>
        <time>2016-02-21T06:35:47Z</time>
      </trkpt>
      <trkpt lat="41.615430840" lon="2.503916180">
        <ele>313.05</ele>
        <time>2016-02-21T06:35:50Z</time>
      </trkpt>
      <trkpt lat="41.615440060" lon="2.503789360">
        <ele>314.97</ele>
        <time>2016-02-21T06:35:58Z</time>
      </trkpt>
      <trkpt lat="41.615427900" lon="2.503643020">
        <ele>316.89</ele>
        <time>2016-02-21T06:36:07Z</time>
      </trkpt>
      <trkpt lat="41.615422540" lon="2.503507900">
        <ele>317.85</ele>
        <time>2016-02-21T06:36:15Z</time>
      </trkpt>
      <trkpt lat="41.615403090" lon="2.503352750">
        <ele>318.81</ele>
        <time>2016-02-21T06:36:23Z</time>
      </trkpt>
      <trkpt lat="41.615356820" lon="2.503156780">
        <ele>318.81</ele>
        <time>2016-02-21T06:36:30Z</time>
      </trkpt>
      <trkpt lat="41.615245180" lon="2.502968190">
        <ele>318.81</ele>
        <time>2016-02-21T06:36:38Z</time>
      </trkpt>
      <trkpt lat="41.615167900" lon="2.502752690">
        <ele>318.81</ele>
        <time>2016-02-21T06:36:45Z</time>
      </trkpt>
      <trkpt lat="41.615104950" lon="2.502460410">
        <ele>319.30</ele>
        <time>2016-02-21T06:36:55Z</time>
      </trkpt>
      <trkpt lat="41.615048120" lon="2.502223710">
        <ele>320.26</ele>
        <time>2016-02-21T06:37:04Z</time>
      </trkpt>
      <trkpt lat="41.614996400" lon="2.502069310">
        <ele>321.22</ele>
        <time>2016-02-21T06:37:11Z</time>
      </trkpt>
      <trkpt lat="41.614957260" lon="2.501860440">
        <ele>322.66</ele>
        <time>2016-02-21T06:37:20Z</time>
      </trkpt>
      <trkpt lat="41.614939830" lon="2.501663210">
        <ele>322.66</ele>
        <time>2016-02-21T06:37:27Z</time>
      </trkpt>
      <trkpt lat="41.614922890" lon="2.501465400">
        <ele>322.66</ele>
        <time>2016-02-21T06:37:33Z</time>
      </trkpt>
      <trkpt lat="41.614734720" lon="2.501423660">
        <ele>322.66</ele>
        <time>2016-02-21T06:37:42Z</time>
      </trkpt>
      <trkpt lat="41.614590380" lon="2.501347550">
        <ele>324.10</ele>
        <time>2016-02-21T06:37:51Z</time>
      </trkpt>
      <trkpt lat="41.614443700" lon="2.501244620">
        <ele>325.54</ele>
        <time>2016-02-21T06:38:00Z</time>
      </trkpt>
      <trkpt lat="41.614413530" lon="2.501225840">
        <ele>326.02</ele>
        <time>2016-02-21T06:38:02Z</time>
      </trkpt>
      <trkpt lat="41.614305820" lon="2.501077400">
        <ele>327.47</ele>
        <time>2016-02-21T06:38:12Z</time>
      </trkpt>
      <trkpt lat="41.614267850" lon="2.500919070">
        <ele>328.43</ele>
        <time>2016-02-21T06:38:21Z</time>
      </trkpt>
      <trkpt lat="41.614226110" lon="2.500812700">
        <ele>329.87</ele>
        <time>2016-02-21T06:38:28Z</time>
      </trkpt>
      <trkpt lat="41.614168520" lon="2.500681770">
        <ele>331.79</ele>
        <time>2016-02-21T06:38:37Z</time>
      </trkpt>
      <trkpt lat="41.614155030" lon="2.500642040">
        <ele>332.75</ele>
        <time>2016-02-21T06:38:40Z</time>
      </trkpt>
      <trkpt lat="41.614094590" lon="2.500538690">
        <ele>334.20</ele>
        <time>2016-02-21T06:38:48Z</time>
      </trkpt>
      <trkpt lat="41.614045220" lon="2.500445320">
        <ele>336.12</ele>
        <time>2016-02-21T06:38:56Z</time>
      </trkpt>
      <trkpt lat="41.613991750" lon="2.500349180">
        <ele>338.52</ele>
        <time>2016-02-21T06:39:05Z</time>
      </trkpt>
      <trkpt lat="41.613935670" lon="2.500259240">
        <ele>340.44</ele>
        <time>2016-02-21T06:39:13Z</time>
      </trkpt>
      <trkpt lat="41.613893600" lon="2.500172910">
        <ele>340.92</ele>
        <time>2016-02-21T06:39:21Z</time>
      </trkpt>
      <trkpt lat="41.613834420" lon="2.500089090">
        <ele>342.37</ele>
        <time>2016-02-21T06:39:29Z</time>
      </trkpt>
      <trkpt lat="41.613832410" lon="2.500077940">
        <ele>342.37</ele>
        <time>2016-02-21T06:39:30Z</time>
      </trkpt>
      <trkpt lat="41.613833080" lon="2.500038130">
        <ele>343.33</ele>
        <time>2016-02-21T06:39:33Z</time>
      </trkpt>
      <trkpt lat="41.613844560" lon="2.500020020">
        <ele>343.33</ele>
        <time>2016-02-21T06:39:35Z</time>
      </trkpt>
      <trkpt lat="41.613873560" lon="2.500017340">
        <ele>343.81</ele>
        <time>2016-02-21T06:39:38Z</time>
      </trkpt>
      <trkpt lat="41.613921840" lon="2.500042490">
        <ele>344.77</ele>
        <time>2016-02-21T06:39:43Z</time>
      </trkpt>
      <trkpt lat="41.613949500" lon="2.500082380">
        <ele>345.73</ele>
        <time>2016-02-21T06:39:47Z</time>
      </trkpt>
      <trkpt lat="41.614040280" lon="2.500173660">
        <ele>347.65</ele>
        <time>2016-02-21T06:39:57Z</time>
      </trkpt>
      <trkpt lat="41.614150080" lon="2.500251280">
        <ele>349.10</ele>
        <time>2016-02-21T06:40:07Z</time>
      </trkpt>
      <trkpt lat="41.614242530" lon="2.500271730">
        <ele>350.54</ele>
        <time>2016-02-21T06:40:15Z</time>
      </trkpt>
      <trkpt lat="41.614360970" lon="2.500333510">
        <ele>352.46</ele>
        <time>2016-02-21T06:40:26Z</time>
      </trkpt>
      <trkpt lat="41.614460880" lon="2.500403660">
        <ele>354.38</ele>
        <time>2016-02-21T06:40:35Z</time>
      </trkpt>
      <trkpt lat="41.614541100" lon="2.500467620">
        <ele>355.83</ele>
        <time>2016-02-21T06:40:43Z</time>
      </trkpt>
      <trkpt lat="41.614600860" lon="2.500533670">
        <ele>357.75</ele>
        <time>2016-02-21T06:40:50Z</time>
      </trkpt>
      <trkpt lat="41.614649640" lon="2.500572890">
        <ele>358.23</ele>
        <time>2016-02-21T06:40:55Z</time>
      </trkpt>
      <trkpt lat="41.614699010" lon="2.500583200">
        <ele>359.19</ele>
        <time>2016-02-21T06:40:59Z</time>
      </trkpt>
      <trkpt lat="41.614798840" lon="2.500553450">
        <ele>359.67</ele>
        <time>2016-02-21T06:41:08Z</time>
      </trkpt>
      <trkpt lat="41.614893810" lon="2.500538280">
        <ele>360.15</ele>
        <time>2016-02-21T06:41:15Z</time>
      </trkpt>
      <trkpt lat="41.615015680" lon="2.500610280">
        <ele>360.15</ele>
        <time>2016-02-21T06:41:22Z</time>
      </trkpt>
      <trkpt lat="41.615165300" lon="2.500654030">
        <ele>361.11</ele>
        <time>2016-02-21T06:41:32Z</time>
      </trkpt>
      <trkpt lat="41.615266720" lon="2.500604240">
        <ele>362.07</ele>
        <time>2016-02-21T06:41:40Z</time>
      </trkpt>
      <trkpt lat="41.615351800" lon="2.500540370">
        <ele>362.55</ele>
        <time>2016-02-21T06:41:48Z</time>
      </trkpt>
      <trkpt lat="41.615466380" lon="2.500502230">
        <ele>363.52</ele>
        <time>2016-02-21T06:41:56Z</time>
      </trkpt>
      <trkpt lat="41.615600820" lon="2.500493260">
        <ele>364.48</ele>
        <time>2016-02-21T06:42:04Z</time>
      </trkpt>
      <trkpt lat="41.615722950" lon="2.500486060">
        <ele>365.92</ele>
        <time>2016-02-21T06:42:12Z</time>
      </trkpt>
      <trkpt lat="41.615793610" lon="2.500385390">
        <ele>367.36</ele>
        <time>2016-02-21T06:42:20Z</time>
      </trkpt>
      <trkpt lat="41.615790420" lon="2.500267040">
        <ele>368.80</ele>
        <time>2016-02-21T06:42:27Z</time>
      </trkpt>
      <trkpt lat="41.615698390" lon="2.500231920">
        <ele>370.73</ele>
        <time>2016-02-21T06:42:35Z</time>
      </trkpt>
      <trkpt lat="41.615603670" lon="2.500246670">
        <ele>372.65</ele>
        <time>2016-02-21T06:42:44Z</time>
      </trkpt>
      <trkpt lat="41.615482050" lon="2.500252960">
        <ele>374.09</ele>
        <time>2016-02-21T06:42:53Z</time>
      </trkpt>
      <trkpt lat="41.615334860" lon="2.500246000">
        <ele>376.49</ele>
        <time>2016-02-21T06:43:04Z</time>
      </trkpt>
      <trkpt lat="41.615211650" lon="2.500180120">
        <ele>377.94</ele>
        <time>2016-02-21T06:43:13Z</time>
      </trkpt>
      <trkpt lat="41.615144600" lon="2.500061260">
        <ele>378.90</ele>
        <time>2016-02-21T06:43:21Z</time>
      </trkpt>
      <trkpt lat="41.615061360" lon="2.500005770">
        <ele>379.86</ele>
        <time>2016-02-21T06:43:29Z</time>
      </trkpt>
      <trkpt lat="41.614977120" lon="2.500019690">
        <ele>381.78</ele>
        <time>2016-02-21T06:43:37Z</time>
      </trkpt>
      <trkpt lat="41.614909570" lon="2.500022790">
        <ele>382.74</ele>
        <time>2016-02-21T06:43:43Z</time>
      </trkpt>
      <trkpt lat="41.614797920" lon="2.499995380">
        <ele>384.66</ele>
        <time>2016-02-21T06:43:52Z</time>
      </trkpt>
      <trkpt lat="41.614768000" lon="2.499962610">
        <ele>385.63</ele>
        <time>2016-02-21T06:43:55Z</time>
      </trkpt>
      <trkpt lat="41.614692640" lon="2.499833110">
        <ele>388.03</ele>
        <time>2016-02-21T06:44:05Z</time>
      </trkpt>
      <trkpt lat="41.614637910" lon="2.499702430">
        <ele>390.43</ele>
        <time>2016-02-21T06:44:15Z</time>
      </trkpt>
      <trkpt lat="41.614599600" lon="2.499604450">
        <ele>391.87</ele>
        <time>2016-02-21T06:44:22Z</time>
      </trkpt>
      <trkpt lat="41.614570430" lon="2.499443350">
        <ele>394.28</ele>
        <time>2016-02-21T06:44:32Z</time>
      </trkpt>
      <trkpt lat="41.614585100" lon="2.499277720">
        <ele>396.20</ele>
        <time>2016-02-21T06:44:43Z</time>
      </trkpt>
      <trkpt lat="41.614615950" lon="2.499115450">
        <ele>396.68</ele>
        <time>2016-02-21T06:44:53Z</time>
      </trkpt>
      <trkpt lat="41.614655430" lon="2.498975050">
        <ele>397.64</ele>
        <time>2016-02-21T06:45:02Z</time>
      </trkpt>
      <trkpt lat="41.614662890" lon="2.498939510">
        <ele>398.60</ele>
        <time>2016-02-21T06:45:04Z</time>
      </trkpt>
      <trkpt lat="41.614653750" lon="2.498890390">
        <ele>398.60</ele>
        <time>2016-02-21T06:45:07Z</time>
      </trkpt>
      <trkpt lat="41.614659200" lon="2.498736590">
        <ele>400.05</ele>
        <time>2016-02-21T06:45:16Z</time>
      </trkpt>
      <trkpt lat="41.614698170" lon="2.498527960">
        <ele>401.49</ele>
        <time>2016-02-21T06:45:27Z</time>
      </trkpt>
      <trkpt lat="41.614714600" lon="2.498382110">
        <ele>402.93</ele>
        <time>2016-02-21T06:45:35Z</time>
      </trkpt>
      <trkpt lat="41.614719970" lon="2.498207180">
        <ele>403.89</ele>
        <time>2016-02-21T06:45:44Z</time>
      </trkpt>
      <trkpt lat="41.614707730" lon="2.498012640">
        <ele>406.29</ele>
        <time>2016-02-21T06:45:54Z</time>
      </trkpt>
      <trkpt lat="41.614653670" lon="2.497784820">
        <ele>406.29</ele>
        <time>2016-02-21T06:46:02Z</time>
      </trkpt>
      <trkpt lat="41.614560040" lon="2.497554400">
        <ele>404.85</ele>
        <time>2016-02-21T06:46:06Z</time>
      </trkpt>
      <trkpt lat="41.614359040" lon="2.497437640">
        <ele>401.97</ele>
        <time>2016-02-21T06:46:10Z</time>
      </trkpt>
      <trkpt lat="41.614249240" lon="2.497544680">
        <ele>401.01</ele>
        <time>2016-02-21T06:46:13Z</time>
      </trkpt>
      <trkpt lat="41.614230970" lon="2.497576030">
        <ele>401.01</ele>
        <time>2016-02-21T06:46:14Z</time>
      </trkpt>
      <trkpt lat="41.614198950" lon="2.497620120">
        <ele>402.45</ele>
        <time>2016-02-21T06:46:16Z</time>
      </trkpt>
      <trkpt lat="41.614118310" lon="2.497704020">
        <ele>404.85</ele>
        <time>2016-02-21T06:46:23Z</time>
      </trkpt>
      <trkpt lat="41.614013210" lon="2.497764790">
        <ele>405.81</ele>
        <time>2016-02-21T06:46:30Z</time>
      </trkpt>
      <trkpt lat="41.613913130" lon="2.497803180">
        <ele>407.26</ele>
        <time>2016-02-21T06:46:37Z</time>
      </trkpt>
      <trkpt lat="41.613761920" lon="2.497729330">
        <ele>409.18</ele>
        <time>2016-02-21T06:46:47Z</time>
      </trkpt>
      <trkpt lat="41.613671560" lon="2.497577540">
        <ele>409.66</ele>
        <time>2016-02-21T06:46:55Z</time>
      </trkpt>
      <trkpt lat="41.613553290" lon="2.497415010">
        <ele>411.10</ele>
        <time>2016-02-21T06:47:05Z</time>
      </trkpt>
      <trkpt lat="41.613427560" lon="2.497352060">
        <ele>412.06</ele>
        <time>2016-02-21T06:47:13Z</time>
      </trkpt>
      <trkpt lat="41.613369220" lon="2.497313670">
        <ele>412.54</ele>
        <time>2016-02-21T06:47:17Z</time>
      </trkpt>
      <trkpt lat="41.613403840" lon="2.497250890">
        <ele>413.02</ele>
        <time>2016-02-21T06:47:23Z</time>
      </trkpt>
      <trkpt lat="41.613508780" lon="2.497268410">
        <ele>414.47</ele>
        <time>2016-02-21T06:47:31Z</time>
      </trkpt>
      <trkpt lat="41.613594030" lon="2.497335380">
        <ele>415.91</ele>
        <time>2016-02-21T06:47:38Z</time>
      </trkpt>
      <trkpt lat="41.613715560" lon="2.497445190">
        <ele>416.39</ele>
        <time>2016-02-21T06:47:46Z</time>
      </trkpt>
      <trkpt lat="41.613871220" lon="2.497470750">
        <ele>416.39</ele>
        <time>2016-02-21T06:47:53Z</time>
      </trkpt>
      <trkpt lat="41.614044470" lon="2.497395480">
        <ele>415.91</ele>
        <time>2016-02-21T06:47:59Z</time>
      </trkpt>
      <trkpt lat="41.614165340" lon="2.497260030">
        <ele>415.91</ele>
        <time>2016-02-21T06:48:06Z</time>
      </trkpt>
      <trkpt lat="41.614174890" lon="2.497036900">
        <ele>416.39</ele>
        <time>2016-02-21T06:48:13Z</time>
      </trkpt>
      <trkpt lat="41.614171040" lon="2.496988620">
        <ele>416.39</ele>
        <time>2016-02-21T06:48:14Z</time>
      </trkpt>
      <trkpt lat="41.614236500" lon="2.496781420">
        <ele>414.95</ele>
        <time>2016-02-21T06:48:20Z</time>
      </trkpt>
      <trkpt lat="41.614336580" lon="2.496864240">
        <ele>413.98</ele>
        <time>2016-02-21T06:48:24Z</time>
      </trkpt>
      <trkpt lat="41.614355690" lon="2.496891310">
        <ele>413.98</ele>
        <time>2016-02-21T06:48:25Z</time>
      </trkpt>
      <trkpt lat="41.614395760" lon="2.496945120">
        <ele>413.98</ele>
        <time>2016-02-21T06:48:27Z</time>
      </trkpt>
      <trkpt lat="41.614487960" lon="2.497017290">
        <ele>413.50</ele>
        <time>2016-02-21T06:48:31Z</time>
      </trkpt>
      <trkpt lat="41.614645870" lon="2.497167580">
        <ele>413.50</ele>
        <time>2016-02-21T06:48:38Z</time>
      </trkpt>
      <trkpt lat="41.614767330" lon="2.497392210">
        <ele>413.50</ele>
        <time>2016-02-21T06:48:47Z</time>
      </trkpt>
      <trkpt lat="41.614836060" lon="2.497575270">
        <ele>415.91</ele>
        <time>2016-02-21T06:48:55Z</time>
      </trkpt>
      <trkpt lat="41.614894400" lon="2.497749620">
        <ele>417.83</ele>
        <time>2016-02-21T06:49:03Z</time>
      </trkpt>
      <trkpt lat="41.614953820" lon="2.497882640">
        <ele>419.27</ele>
        <time>2016-02-21T06:49:10Z</time>
      </trkpt>
      <trkpt lat="41.615037730" lon="2.498017750">
        <ele>420.23</ele>
        <time>2016-02-21T06:49:17Z</time>
      </trkpt>
      <trkpt lat="41.615121380" lon="2.498161080">
        <ele>422.16</ele>
        <time>2016-02-21T06:49:25Z</time>
      </trkpt>
      <trkpt lat="41.615153980" lon="2.498331570">
        <ele>424.08</ele>
        <time>2016-02-21T06:49:33Z</time>
      </trkpt>
      <trkpt lat="41.615229920" lon="2.498450590">
        <ele>424.56</ele>
        <time>2016-02-21T06:49:40Z</time>
      </trkpt>
      <trkpt lat="41.615343750" lon="2.498467020">
        <ele>425.52</ele>
        <time>2016-02-21T06:49:47Z</time>
      </trkpt>
      <trkpt lat="41.615498060" lon="2.498473140">
        <ele>426.48</ele>
        <time>2016-02-21T06:49:56Z</time>
      </trkpt>
      <trkpt lat="41.615625970" lon="2.498452440">
        <ele>428.40</ele>
        <time>2016-02-21T06:50:05Z</time>
      </trkpt>
      <trkpt lat="41.615721100" lon="2.498385300">
        <ele>429.85</ele>
        <time>2016-02-21T06:50:13Z</time>
      </trkpt>
      <trkpt lat="41.615807180" lon="2.498245240">
        <ele>431.29</ele>
        <time>2016-02-21T06:50:21Z</time>
      </trkpt>
      <trkpt lat="41.615884800" lon="2.498111380">
        <ele>432.25</ele>
        <time>2016-02-21T06:50:30Z</time>
      </trkpt>
      <trkpt lat="41.615954870" lon="2.498040640">
        <ele>433.21</ele>
        <time>2016-02-21T06:50:36Z</time>
      </trkpt>
      <trkpt lat="41.616087980" lon="2.497939380">
        <ele>434.65</ele>
        <time>2016-02-21T06:50:45Z</time>
      </trkpt>
      <trkpt lat="41.616170960" lon="2.497785830">
        <ele>435.61</ele>
        <time>2016-02-21T06:50:53Z</time>
      </trkpt>
      <trkpt lat="41.616252010" lon="2.497614250">
        <ele>436.10</ele>
        <time>2016-02-21T06:51:01Z</time>
      </trkpt>
      <trkpt lat="41.616323260" lon="2.497473260">
        <ele>437.06</ele>
        <time>2016-02-21T06:51:09Z</time>
      </trkpt>
      <trkpt lat="41.616406910" lon="2.497530760">
        <ele>437.54</ele>
        <time>2016-02-21T06:51:16Z</time>
      </trkpt>
      <trkpt lat="41.616428030" lon="2.497646180">
        <ele>438.02</ele>
        <time>2016-02-21T06:51:22Z</time>
      </trkpt>
      <trkpt lat="41.616472290" lon="2.497835530">
        <ele>439.94</ele>
        <time>2016-02-21T06:51:32Z</time>
      </trkpt>
      <trkpt lat="41.616519650" lon="2.497903000">
        <ele>440.90</ele>
        <time>2016-02-21T06:51:37Z</time>
      </trkpt>
      <trkpt lat="41.616606400" lon="2.497889340">
        <ele>441.86</ele>
        <time>2016-02-21T06:51:44Z</time>
      </trkpt>
      <trkpt lat="41.616660880" lon="2.497892610">
        <ele>443.31</ele>
        <time>2016-02-21T06:51:48Z</time>
      </trkpt>
      <trkpt lat="41.616740430" lon="2.498022700">
        <ele>444.75</ele>
        <time>2016-02-21T06:51:57Z</time>
      </trkpt>
      <trkpt lat="41.616753840" lon="2.498128230">
        <ele>446.67</ele>
        <time>2016-02-21T06:52:03Z</time>
      </trkpt>
      <trkpt lat="41.616813680" lon="2.498246330">
        <ele>448.11</ele>
        <time>2016-02-21T06:52:11Z</time>
      </trkpt>
      <trkpt lat="41.616822570" lon="2.498255970">
        <ele>448.11</ele>
        <time>2016-02-21T06:52:12Z</time>
      </trkpt>
      <trkpt lat="41.616879980" lon="2.498296700">
        <ele>449.07</ele>
        <time>2016-02-21T06:52:17Z</time>
      </trkpt>
      <trkpt lat="41.616934380" lon="2.498370210">
        <ele>450.52</ele>
        <time>2016-02-21T06:52:23Z</time>
      </trkpt>
      <trkpt lat="41.616951570" lon="2.498492090">
        <ele>451.96</ele>
        <time>2016-02-21T06:52:30Z</time>
      </trkpt>
      <trkpt lat="41.617009820" lon="2.498675650">
        <ele>453.40</ele>
        <time>2016-02-21T06:52:40Z</time>
      </trkpt>
      <trkpt lat="41.617077040" lon="2.498781260">
        <ele>453.88</ele>
        <time>2016-02-21T06:52:47Z</time>
      </trkpt>
      <trkpt lat="41.617108470" lon="2.498847560">
        <ele>454.36</ele>
        <time>2016-02-21T06:52:51Z</time>
      </trkpt>
      <trkpt lat="41.617136890" lon="2.498943450">
        <ele>454.84</ele>
        <time>2016-02-21T06:52:56Z</time>
      </trkpt>
      <trkpt lat="41.617168820" lon="2.499025170">
        <ele>455.32</ele>
        <time>2016-02-21T06:53:01Z</time>
      </trkpt>
      <trkpt lat="41.617257170" lon="2.499082670">
        <ele>456.28</ele>
        <time>2016-02-21T06:53:09Z</time>
      </trkpt>
      <trkpt lat="41.617295560" lon="2.499082510">
        <ele>457.24</ele>
        <time>2016-02-21T06:53:12Z</time>
      </trkpt>
      <trkpt lat="41.617382060" lon="2.499049570">
        <ele>458.21</ele>
        <time>2016-02-21T06:53:20Z</time>
      </trkpt>
      <trkpt lat="41.617441990" lon="2.499022660">
        <ele>459.65</ele>
        <time>2016-02-21T06:53:26Z</time>
      </trkpt>
      <trkpt lat="41.617543580" lon="2.498984940">
        <ele>461.57</ele>
        <time>2016-02-21T06:53:35Z</time>
      </trkpt>
      <trkpt lat="41.617626560" lon="2.498943200">
        <ele>463.01</ele>
        <time>2016-02-21T06:53:43Z</time>
      </trkpt>
      <trkpt lat="41.617705010" lon="2.498869100">
        <ele>464.45</ele>
        <time>2016-02-21T06:53:51Z</time>
      </trkpt>
      <trkpt lat="41.617796210" lon="2.498777150">
        <ele>465.42</ele>
        <time>2016-02-21T06:53:58Z</time>
      </trkpt>
      <trkpt lat="41.617873910" lon="2.498682190">
        <ele>465.42</ele>
        <time>2016-02-21T06:54:05Z</time>
      </trkpt>
      <trkpt lat="41.617928730" lon="2.498604570">
        <ele>465.90</ele>
        <time>2016-02-21T06:54:10Z</time>
      </trkpt>
      <trkpt lat="41.618000560" lon="2.498492170">
        <ele>465.90</ele>
        <time>2016-02-21T06:54:14Z</time>
      </trkpt>
      <trkpt lat="41.618091840" lon="2.498440450">
        <ele>465.90</ele>
        <time>2016-02-21T06:54:18Z</time>
      </trkpt>
      <trkpt lat="41.618197700" lon="2.498426870">
        <ele>465.90</ele>
        <time>2016-02-21T06:54:25Z</time>
      </trkpt>
      <trkpt lat="41.618228880" lon="2.498421430">
        <ele>464.45</ele>
        <time>2016-02-21T06:54:27Z</time>
      </trkpt>
      <trkpt lat="41.618340360" lon="2.498328050">
        <ele>463.01</ele>
        <time>2016-02-21T06:54:34Z</time>
      </trkpt>
      <trkpt lat="41.618420660" lon="2.498268120">
        <ele>461.57</ele>
        <time>2016-02-21T06:54:38Z</time>
      </trkpt>
      <trkpt lat="41.618497100" lon="2.498198720">
        <ele>460.61</ele>
        <time>2016-02-21T06:54:44Z</time>
      </trkpt>
      <trkpt lat="41.618507830" lon="2.498177850">
        <ele>459.65</ele>
        <time>2016-02-21T06:54:45Z</time>
      </trkpt>
      <trkpt lat="41.618531390" lon="2.498143650">
        <ele>459.17</ele>
        <time>2016-02-21T06:54:47Z</time>
      </trkpt>
      <trkpt lat="41.618541950" lon="2.498136020">
        <ele>458.69</ele>
        <time>2016-02-21T06:54:48Z</time>
      </trkpt>
      <trkpt lat="41.618631800" lon="2.498059830">
        <ele>457.24</ele>
        <time>2016-02-21T06:54:54Z</time>
      </trkpt>
      <trkpt lat="41.618665920" lon="2.498004170">
        <ele>456.76</ele>
        <time>2016-02-21T06:54:57Z</time>
      </trkpt>
      <trkpt lat="41.618747560" lon="2.497936530">
        <ele>454.84</ele>
        <time>2016-02-21T06:55:02Z</time>
      </trkpt>
      <trkpt lat="41.618851070" lon="2.497802840">
        <ele>453.88</ele>
        <time>2016-02-21T06:55:09Z</time>
      </trkpt>
      <trkpt lat="41.618965570" lon="2.497646770">
        <ele>453.88</ele>
        <time>2016-02-21T06:55:14Z</time>
      </trkpt>
      <trkpt lat="41.619109820" lon="2.497588680">
        <ele>453.40</ele>
        <time>2016-02-21T06:55:20Z</time>
      </trkpt>
      <trkpt lat="41.619150140" lon="2.497616430">
        <ele>453.40</ele>
        <time>2016-02-21T06:55:23Z</time>
      </trkpt>
      <trkpt lat="41.619233200" lon="2.497671660">
        <ele>454.84</ele>
        <time>2016-02-21T06:55:29Z</time>
      </trkpt>
      <trkpt lat="41.619308810" lon="2.497773920">
        <ele>454.84</ele>
        <time>2016-02-21T06:55:35Z</time>
      </trkpt>
      <trkpt lat="41.619439990" lon="2.497995710">
        <ele>452.44</ele>
        <time>2016-02-21T06:55:41Z</time>
      </trkpt>
      <trkpt lat="41.619493800" lon="2.498085060">
        <ele>451.00</ele>
        <time>2016-02-21T06:55:44Z</time>
      </trkpt>
      <trkpt lat="41.619512490" lon="2.498346320">
        <ele>448.59</ele>
        <time>2016-02-21T06:55:50Z</time>
      </trkpt>
      <trkpt lat="41.619665120" lon="2.498468360">
        <ele>447.15</ele>
        <time>2016-02-21T06:55:55Z</time>
      </trkpt>
      <trkpt lat="41.619679880" lon="2.498506000">
        <ele>447.15</ele>
        <time>2016-02-21T06:55:56Z</time>
      </trkpt>
      <trkpt lat="41.619707120" lon="2.498681100">
        <ele>447.63</ele>
        <time>2016-02-21T06:56:02Z</time>
      </trkpt>
      <trkpt lat="41.619734270" lon="2.498798860">
        <ele>447.63</ele>
        <time>2016-02-21T06:56:09Z</time>
      </trkpt>
      <trkpt lat="41.619741310" lon="2.498815380">
        <ele>447.63</ele>
        <time>2016-02-21T06:56:15Z</time>
      </trkpt>
      <trkpt lat="41.619746600" lon="2.498840600">
        <ele>447.63</ele>
        <time>2016-02-21T06:56:32Z</time>
      </trkpt>
      <trkpt lat="41.619793030" lon="2.498935320">
        <ele>447.63</ele>
        <time>2016-02-21T06:56:36Z</time>
      </trkpt>
      <trkpt lat="41.619884810" lon="2.499024760">
        <ele>446.19</ele>
        <time>2016-02-21T06:56:39Z</time>
      </trkpt>
      <trkpt lat="41.619924960" lon="2.499103880">
        <ele>444.75</ele>
        <time>2016-02-21T06:56:41Z</time>
      </trkpt>
      <trkpt lat="41.619915160" lon="2.499336810">
        <ele>442.82</ele>
        <time>2016-02-21T06:56:45Z</time>
      </trkpt>
      <trkpt lat="41.619928730" lon="2.499514260">
        <ele>440.90</ele>
        <time>2016-02-21T06:56:48Z</time>
      </trkpt>
      <trkpt lat="41.620005600" lon="2.499585840">
        <ele>439.46</ele>
        <time>2016-02-21T06:56:50Z</time>
      </trkpt>
      <trkpt lat="41.620152700" lon="2.499689360">
        <ele>436.58</ele>
        <time>2016-02-21T06:56:54Z</time>
      </trkpt>
      <trkpt lat="41.620220510" lon="2.499787840">
        <ele>435.13</ele>
        <time>2016-02-21T06:56:56Z</time>
      </trkpt>
      <trkpt lat="41.620275070" lon="2.499899490">
        <ele>434.17</ele>
        <time>2016-02-21T06:56:58Z</time>
      </trkpt>
      <trkpt lat="41.620366100" lon="2.500231330">
        <ele>431.29</ele>
        <time>2016-02-21T06:57:02Z</time>
      </trkpt>
      <trkpt lat="41.620501550" lon="2.500402320">
        <ele>429.85</ele>
        <time>2016-02-21T06:57:05Z</time>
      </trkpt>
      <trkpt lat="41.620648570" lon="2.500376500">
        <ele>428.89</ele>
        <time>2016-02-21T06:57:08Z</time>
      </trkpt>
      <trkpt lat="41.620683780" lon="2.500346080">
        <ele>428.89</ele>
        <time>2016-02-21T06:57:09Z</time>
      </trkpt>
      <trkpt lat="41.620883100" lon="2.500136280">
        <ele>427.92</ele>
        <time>2016-02-21T06:57:14Z</time>
      </trkpt>
      <trkpt lat="41.621114350" lon="2.500049530">
        <ele>425.52</ele>
        <time>2016-02-21T06:57:19Z</time>
      </trkpt>
      <trkpt lat="41.621179400" lon="2.500150700">
        <ele>424.56</ele>
        <time>2016-02-21T06:57:22Z</time>
      </trkpt>
      <trkpt lat="41.621184590" lon="2.500203670">
        <ele>424.56</ele>
        <time>2016-02-21T06:57:23Z</time>
      </trkpt>
      <trkpt lat="41.621264390" lon="2.500580350">
        <ele>420.23</ele>
        <time>2016-02-21T06:57:29Z</time>
      </trkpt>
      <trkpt lat="41.621293480" lon="2.500738850">
        <ele>418.79</ele>
        <time>2016-02-21T06:57:31Z</time>
      </trkpt>
      <trkpt lat="41.621358850" lon="2.500947560">
        <ele>415.91</ele>
        <time>2016-02-21T06:57:34Z</time>
      </trkpt>
      <trkpt lat="41.621454490" lon="2.501187870">
        <ele>412.06</ele>
        <time>2016-02-21T06:57:39Z</time>
      </trkpt>
      <trkpt lat="41.621458520" lon="2.501219470">
        <ele>412.06</ele>
        <time>2016-02-21T06:57:40Z</time>
      </trkpt>
      <trkpt lat="41.621374780" lon="2.501215870">
        <ele>410.14</ele>
        <time>2016-02-21T06:57:45Z</time>
      </trkpt>
      <trkpt lat="41.621303620" lon="2.501139260">
        <ele>408.70</ele>
        <time>2016-02-21T06:57:50Z</time>
      </trkpt>
      <trkpt lat="41.621275710" lon="2.501214190">
        <ele>407.74</ele>
        <time>2016-02-21T06:57:55Z</time>
      </trkpt>
      <trkpt lat="41.621290040" lon="2.501239250">
        <ele>407.26</ele>
        <time>2016-02-21T06:57:56Z</time>
      </trkpt>
      <trkpt lat="41.621455410" lon="2.501490040">
        <ele>406.77</ele>
        <time>2016-02-21T06:58:04Z</time>
      </trkpt>
      <trkpt lat="41.621682230" lon="2.501639240">
        <ele>405.81</ele>
        <time>2016-02-21T06:58:11Z</time>
      </trkpt>
      <trkpt lat="41.621754060" lon="2.501707800">
        <ele>405.81</ele>
        <time>2016-02-21T06:58:14Z</time>
      </trkpt>
      <trkpt lat="41.621758590" lon="2.501835790">
        <ele>405.81</ele>
        <time>2016-02-21T06:58:19Z</time>
      </trkpt>
      <trkpt lat="41.621740820" lon="2.501905200">
        <ele>407.26</ele>
        <time>2016-02-21T06:58:22Z</time>
      </trkpt>
      <trkpt lat="41.621714250" lon="2.502069900">
        <ele>408.22</ele>
        <time>2016-02-21T06:58:30Z</time>
      </trkpt>
      <trkpt lat="41.621712070" lon="2.502110130">
        <ele>408.70</ele>
        <time>2016-02-21T06:58:32Z</time>
      </trkpt>
      <trkpt lat="41.621701930" lon="2.502299230">
        <ele>410.62</ele>
        <time>2016-02-21T06:58:41Z</time>
      </trkpt>
      <trkpt lat="41.621703430" lon="2.502429650">
        <ele>412.06</ele>
        <time>2016-02-21T06:58:48Z</time>
      </trkpt>
      <trkpt lat="41.621728580" lon="2.502583460">
        <ele>413.50</ele>
        <time>2016-02-21T06:58:55Z</time>
      </trkpt>
      <trkpt lat="41.621765040" lon="2.502720340">
        <ele>414.47</ele>
        <time>2016-02-21T06:59:01Z</time>
      </trkpt>
      <trkpt lat="41.621878030" lon="2.502891660">
        <ele>416.87</ele>
        <time>2016-02-21T06:59:12Z</time>
      </trkpt>
      <trkpt lat="41.621989090" lon="2.502968520">
        <ele>417.83</ele>
        <time>2016-02-21T06:59:20Z</time>
      </trkpt>
      <trkpt lat="41.622075090" lon="2.502997360">
        <ele>418.79</ele>
        <time>2016-02-21T06:59:27Z</time>
      </trkpt>
      <trkpt lat="41.622197720" lon="2.503040270">
        <ele>421.68</ele>
        <time>2016-02-21T06:59:37Z</time>
      </trkpt>
      <trkpt lat="41.622298970" lon="2.503109170">
        <ele>422.16</ele>
        <time>2016-02-21T06:59:44Z</time>
      </trkpt>
      <trkpt lat="41.622397460" lon="2.503113780">
        <ele>424.56</ele>
        <time>2016-02-21T06:59:52Z</time>
      </trkpt>
      <trkpt lat="41.622516980" lon="2.503063580">
        <ele>424.56</ele>
        <time>2016-02-21T07:00:01Z</time>
      </trkpt>
      <trkpt lat="41.622648490" lon="2.503109680">
        <ele>425.52</ele>
        <time>2016-02-21T07:00:09Z</time>
      </trkpt>
      <trkpt lat="41.622741370" lon="2.503240850">
        <ele>426.48</ele>
        <time>2016-02-21T07:00:17Z</time>
      </trkpt>
      <trkpt lat="41.622773890" lon="2.503460790">
        <ele>426.96</ele>
        <time>2016-02-21T07:00:27Z</time>
      </trkpt>
      <trkpt lat="41.622750920" lon="2.503679730">
        <ele>427.44</ele>
        <time>2016-02-21T07:00:35Z</time>
      </trkpt>
      <trkpt lat="41.622760310" lon="2.504005200">
        <ele>427.44</ele>
        <time>2016-02-21T07:00:42Z</time>
      </trkpt>
      <trkpt lat="41.622816550" lon="2.504150540">
        <ele>428.40</ele>
        <time>2016-02-21T07:00:49Z</time>
      </trkpt>
      <trkpt lat="41.622933230" lon="2.504256820">
        <ele>429.85</ele>
        <time>2016-02-21T07:00:57Z</time>
      </trkpt>
      <trkpt lat="41.623045380" lon="2.504284650">
        <ele>432.73</ele>
        <time>2016-02-21T07:01:05Z</time>
      </trkpt>
      <trkpt lat="41.623175460" lon="2.504299740">
        <ele>433.69</ele>
        <time>2016-02-21T07:01:13Z</time>
      </trkpt>
      <trkpt lat="41.623290630" lon="2.504332930">
        <ele>435.13</ele>
        <time>2016-02-21T07:01:22Z</time>
      </trkpt>
      <trkpt lat="41.623418040" lon="2.504332340">
        <ele>437.06</ele>
        <time>2016-02-21T07:01:31Z</time>
      </trkpt>
      <trkpt lat="41.623437650" lon="2.504320610">
        <ele>437.54</ele>
        <time>2016-02-21T07:01:33Z</time>
      </trkpt>
      <trkpt lat="41.623512250" lon="2.504203510">
        <ele>438.98</ele>
        <time>2016-02-21T07:01:41Z</time>
      </trkpt>
      <trkpt lat="41.623593390" lon="2.504104520">
        <ele>440.42</ele>
        <time>2016-02-21T07:01:48Z</time>
      </trkpt>
      <trkpt lat="41.623685000" lon="2.504117260">
        <ele>441.38</ele>
        <time>2016-02-21T07:01:54Z</time>
      </trkpt>
      <trkpt lat="41.623800750" lon="2.504219190">
        <ele>441.86</ele>
        <time>2016-02-21T07:02:03Z</time>
      </trkpt>
      <trkpt lat="41.623924550" lon="2.504293450">
        <ele>442.82</ele>
        <time>2016-02-21T07:02:12Z</time>
      </trkpt>
      <trkpt lat="41.624027320" lon="2.504305520">
        <ele>443.31</ele>
        <time>2016-02-21T07:02:19Z</time>
      </trkpt>
      <trkpt lat="41.624178860" lon="2.504291860">
        <ele>443.79</ele>
        <time>2016-02-21T07:02:28Z</time>
      </trkpt>
      <trkpt lat="41.624244990" lon="2.504309880">
        <ele>442.82</ele>
        <time>2016-02-21T07:02:31Z</time>
      </trkpt>
      <trkpt lat="41.624306350" lon="2.504427390">
        <ele>442.34</ele>
        <time>2016-02-21T07:02:38Z</time>
      </trkpt>
      <trkpt lat="41.624302660" lon="2.504480790">
        <ele>442.34</ele>
        <time>2016-02-21T07:02:40Z</time>
      </trkpt>
      <trkpt lat="41.624258490" lon="2.504712970">
        <ele>441.38</ele>
        <time>2016-02-21T07:02:47Z</time>
      </trkpt>
      <trkpt lat="41.624228310" lon="2.504828220">
        <ele>440.90</ele>
        <time>2016-02-21T07:02:50Z</time>
      </trkpt>
      <trkpt lat="41.624118510" lon="2.504990570">
        <ele>440.42</ele>
        <time>2016-02-21T07:02:57Z</time>
      </trkpt>
      <trkpt lat="41.623936210" lon="2.505162820">
        <ele>438.50</ele>
        <time>2016-02-21T07:03:06Z</time>
      </trkpt>
      <trkpt lat="41.623798410" lon="2.505379830">
        <ele>436.58</ele>
        <time>2016-02-21T07:03:12Z</time>
      </trkpt>
      <trkpt lat="41.623663460" lon="2.505611420">
        <ele>434.17</ele>
        <time>2016-02-21T07:03:18Z</time>
      </trkpt>
      <trkpt lat="41.623638900" lon="2.505651400">
        <ele>434.17</ele>
        <time>2016-02-21T07:03:19Z</time>
      </trkpt>
      <trkpt lat="41.623616600" lon="2.505896240">
        <ele>432.73</ele>
        <time>2016-02-21T07:03:24Z</time>
      </trkpt>
      <trkpt lat="41.623751970" lon="2.506049880">
        <ele>430.81</ele>
        <time>2016-02-21T07:03:29Z</time>
      </trkpt>
      <trkpt lat="41.623868980" lon="2.506139980">
        <ele>429.37</ele>
        <time>2016-02-21T07:03:32Z</time>
      </trkpt>
      <trkpt lat="41.623982980" lon="2.506235290">
        <ele>428.40</ele>
        <time>2016-02-21T07:03:35Z</time>
      </trkpt>
      <trkpt lat="41.624240640" lon="2.506309630">
        <ele>426.48</ele>
        <time>2016-02-21T07:03:40Z</time>
      </trkpt>
      <trkpt lat="41.624483290" lon="2.506278200">
        <ele>423.12</ele>
        <time>2016-02-21T07:03:45Z</time>
      </trkpt>
      <trkpt lat="41.624634250" lon="2.506261350">
        <ele>420.71</ele>
        <time>2016-02-21T07:03:48Z</time>
      </trkpt>
      <trkpt lat="41.624736590" lon="2.506212570">
        <ele>418.79</ele>
        <time>2016-02-21T07:03:50Z</time>
      </trkpt>
      <trkpt lat="41.624959300" lon="2.506165470">
        <ele>414.95</ele>
        <time>2016-02-21T07:03:56Z</time>
      </trkpt>
      <trkpt lat="41.625064330" lon="2.506355570">
        <ele>413.02</ele>
        <time>2016-02-21T07:04:00Z</time>
      </trkpt>
      <trkpt lat="41.625089140" lon="2.506399320">
        <ele>413.02</ele>
        <time>2016-02-21T07:04:01Z</time>
      </trkpt>
      <trkpt lat="41.625152250" lon="2.506494040">
        <ele>411.58</ele>
        <time>2016-02-21T07:04:04Z</time>
      </trkpt>
      <trkpt lat="41.625168260" lon="2.506511050">
        <ele>411.58</ele>
        <time>2016-02-21T07:04:05Z</time>
      </trkpt>
      <trkpt lat="41.625195750" lon="2.506509710">
        <ele>411.10</ele>
        <time>2016-02-21T07:04:07Z</time>
      </trkpt>
      <trkpt lat="41.625225760" lon="2.506446260">
        <ele>411.10</ele>
        <time>2016-02-21T07:04:11Z</time>
      </trkpt>
      <trkpt lat="41.625264570" lon="2.506320620">
        <ele>413.98</ele>
        <time>2016-02-21T07:04:19Z</time>
      </trkpt>
      <trkpt lat="41.625269100" lon="2.506245350">
        <ele>414.47</ele>
        <time>2016-02-21T07:04:23Z</time>
      </trkpt>
      <trkpt lat="41.625242020" lon="2.506078630">
        <ele>414.95</ele>
        <time>2016-02-21T07:04:32Z</time>
      </trkpt>
      <trkpt lat="41.625216630" lon="2.506014510">
        <ele>414.95</ele>
        <time>2016-02-21T07:04:36Z</time>
      </trkpt>
      <trkpt lat="41.625205730" lon="2.505942840">
        <ele>415.43</ele>
        <time>2016-02-21T07:04:40Z</time>
      </trkpt>
      <trkpt lat="41.625230620" lon="2.505733710">
        <ele>415.91</ele>
        <time>2016-02-21T07:04:50Z</time>
      </trkpt>
      <trkpt lat="41.625223580" lon="2.505539000">
        <ele>416.39</ele>
        <time>2016-02-21T07:04:58Z</time>
      </trkpt>
      <trkpt lat="41.625155690" lon="2.505338840">
        <ele>416.39</ele>
        <time>2016-02-21T07:05:06Z</time>
      </trkpt>
      <trkpt lat="41.625047230" lon="2.505240440">
        <ele>418.31</ele>
        <time>2016-02-21T07:05:14Z</time>
      </trkpt>
      <trkpt lat="41.624962900" lon="2.505143710">
        <ele>419.27</ele>
        <time>2016-02-21T07:05:21Z</time>
      </trkpt>
      <trkpt lat="41.624968270" lon="2.505092160">
        <ele>419.27</ele>
        <time>2016-02-21T07:05:23Z</time>
      </trkpt>
      <trkpt lat="41.625068770" lon="2.504998710">
        <ele>419.27</ele>
        <time>2016-02-21T07:05:30Z</time>
      </trkpt>
      <trkpt lat="41.625085620" lon="2.504987310">
        <ele>419.27</ele>
        <time>2016-02-21T07:05:31Z</time>
      </trkpt>
      <trkpt lat="41.625203050" lon="2.504858810">
        <ele>420.71</ele>
        <time>2016-02-21T07:05:41Z</time>
      </trkpt>
      <trkpt lat="41.625287960" lon="2.504705670">
        <ele>421.68</ele>
        <time>2016-02-21T07:05:50Z</time>
      </trkpt>
      <trkpt lat="41.625373950" lon="2.504596290">
        <ele>422.64</ele>
        <time>2016-02-21T07:05:58Z</time>
      </trkpt>
      <trkpt lat="41.625445950" lon="2.504402580">
        <ele>423.12</ele>
        <time>2016-02-21T07:06:05Z</time>
      </trkpt>
      <trkpt lat="41.625446710" lon="2.504365870">
        <ele>423.12</ele>
        <time>2016-02-21T07:06:06Z</time>
      </trkpt>
      <trkpt lat="41.625466990" lon="2.504039480">
        <ele>422.16</ele>
        <time>2016-02-21T07:06:14Z</time>
      </trkpt>
      <trkpt lat="41.625396080" lon="2.503847790">
        <ele>422.16</ele>
        <time>2016-02-21T07:06:22Z</time>
      </trkpt>
      <trkpt lat="41.625356270" lon="2.503768910">
        <ele>423.12</ele>
        <time>2016-02-21T07:06:26Z</time>
      </trkpt>
      <trkpt lat="41.625357610" lon="2.503637820">
        <ele>423.12</ele>
        <time>2016-02-21T07:06:32Z</time>
      </trkpt>
      <trkpt lat="41.625388710" lon="2.503613430">
        <ele>423.60</ele>
        <time>2016-02-21T07:06:35Z</time>
      </trkpt>
      <trkpt lat="41.625444530" lon="2.503601110">
        <ele>424.56</ele>
        <time>2016-02-21T07:06:39Z</time>
      </trkpt>
      <trkpt lat="41.625586100" lon="2.503559950">
        <ele>426.00</ele>
        <time>2016-02-21T07:06:47Z</time>
      </trkpt>
      <trkpt lat="41.625709980" lon="2.503500100">
        <ele>426.96</ele>
        <time>2016-02-21T07:06:54Z</time>
      </trkpt>
      <trkpt lat="41.625795310" lon="2.503401370">
        <ele>428.40</ele>
        <time>2016-02-21T07:07:01Z</time>
      </trkpt>
      <trkpt lat="41.625919620" lon="2.503123840">
        <ele>428.40</ele>
        <time>2016-02-21T07:07:07Z</time>
      </trkpt>
      <trkpt lat="41.625965800" lon="2.503026440">
        <ele>426.96</ele>
        <time>2016-02-21T07:07:09Z</time>
      </trkpt>
      <trkpt lat="41.626025810" lon="2.502887810">
        <ele>426.48</ele>
        <time>2016-02-21T07:07:12Z</time>
      </trkpt>
      <trkpt lat="41.626011980" lon="2.502563930">
        <ele>426.00</ele>
        <time>2016-02-21T07:07:19Z</time>
      </trkpt>
      <trkpt lat="41.626106620" lon="2.502461670">
        <ele>426.00</ele>
        <time>2016-02-21T07:07:24Z</time>
      </trkpt>
      <trkpt lat="41.626196800" lon="2.502436110">
        <ele>427.92</ele>
        <time>2016-02-21T07:07:29Z</time>
      </trkpt>
      <trkpt lat="41.626325470" lon="2.502414560">
        <ele>428.89</ele>
        <time>2016-02-21T07:07:36Z</time>
      </trkpt>
      <trkpt lat="41.626448930" lon="2.502439790">
        <ele>429.37</ele>
        <time>2016-02-21T07:07:43Z</time>
      </trkpt>
      <trkpt lat="41.626477100" lon="2.502447170">
        <ele>429.85</ele>
        <time>2016-02-21T07:07:45Z</time>
      </trkpt>
      <trkpt lat="41.626613890" lon="2.502461250">
        <ele>431.77</ele>
        <time>2016-02-21T07:07:53Z</time>
      </trkpt>
      <trkpt lat="41.626793600" lon="2.502434510">
        <ele>433.69</ele>
        <time>2016-02-21T07:08:02Z</time>
      </trkpt>
      <trkpt lat="41.626811620" lon="2.502436780">
        <ele>434.17</ele>
        <time>2016-02-21T07:08:03Z</time>
      </trkpt>
      <trkpt lat="41.626961400" lon="2.502512880">
        <ele>436.10</ele>
        <time>2016-02-21T07:08:12Z</time>
      </trkpt>
      <trkpt lat="41.627122750" lon="2.502524790">
        <ele>436.58</ele>
        <time>2016-02-21T07:08:18Z</time>
      </trkpt>
      <trkpt lat="41.627165250" lon="2.502530910">
        <ele>435.61</ele>
        <time>2016-02-21T07:08:19Z</time>
      </trkpt>
      <trkpt lat="41.627438000" lon="2.502641880">
        <ele>434.65</ele>
        <time>2016-02-21T07:08:26Z</time>
      </trkpt>
      <trkpt lat="41.627515700" lon="2.502532250">
        <ele>435.61</ele>
        <time>2016-02-21T07:08:31Z</time>
      </trkpt>
      <trkpt lat="41.627578730" lon="2.502315070">
        <ele>436.10</ele>
        <time>2016-02-21T07:08:37Z</time>
      </trkpt>
      <trkpt lat="41.627674200" lon="2.502020870">
        <ele>436.58</ele>
        <time>2016-02-21T07:08:45Z</time>
      </trkpt>
      <trkpt lat="41.627726250" lon="2.501662370">
        <ele>436.58</ele>
        <time>2016-02-21T07:08:53Z</time>
      </trkpt>
      <trkpt lat="41.627770420" lon="2.501404210">
        <ele>435.61</ele>
        <time>2016-02-21T07:08:59Z</time>
      </trkpt>
      <trkpt lat="41.627811750" lon="2.501273950">
        <ele>435.61</ele>
        <time>2016-02-21T07:09:02Z</time>
      </trkpt>
      <trkpt lat="41.627714600" lon="2.501081090">
        <ele>433.69</ele>
        <time>2016-02-21T07:09:07Z</time>
      </trkpt>
      <trkpt lat="41.627667240" lon="2.501070440">
        <ele>433.69</ele>
        <time>2016-02-21T07:09:08Z</time>
      </trkpt>
      <trkpt lat="41.627460710" lon="2.500945720">
        <ele>432.73</ele>
        <time>2016-02-21T07:09:13Z</time>
      </trkpt>
      <trkpt lat="41.627373460" lon="2.500785790">
        <ele>432.25</ele>
        <time>2016-02-21T07:09:17Z</time>
      </trkpt>
      <trkpt lat="41.627371860" lon="2.500690160">
        <ele>431.77</ele>
        <time>2016-02-21T07:09:19Z</time>
      </trkpt>
      <trkpt lat="41.627429950" lon="2.500349350">
        <ele>430.33</ele>
        <time>2016-02-21T07:09:25Z</time>
      </trkpt>
      <trkpt lat="41.627363400" lon="2.500198720">
        <ele>429.37</ele>
        <time>2016-02-21T07:09:28Z</time>
      </trkpt>
      <trkpt lat="41.627220650" lon="2.500079200">
        <ele>428.89</ele>
        <time>2016-02-21T07:09:32Z</time>
      </trkpt>
      <trkpt lat="41.626995010" lon="2.500020190">
        <ele>428.89</ele>
        <time>2016-02-21T07:09:38Z</time>
      </trkpt>
      <trkpt lat="41.626842300" lon="2.500011220">
        <ele>428.89</ele>
        <time>2016-02-21T07:09:42Z</time>
      </trkpt>
      <trkpt lat="41.626719080" lon="2.499940730">
        <ele>428.89</ele>
        <time>2016-02-21T07:09:46Z</time>
      </trkpt>
      <trkpt lat="41.626736180" lon="2.499669410">
        <ele>428.40</ele>
        <time>2016-02-21T07:09:51Z</time>
      </trkpt>
      <trkpt lat="41.626784040" lon="2.499422060">
        <ele>427.92</ele>
        <time>2016-02-21T07:09:55Z</time>
      </trkpt>
      <trkpt lat="41.626791670" lon="2.499256010">
        <ele>427.92</ele>
        <time>2016-02-21T07:09:58Z</time>
      </trkpt>
      <trkpt lat="41.626750430" lon="2.499087120">
        <ele>426.96</ele>
        <time>2016-02-21T07:10:01Z</time>
      </trkpt>
      <trkpt lat="41.626559320" lon="2.498781430">
        <ele>426.00</ele>
        <time>2016-02-21T07:10:08Z</time>
      </trkpt>
      <trkpt lat="41.626632830" lon="2.498640700">
        <ele>425.52</ele>
        <time>2016-02-21T07:10:12Z</time>
      </trkpt>
      <trkpt lat="41.626768950" lon="2.498444730">
        <ele>426.96</ele>
        <time>2016-02-21T07:10:20Z</time>
      </trkpt>
      <trkpt lat="41.626905830" lon="2.498391000">
        <ele>427.44</ele>
        <time>2016-02-21T07:10:26Z</time>
      </trkpt>
      <trkpt lat="41.627052090" lon="2.498417570">
        <ele>427.92</ele>
        <time>2016-02-21T07:10:32Z</time>
      </trkpt>
      <trkpt lat="41.627175640" lon="2.498410530">
        <ele>427.92</ele>
        <time>2016-02-21T07:10:36Z</time>
      </trkpt>
      <trkpt lat="41.627214870" lon="2.498267620">
        <ele>427.92</ele>
        <time>2016-02-21T07:10:41Z</time>
      </trkpt>
      <trkpt lat="41.627148070" lon="2.498214980">
        <ele>427.92</ele>
        <time>2016-02-21T07:10:44Z</time>
      </trkpt>
      <trkpt lat="41.626958800" lon="2.498158650">
        <ele>426.96</ele>
        <time>2016-02-21T07:10:50Z</time>
      </trkpt>
      <trkpt lat="41.626764760" lon="2.497989250">
        <ele>426.96</ele>
        <time>2016-02-21T07:10:57Z</time>
      </trkpt>
      <trkpt lat="41.626611630" lon="2.497795970">
        <ele>426.96</ele>
        <time>2016-02-21T07:11:04Z</time>
      </trkpt>
      <trkpt lat="41.626521690" lon="2.497551550">
        <ele>426.00</ele>
        <time>2016-02-21T07:11:10Z</time>
      </trkpt>
      <trkpt lat="41.626573990" lon="2.497392040">
        <ele>426.00</ele>
        <time>2016-02-21T07:11:15Z</time>
      </trkpt>
      <trkpt lat="41.626543650" lon="2.497208480">
        <ele>426.00</ele>
        <time>2016-02-21T07:11:20Z</time>
      </trkpt>
      <trkpt lat="41.626521940" lon="2.497157770">
        <ele>426.96</ele>
        <time>2016-02-21T07:11:22Z</time>
      </trkpt>
      <trkpt lat="41.626499390" lon="2.497008400">
        <ele>428.40</ele>
        <time>2016-02-21T07:11:28Z</time>
      </trkpt>
      <trkpt lat="41.626498050" lon="2.496990470">
        <ele>428.40</ele>
        <time>2016-02-21T07:11:29Z</time>
      </trkpt>
      <trkpt lat="41.626507270" lon="2.496949560">
        <ele>428.89</ele>
        <time>2016-02-21T07:11:31Z</time>
      </trkpt>
      <trkpt lat="41.626634760" lon="2.496686200">
        <ele>429.37</ele>
        <time>2016-02-21T07:11:40Z</time>
      </trkpt>
      <trkpt lat="41.626735760" lon="2.496409270">
        <ele>429.37</ele>
        <time>2016-02-21T07:11:48Z</time>
      </trkpt>
      <trkpt lat="41.626779260" lon="2.496114810">
        <ele>430.33</ele>
        <time>2016-02-21T07:11:57Z</time>
      </trkpt>
      <trkpt lat="41.626678350" lon="2.495977600">
        <ele>430.81</ele>
        <time>2016-02-21T07:12:04Z</time>
      </trkpt>
      <trkpt lat="41.626519930" lon="2.495908530">
        <ele>430.81</ele>
        <time>2016-02-21T07:12:11Z</time>
      </trkpt>
      <trkpt lat="41.626342570" lon="2.495908450">
        <ele>430.81</ele>
        <time>2016-02-21T07:12:17Z</time>
      </trkpt>
      <trkpt lat="41.626308790" lon="2.495907440">
        <ele>430.81</ele>
        <time>2016-02-21T07:12:18Z</time>
      </trkpt>
      <trkpt lat="41.626221360" lon="2.495753210">
        <ele>430.81</ele>
        <time>2016-02-21T07:12:23Z</time>
      </trkpt>
      <trkpt lat="41.626226230" lon="2.495719850">
        <ele>430.81</ele>
        <time>2016-02-21T07:12:24Z</time>
      </trkpt>
      <trkpt lat="41.626307610" lon="2.495459180">
        <ele>431.29</ele>
        <time>2016-02-21T07:12:33Z</time>
      </trkpt>
      <trkpt lat="41.626393360" lon="2.495318360">
        <ele>431.29</ele>
        <time>2016-02-21T07:12:40Z</time>
      </trkpt>
      <trkpt lat="41.626483300" lon="2.495154910">
        <ele>431.77</ele>
        <time>2016-02-21T07:12:46Z</time>
      </trkpt>
      <trkpt lat="41.626604420" lon="2.494921480">
        <ele>431.77</ele>
        <time>2016-02-21T07:12:53Z</time>
      </trkpt>
      <trkpt lat="41.626715390" lon="2.494731040">
        <ele>431.77</ele>
        <time>2016-02-21T07:12:59Z</time>
      </trkpt>
      <trkpt lat="41.626743390" lon="2.494497020">
        <ele>431.77</ele>
        <time>2016-02-21T07:13:05Z</time>
      </trkpt>
      <trkpt lat="41.626714970" lon="2.494342540">
        <ele>431.77</ele>
        <time>2016-02-21T07:13:10Z</time>
      </trkpt>
      <trkpt lat="41.626797960" lon="2.494141370">
        <ele>432.25</ele>
        <time>2016-02-21T07:13:18Z</time>
      </trkpt>
      <trkpt lat="41.626927710" lon="2.493937860">
        <ele>432.73</ele>
        <time>2016-02-21T07:13:27Z</time>
      </trkpt>
      <trkpt lat="41.626992250" lon="2.493731000">
        <ele>433.69</ele>
        <time>2016-02-21T07:13:34Z</time>
      </trkpt>
      <trkpt lat="41.627015880" lon="2.493541820">
        <ele>434.17</ele>
        <time>2016-02-21T07:13:40Z</time>
      </trkpt>
      <trkpt lat="41.626989310" lon="2.493449870">
        <ele>434.65</ele>
        <time>2016-02-21T07:13:44Z</time>
      </trkpt>
      <trkpt lat="41.626865510" lon="2.493310980">
        <ele>435.13</ele>
        <time>2016-02-21T07:13:52Z</time>
      </trkpt>
      <trkpt lat="41.626710110" lon="2.493277450">
        <ele>436.10</ele>
        <time>2016-02-21T07:14:00Z</time>
      </trkpt>
      <trkpt lat="41.626569970" lon="2.493311060">
        <ele>437.06</ele>
        <time>2016-02-21T07:14:07Z</time>
      </trkpt>
      <trkpt lat="41.626425460" lon="2.493384820">
        <ele>438.02</ele>
        <time>2016-02-21T07:14:15Z</time>
      </trkpt>
      <trkpt lat="41.626272240" lon="2.493460340">
        <ele>439.46</ele>
        <time>2016-02-21T07:14:23Z</time>
      </trkpt>
      <trkpt lat="41.626202500" lon="2.493501250">
        <ele>439.46</ele>
        <time>2016-02-21T07:14:27Z</time>
      </trkpt>
      <trkpt lat="41.626026320" lon="2.493460260">
        <ele>440.90</ele>
        <time>2016-02-21T07:14:35Z</time>
      </trkpt>
      <trkpt lat="41.625910560" lon="2.493400920">
        <ele>441.38</ele>
        <time>2016-02-21T07:14:41Z</time>
      </trkpt>
      <trkpt lat="41.625781480" lon="2.493324310">
        <ele>442.82</ele>
        <time>2016-02-21T07:14:48Z</time>
      </trkpt>
      <trkpt lat="41.625752560" lon="2.493245770">
        <ele>442.82</ele>
        <time>2016-02-21T07:14:51Z</time>
      </trkpt>
      <trkpt lat="41.625792630" lon="2.493091460">
        <ele>443.31</ele>
        <time>2016-02-21T07:14:57Z</time>
      </trkpt>
      <trkpt lat="41.625856160" lon="2.492886350">
        <ele>443.31</ele>
        <time>2016-02-21T07:15:05Z</time>
      </trkpt>
      <trkpt lat="41.625811820" lon="2.492736900">
        <ele>443.31</ele>
        <time>2016-02-21T07:15:10Z</time>
      </trkpt>
      <trkpt lat="41.625812410" lon="2.492659870">
        <ele>442.34</ele>
        <time>2016-02-21T07:15:12Z</time>
      </trkpt>
      <trkpt lat="41.625879380" lon="2.492515960">
        <ele>441.86</ele>
        <time>2016-02-21T07:15:17Z</time>
      </trkpt>
      <trkpt lat="41.625987090" lon="2.492482850">
        <ele>441.86</ele>
        <time>2016-02-21T07:15:23Z</time>
      </trkpt>
      <trkpt lat="41.626058500" lon="2.492426270">
        <ele>443.31</ele>
        <time>2016-02-21T07:15:28Z</time>
      </trkpt>
      <trkpt lat="41.626085160" lon="2.492389220">
        <ele>443.31</ele>
        <time>2016-02-21T07:15:30Z</time>
      </trkpt>
      <trkpt lat="41.626174430" lon="2.492202050">
        <ele>444.27</ele>
        <time>2016-02-21T07:15:38Z</time>
      </trkpt>
      <trkpt lat="41.626183900" lon="2.492146310">
        <ele>444.27</ele>
        <time>2016-02-21T07:15:40Z</time>
      </trkpt>
      <trkpt lat="41.626245000" lon="2.491937520">
        <ele>445.23</ele>
        <time>2016-02-21T07:15:48Z</time>
      </trkpt>
      <trkpt lat="41.626330160" lon="2.491789830">
        <ele>445.71</ele>
        <time>2016-02-21T07:15:55Z</time>
      </trkpt>
      <trkpt lat="41.626436950" lon="2.491720600">
        <ele>446.67</ele>
        <time>2016-02-21T07:16:02Z</time>
      </trkpt>
      <trkpt lat="41.626534600" lon="2.491643150">
        <ele>447.15</ele>
        <time>2016-02-21T07:16:08Z</time>
      </trkpt>
      <trkpt lat="41.626564100" lon="2.491589500">
        <ele>447.15</ele>
        <time>2016-02-21T07:16:10Z</time>
      </trkpt>
      <trkpt lat="41.626538030" lon="2.491397810">
        <ele>448.59</ele>
        <time>2016-02-21T07:16:18Z</time>
      </trkpt>
      <trkpt lat="41.626458320" lon="2.491240480">
        <ele>450.52</ele>
        <time>2016-02-21T07:16:26Z</time>
      </trkpt>
      <trkpt lat="41.626375760" lon="2.491104690">
        <ele>452.92</ele>
        <time>2016-02-21T07:16:34Z</time>
      </trkpt>
      <trkpt lat="41.626294960" lon="2.491043930">
        <ele>454.36</ele>
        <time>2016-02-21T07:16:41Z</time>
      </trkpt>
      <trkpt lat="41.626255730" lon="2.491017940">
        <ele>454.36</ele>
        <time>2016-02-21T07:16:44Z</time>
      </trkpt>
      <trkpt lat="41.626213480" lon="2.490990030">
        <ele>455.32</ele>
        <time>2016-02-21T07:16:47Z</time>
      </trkpt>
      <trkpt lat="41.626173840" lon="2.490862790">
        <ele>454.84</ele>
        <time>2016-02-21T07:16:54Z</time>
      </trkpt>
      <trkpt lat="41.626191190" lon="2.490837060">
        <ele>454.84</ele>
        <time>2016-02-21T07:16:56Z</time>
      </trkpt>
      <trkpt lat="41.626318260" lon="2.490718290">
        <ele>453.88</ele>
        <time>2016-02-21T07:17:03Z</time>
      </trkpt>
      <trkpt lat="41.626508530" lon="2.490691630">
        <ele>452.44</ele>
        <time>2016-02-21T07:17:09Z</time>
      </trkpt>
      <trkpt lat="41.626712040" lon="2.490663640">
        <ele>450.52</ele>
        <time>2016-02-21T07:17:15Z</time>
      </trkpt>
      <trkpt lat="41.626743300" lon="2.490628020">
        <ele>450.03</ele>
        <time>2016-02-21T07:17:16Z</time>
      </trkpt>
      <trkpt lat="41.626761240" lon="2.490440090">
        <ele>449.07</ele>
        <time>2016-02-21T07:17:20Z</time>
      </trkpt>
      <trkpt lat="41.626763170" lon="2.490231640">
        <ele>449.55</ele>
        <time>2016-02-21T07:17:26Z</time>
      </trkpt>
      <trkpt lat="41.626783870" lon="2.490184450">
        <ele>449.55</ele>
        <time>2016-02-21T07:17:28Z</time>
      </trkpt>
      <trkpt lat="41.626791670" lon="2.490089980">
        <ele>451.00</ele>
        <time>2016-02-21T07:17:32Z</time>
      </trkpt>
      <trkpt lat="41.626815890" lon="2.489909440">
        <ele>451.96</ele>
        <time>2016-02-21T07:17:39Z</time>
      </trkpt>
      <trkpt lat="41.626867690" lon="2.489789240">
        <ele>451.96</ele>
        <time>2016-02-21T07:17:43Z</time>
      </trkpt>
      <trkpt lat="41.627011020" lon="2.489844480">
        <ele>451.96</ele>
        <time>2016-02-21T07:17:48Z</time>
      </trkpt>
      <trkpt lat="41.627086710" lon="2.489982020">
        <ele>450.52</ele>
        <time>2016-02-21T07:17:52Z</time>
      </trkpt>
      <trkpt lat="41.627200540" lon="2.489942210">
        <ele>450.03</ele>
        <time>2016-02-21T07:17:56Z</time>
      </trkpt>
      <trkpt lat="41.627219480" lon="2.489838520">
        <ele>449.55</ele>
        <time>2016-02-21T07:17:58Z</time>
      </trkpt>
      <trkpt lat="41.627199280" lon="2.489586900">
        <ele>448.59</ele>
        <time>2016-02-21T07:18:03Z</time>
      </trkpt>
      <trkpt lat="41.627121830" lon="2.489352040">
        <ele>448.11</ele>
        <time>2016-02-21T07:18:07Z</time>
      </trkpt>
      <trkpt lat="41.627151670" lon="2.489112820">
        <ele>448.11</ele>
        <time>2016-02-21T07:18:11Z</time>
      </trkpt>
      <trkpt lat="41.627277230" lon="2.489067720">
        <ele>447.63</ele>
        <time>2016-02-21T07:18:15Z</time>
      </trkpt>
      <trkpt lat="41.627430030" lon="2.488936550">
        <ele>447.63</ele>
        <time>2016-02-21T07:18:21Z</time>
      </trkpt>
      <trkpt lat="41.627443950" lon="2.488900920">
        <ele>447.63</ele>
        <time>2016-02-21T07:18:22Z</time>
      </trkpt>
      <trkpt lat="41.627556770" lon="2.488620720">
        <ele>447.63</ele>
        <time>2016-02-21T07:18:31Z</time>
      </trkpt>
      <trkpt lat="41.627588450" lon="2.488544860">
        <ele>449.07</ele>
        <time>2016-02-21T07:18:34Z</time>
      </trkpt>
      <trkpt lat="41.627629780" lon="2.488391140">
        <ele>451.00</ele>
        <time>2016-02-21T07:18:41Z</time>
      </trkpt>
      <trkpt lat="41.627634640" lon="2.488352160">
        <ele>451.48</ele>
        <time>2016-02-21T07:18:43Z</time>
      </trkpt>
      <trkpt lat="41.627655340" lon="2.488272450">
        <ele>451.96</ele>
        <time>2016-02-21T07:18:47Z</time>
      </trkpt>
      <trkpt lat="41.627706970" lon="2.488053350">
        <ele>453.40</ele>
        <time>2016-02-21T07:18:58Z</time>
      </trkpt>
      <trkpt lat="41.627781150" lon="2.487931050">
        <ele>453.40</ele>
        <time>2016-02-21T07:19:05Z</time>
      </trkpt>
      <trkpt lat="41.627809730" lon="2.487867020">
        <ele>453.40</ele>
        <time>2016-02-21T07:19:08Z</time>
      </trkpt>
      <trkpt lat="41.627895650" lon="2.487776910">
        <ele>453.40</ele>
        <time>2016-02-21T07:19:15Z</time>
      </trkpt>
      <trkpt lat="41.627935210" lon="2.487823350">
        <ele>453.40</ele>
        <time>2016-02-21T07:19:18Z</time>
      </trkpt>
      <trkpt lat="41.628039150" lon="2.488020410">
        <ele>453.40</ele>
        <time>2016-02-21T07:19:28Z</time>
      </trkpt>
      <trkpt lat="41.628147530" lon="2.488167260">
        <ele>453.88</ele>
        <time>2016-02-21T07:19:37Z</time>
      </trkpt>
      <trkpt lat="41.628268560" lon="2.488193070">
        <ele>454.36</ele>
        <time>2016-02-21T07:19:44Z</time>
      </trkpt>
      <trkpt lat="41.628304020" lon="2.488193830">
        <ele>454.84</ele>
        <time>2016-02-21T07:19:46Z</time>
      </trkpt>
      <trkpt lat="41.628398560" lon="2.488342690">
        <ele>454.84</ele>
        <time>2016-02-21T07:19:53Z</time>
      </trkpt>
      <trkpt lat="41.628393950" lon="2.488402200">
        <ele>455.32</ele>
        <time>2016-02-21T07:19:56Z</time>
      </trkpt>
      <trkpt lat="41.628382810" lon="2.488575370">
        <ele>456.28</ele>
        <time>2016-02-21T07:20:04Z</time>
      </trkpt>
      <trkpt lat="41.628442570" lon="2.488730520">
        <ele>457.72</ele>
        <time>2016-02-21T07:20:12Z</time>
      </trkpt>
      <trkpt lat="41.628565280" lon="2.488818280">
        <ele>459.17</ele>
        <time>2016-02-21T07:20:20Z</time>
      </trkpt>
      <trkpt lat="41.628690590" lon="2.488943840">
        <ele>460.61</ele>
        <time>2016-02-21T07:20:29Z</time>
      </trkpt>
      <trkpt lat="41.628692680" lon="2.489085660">
        <ele>462.05</ele>
        <time>2016-02-21T07:20:36Z</time>
      </trkpt>
      <trkpt lat="41.628671810" lon="2.489120530">
        <ele>462.53</ele>
        <time>2016-02-21T07:20:38Z</time>
      </trkpt>
      <trkpt lat="41.628631660" lon="2.489315490">
        <ele>463.01</ele>
        <time>2016-02-21T07:20:48Z</time>
      </trkpt>
      <trkpt lat="41.628640630" lon="2.489434430">
        <ele>463.01</ele>
        <time>2016-02-21T07:20:54Z</time>
      </trkpt>
      <trkpt lat="41.628654380" lon="2.489488830">
        <ele>461.57</ele>
        <time>2016-02-21T07:20:58Z</time>
      </trkpt>
      <trkpt lat="41.628653120" lon="2.489524040">
        <ele>460.61</ele>
        <time>2016-02-21T07:21:04Z</time>
      </trkpt>
      <trkpt lat="41.628685810" lon="2.489550770">
        <ele>460.61</ele>
        <time>2016-02-21T07:21:11Z</time>
      </trkpt>
      <trkpt lat="41.628723950" lon="2.489606850">
        <ele>462.53</ele>
        <time>2016-02-21T07:21:21Z</time>
      </trkpt>
      <trkpt lat="41.628761750" lon="2.489680530">
        <ele>463.49</ele>
        <time>2016-02-21T07:21:31Z</time>
      </trkpt>
      <trkpt lat="41.628812040" lon="2.489744650">
        <ele>464.45</ele>
        <time>2016-02-21T07:21:41Z</time>
      </trkpt>
      <trkpt lat="41.628872140" lon="2.489763420">
        <ele>465.42</ele>
        <time>2016-02-21T07:21:52Z</time>
      </trkpt>
      <trkpt lat="41.628911280" lon="2.489795270">
        <ele>466.38</ele>
        <time>2016-02-21T07:22:01Z</time>
      </trkpt>
      <trkpt lat="41.628966350" lon="2.489839360">
        <ele>467.34</ele>
        <time>2016-02-21T07:22:11Z</time>
      </trkpt>
      <trkpt lat="41.629008430" lon="2.489882450">
        <ele>468.78</ele>
        <time>2016-02-21T07:22:20Z</time>
      </trkpt>
      <trkpt lat="41.629047660" lon="2.489939610">
        <ele>470.22</ele>
        <time>2016-02-21T07:22:31Z</time>
      </trkpt>
      <trkpt lat="41.629086890" lon="2.489994760">
        <ele>471.66</ele>
        <time>2016-02-21T07:22:39Z</time>
      </trkpt>
      <trkpt lat="41.629106830" lon="2.490041280">
        <ele>472.14</ele>
        <time>2016-02-21T07:22:45Z</time>
      </trkpt>
      <trkpt lat="41.629122510" lon="2.490054360">
        <ele>472.63</ele>
        <time>2016-02-21T07:22:53Z</time>
      </trkpt>
      <trkpt lat="41.629135250" lon="2.490106490">
        <ele>473.11</ele>
        <time>2016-02-21T07:23:01Z</time>
      </trkpt>
      <trkpt lat="41.629132820" lon="2.490172630">
        <ele>473.59</ele>
        <time>2016-02-21T07:23:09Z</time>
      </trkpt>
      <trkpt lat="41.629135080" lon="2.490225010">
        <ele>473.59</ele>
        <time>2016-02-21T07:23:18Z</time>
      </trkpt>
      <trkpt lat="41.629137930" lon="2.490357530">
        <ele>474.55</ele>
        <time>2016-02-21T07:23:26Z</time>
      </trkpt>
      <trkpt lat="41.629142620" lon="2.490484770">
        <ele>475.99</ele>
        <time>2016-02-21T07:23:34Z</time>
      </trkpt>
      <trkpt lat="41.629131980" lon="2.490639250">
        <ele>476.95</ele>
        <time>2016-02-21T07:23:42Z</time>
      </trkpt>
      <trkpt lat="41.629157540" lon="2.490716440">
        <ele>477.43</ele>
        <time>2016-02-21T07:23:47Z</time>
      </trkpt>
      <trkpt lat="41.629269440" lon="2.490736060">
        <ele>477.43</ele>
        <time>2016-02-21T07:23:55Z</time>
      </trkpt>
      <trkpt lat="41.629413360" lon="2.490752820">
        <ele>477.43</ele>
        <time>2016-02-21T07:24:03Z</time>
      </trkpt>
      <trkpt lat="41.629559710" lon="2.490864640">
        <ele>477.43</ele>
        <time>2016-02-21T07:24:09Z</time>
      </trkpt>
      <trkpt lat="41.629675460" lon="2.490985170">
        <ele>475.99</ele>
        <time>2016-02-21T07:24:13Z</time>
      </trkpt>
      <trkpt lat="41.629862630" lon="2.491250710">
        <ele>475.03</ele>
        <time>2016-02-21T07:24:20Z</time>
      </trkpt>
      <trkpt lat="41.630003700" lon="2.491290860">
        <ele>473.59</ele>
        <time>2016-02-21T07:24:25Z</time>
      </trkpt>
      <trkpt lat="41.630192790" lon="2.491188090">
        <ele>474.07</ele>
        <time>2016-02-21T07:24:32Z</time>
      </trkpt>
      <trkpt lat="41.630307540" lon="2.491014590">
        <ele>475.03</ele>
        <time>2016-02-21T07:24:39Z</time>
      </trkpt>
      <trkpt lat="41.630318860" lon="2.490988270">
        <ele>475.03</ele>
        <time>2016-02-21T07:24:40Z</time>
      </trkpt>
      <trkpt lat="41.630359340" lon="2.490837900">
        <ele>476.47</ele>
        <time>2016-02-21T07:24:46Z</time>
      </trkpt>
      <trkpt lat="41.630369320" lon="2.490764560">
        <ele>477.43</ele>
        <time>2016-02-21T07:24:49Z</time>
      </trkpt>
      <trkpt lat="41.630386580" lon="2.490592730">
        <ele>478.87</ele>
        <time>2016-02-21T07:24:56Z</time>
      </trkpt>
      <trkpt lat="41.630497560" lon="2.490444120">
        <ele>479.35</ele>
        <time>2016-02-21T07:25:03Z</time>
      </trkpt>
      <trkpt lat="41.630658160" lon="2.490379580">
        <ele>479.84</ele>
        <time>2016-02-21T07:25:09Z</time>
      </trkpt>
      <trkpt lat="41.630718670" lon="2.490211690">
        <ele>480.32</ele>
        <time>2016-02-21T07:25:14Z</time>
      </trkpt>
      <trkpt lat="41.630810960" lon="2.490038850">
        <ele>480.80</ele>
        <time>2016-02-21T07:25:21Z</time>
      </trkpt>
      <trkpt lat="41.630959570" lon="2.489981270">
        <ele>480.80</ele>
        <time>2016-02-21T07:25:27Z</time>
      </trkpt>
      <trkpt lat="41.631098710" lon="2.490073470">
        <ele>481.28</ele>
        <time>2016-02-21T07:25:34Z</time>
      </trkpt>
      <trkpt lat="41.631148250" lon="2.490128450">
        <ele>481.76</ele>
        <time>2016-02-21T07:25:39Z</time>
      </trkpt>
      <trkpt lat="41.631215300" lon="2.490157120">
        <ele>482.72</ele>
        <time>2016-02-21T07:25:43Z</time>
      </trkpt>
      <trkpt lat="41.631345050" lon="2.490184360">
        <ele>484.64</ele>
        <time>2016-02-21T07:25:51Z</time>
      </trkpt>
      <trkpt lat="41.631474890" lon="2.490118650">
        <ele>485.60</ele>
        <time>2016-02-21T07:25:59Z</time>
      </trkpt>
      <trkpt lat="41.631615790" lon="2.490105320">
        <ele>486.56</ele>
        <time>2016-02-21T07:26:07Z</time>
      </trkpt>
      <trkpt lat="41.631764480" lon="2.490084700">
        <ele>488.01</ele>
        <time>2016-02-21T07:26:16Z</time>
      </trkpt>
      <trkpt lat="41.631886610" lon="2.490045730">
        <ele>490.41</ele>
        <time>2016-02-21T07:26:25Z</time>
      </trkpt>
      <trkpt lat="41.631912260" lon="2.490039440">
        <ele>490.89</ele>
        <time>2016-02-21T07:26:27Z</time>
      </trkpt>
      <trkpt lat="41.631984510" lon="2.490008840">
        <ele>492.33</ele>
        <time>2016-02-21T07:26:33Z</time>
      </trkpt>
      <trkpt lat="41.632083420" lon="2.489912540">
        <ele>494.26</ele>
        <time>2016-02-21T07:26:42Z</time>
      </trkpt>
      <trkpt lat="41.632102360" lon="2.489875820">
        <ele>494.74</ele>
        <time>2016-02-21T07:26:45Z</time>
      </trkpt>
      <trkpt lat="41.632158600" lon="2.489802570">
        <ele>495.22</ele>
        <time>2016-02-21T07:26:50Z</time>
      </trkpt>
      <trkpt lat="41.632222890" lon="2.489770040">
        <ele>493.77</ele>
        <time>2016-02-21T07:26:53Z</time>
      </trkpt>
      <trkpt lat="41.632315850" lon="2.489880270">
        <ele>492.81</ele>
        <time>2016-02-21T07:27:00Z</time>
      </trkpt>
      <trkpt lat="41.632366300" lon="2.490116800">
        <ele>492.81</ele>
        <time>2016-02-21T07:27:10Z</time>
      </trkpt>
      <trkpt lat="41.632457250" lon="2.490243040">
        <ele>493.29</ele>
        <time>2016-02-21T07:27:16Z</time>
      </trkpt>
      <trkpt lat="41.632526990" lon="2.490300200">
        <ele>493.29</ele>
        <time>2016-02-21T07:27:22Z</time>
      </trkpt>
      <trkpt lat="41.632533520" lon="2.490311770">
        <ele>493.29</ele>
        <time>2016-02-21T07:27:30Z</time>
      </trkpt>
      <trkpt lat="41.632546770" lon="2.490298270">
        <ele>493.29</ele>
        <time>2016-02-21T07:27:43Z</time>
      </trkpt>
      <trkpt lat="41.632529080" lon="2.490285360">
        <ele>493.29</ele>
        <time>2016-02-21T07:27:54Z</time>
      </trkpt>
      <trkpt lat="41.632532010" lon="2.490290560">
        <ele>494.26</ele>
        <time>2016-02-21T07:28:06Z</time>
      </trkpt>
      <trkpt lat="41.632527240" lon="2.490303800">
        <ele>494.26</ele>
        <time>2016-02-21T07:28:14Z</time>
      </trkpt>
      <trkpt lat="41.632543500" lon="2.490297100">
        <ele>494.26</ele>
        <time>2016-02-21T07:28:22Z</time>
      </trkpt>
      <trkpt lat="41.632555570" lon="2.490294750">
        <ele>494.26</ele>
        <time>2016-02-21T07:28:24Z</time>
      </trkpt>
      <trkpt lat="41.632606530" lon="2.490161650">
        <ele>495.70</ele>
        <time>2016-02-21T07:28:33Z</time>
      </trkpt>
      <trkpt lat="41.632618180" lon="2.490041790">
        <ele>498.10</ele>
        <time>2016-02-21T07:28:41Z</time>
      </trkpt>
      <trkpt lat="41.632587170" lon="2.489917570">
        <ele>500.50</ele>
        <time>2016-02-21T07:28:49Z</time>
      </trkpt>
      <trkpt lat="41.632600160" lon="2.489865350">
        <ele>500.98</ele>
        <time>2016-02-21T07:28:53Z</time>
      </trkpt>
      <trkpt lat="41.632623040" lon="2.489751350">
        <ele>502.43</ele>
        <time>2016-02-21T07:29:01Z</time>
      </trkpt>
      <trkpt lat="41.632663530" lon="2.489650600">
        <ele>503.87</ele>
        <time>2016-02-21T07:29:09Z</time>
      </trkpt>
      <trkpt lat="41.632703590" lon="2.489558230">
        <ele>505.79</ele>
        <time>2016-02-21T07:29:17Z</time>
      </trkpt>
      <trkpt lat="41.632732430" lon="2.489531330">
        <ele>506.75</ele>
        <time>2016-02-21T07:29:21Z</time>
      </trkpt>
      <trkpt lat="41.632796300" lon="2.489521270">
        <ele>508.19</ele>
        <time>2016-02-21T07:29:28Z</time>
      </trkpt>
      <trkpt lat="41.632876090" lon="2.489564940">
        <ele>510.60</ele>
        <time>2016-02-21T07:29:37Z</time>
      </trkpt>
      <trkpt lat="41.632914730" lon="2.489581540">
        <ele>511.08</ele>
        <time>2016-02-21T07:29:41Z</time>
      </trkpt>
      <trkpt lat="41.633004500" lon="2.489599810">
        <ele>512.04</ele>
        <time>2016-02-21T07:29:50Z</time>
      </trkpt>
      <trkpt lat="41.633075330" lon="2.489625620">
        <ele>513.00</ele>
        <time>2016-02-21T07:29:58Z</time>
      </trkpt>
      <trkpt lat="41.633145400" lon="2.489658650">
        <ele>514.44</ele>
        <time>2016-02-21T07:30:05Z</time>
      </trkpt>
      <trkpt lat="41.633216730" lon="2.489672310">
        <ele>515.40</ele>
        <time>2016-02-21T07:30:12Z</time>
      </trkpt>
      <trkpt lat="41.633312200" lon="2.489688740">
        <ele>517.81</ele>
        <time>2016-02-21T07:30:21Z</time>
      </trkpt>
      <trkpt lat="41.633387970" lon="2.489695110">
        <ele>519.73</ele>
        <time>2016-02-21T07:30:30Z</time>
      </trkpt>
      <trkpt lat="41.633437260" lon="2.489701820">
        <ele>519.73</ele>
        <time>2016-02-21T07:30:34Z</time>
      </trkpt>
      <trkpt lat="41.633523760" lon="2.489690330">
        <ele>521.17</ele>
        <time>2016-02-21T07:30:42Z</time>
      </trkpt>
      <trkpt lat="41.633540860" lon="2.489676840">
        <ele>521.17</ele>
        <time>2016-02-21T07:30:44Z</time>
      </trkpt>
      <trkpt lat="41.633588390" lon="2.489586150">
        <ele>523.09</ele>
        <time>2016-02-21T07:30:52Z</time>
      </trkpt>
      <trkpt lat="41.633596180" lon="2.489545240">
        <ele>523.58</ele>
        <time>2016-02-21T07:30:55Z</time>
      </trkpt>
      <trkpt lat="41.633576480" lon="2.489438370">
        <ele>525.02</ele>
        <time>2016-02-21T07:31:03Z</time>
      </trkpt>
      <trkpt lat="41.633563910" lon="2.489320770">
        <ele>524.54</ele>
        <time>2016-02-21T07:31:09Z</time>
      </trkpt>
      <trkpt lat="41.633564410" lon="2.489264030">
        <ele>525.02</ele>
        <time>2016-02-21T07:31:12Z</time>
      </trkpt>
      <trkpt lat="41.633579920" lon="2.489125640">
        <ele>525.50</ele>
        <time>2016-02-21T07:31:20Z</time>
      </trkpt>
      <trkpt lat="41.633579250" lon="2.488958340">
        <ele>525.50</ele>
        <time>2016-02-21T07:31:27Z</time>
      </trkpt>
      <trkpt lat="41.633584870" lon="2.488932190">
        <ele>525.50</ele>
        <time>2016-02-21T07:31:28Z</time>
      </trkpt>
      <trkpt lat="41.633633560" lon="2.488879380">
        <ele>525.50</ele>
        <time>2016-02-21T07:31:33Z</time>
      </trkpt>
      <trkpt lat="41.633723920" lon="2.488842500">
        <ele>524.54</ele>
        <time>2016-02-21T07:31:36Z</time>
      </trkpt>
      <trkpt lat="41.633822490" lon="2.488626670">
        <ele>523.09</ele>
        <time>2016-02-21T07:31:41Z</time>
      </trkpt>
      <trkpt lat="41.633952080" lon="2.488312520">
        <ele>520.21</ele>
        <time>2016-02-21T07:31:47Z</time>
      </trkpt>
      <trkpt lat="41.634143850" lon="2.488165750">
        <ele>518.29</ele>
        <time>2016-02-21T07:31:52Z</time>
      </trkpt>
      <trkpt lat="41.634307470" lon="2.487933900">
        <ele>514.44</ele>
        <time>2016-02-21T07:31:57Z</time>
      </trkpt>
      <trkpt lat="41.634345610" lon="2.487835000">
        <ele>513.48</ele>
        <time>2016-02-21T07:31:59Z</time>
      </trkpt>
      <trkpt lat="41.634425570" lon="2.487626620">
        <ele>508.67</ele>
        <time>2016-02-21T07:32:03Z</time>
      </trkpt>
      <trkpt lat="41.634510980" lon="2.487441890">
        <ele>506.75</ele>
        <time>2016-02-21T07:32:09Z</time>
      </trkpt>
      <trkpt lat="41.634513830" lon="2.487425290">
        <ele>506.75</ele>
        <time>2016-02-21T07:32:10Z</time>
      </trkpt>
      <trkpt lat="41.634496820" lon="2.487269720">
        <ele>506.75</ele>
        <time>2016-02-21T07:32:16Z</time>
      </trkpt>
      <trkpt lat="41.634494130" lon="2.487239970">
        <ele>506.75</ele>
        <time>2016-02-21T07:32:17Z</time>
      </trkpt>
      <trkpt lat="41.634528580" lon="2.487102920">
        <ele>506.75</ele>
        <time>2016-02-21T07:32:22Z</time>
      </trkpt>
      <trkpt lat="41.634661940" lon="2.487098400">
        <ele>506.75</ele>
        <time>2016-02-21T07:32:28Z</time>
      </trkpt>
      <trkpt lat="41.634683730" lon="2.487106860">
        <ele>506.75</ele>
        <time>2016-02-21T07:32:29Z</time>
      </trkpt>
      <trkpt lat="41.634812650" lon="2.487135530">
        <ele>506.27</ele>
        <time>2016-02-21T07:32:33Z</time>
      </trkpt>
      <trkpt lat="41.635071230" lon="2.487108120">
        <ele>505.31</ele>
        <time>2016-02-21T07:32:39Z</time>
      </trkpt>
      <trkpt lat="41.635331150" lon="2.487072920">
        <ele>503.39</ele>
        <time>2016-02-21T07:32:46Z</time>
      </trkpt>
      <trkpt lat="41.635485040" lon="2.486927490">
        <ele>502.91</ele>
        <time>2016-02-21T07:32:53Z</time>
      </trkpt>
      <trkpt lat="41.635581520" lon="2.486864460">
        <ele>502.91</ele>
        <time>2016-02-21T07:32:59Z</time>
      </trkpt>
      <trkpt lat="41.635596940" lon="2.486863280">
        <ele>502.91</ele>
        <time>2016-02-21T07:33:00Z</time>
      </trkpt>
      <trkpt lat="41.635666760" lon="2.486911730">
        <ele>502.91</ele>
        <time>2016-02-21T07:33:06Z</time>
      </trkpt>
      <trkpt lat="41.635680930" lon="2.486925230">
        <ele>502.91</ele>
        <time>2016-02-21T07:33:07Z</time>
      </trkpt>
      <trkpt lat="41.635844380" lon="2.487014830">
        <ele>502.43</ele>
        <time>2016-02-21T07:33:14Z</time>
      </trkpt>
      <trkpt lat="41.636035400" lon="2.487061600">
        <ele>502.43</ele>
        <time>2016-02-21T07:33:20Z</time>
      </trkpt>
      <trkpt lat="41.636278560" lon="2.487107620">
        <ele>501.95</ele>
        <time>2016-02-21T07:33:28Z</time>
      </trkpt>
      <trkpt lat="41.636554240" lon="2.487177190">
        <ele>501.46</ele>
        <time>2016-02-21T07:33:35Z</time>
      </trkpt>
      <trkpt lat="41.636695140" lon="2.487210290">
        <ele>500.98</ele>
        <time>2016-02-21T07:33:38Z</time>
      </trkpt>
      <trkpt lat="41.636987830" lon="2.487207700">
        <ele>500.02</ele>
        <time>2016-02-21T07:33:45Z</time>
      </trkpt>
      <trkpt lat="41.637226130" lon="2.487132510">
        <ele>500.02</ele>
        <time>2016-02-21T07:33:54Z</time>
      </trkpt>
      <trkpt lat="41.637499550" lon="2.487160090">
        <ele>500.02</ele>
        <time>2016-02-21T07:34:01Z</time>
      </trkpt>
      <trkpt lat="41.637538110" lon="2.487160840">
        <ele>499.54</ele>
        <time>2016-02-21T07:34:02Z</time>
      </trkpt>
      <trkpt lat="41.637727030" lon="2.486988430">
        <ele>498.58</ele>
        <time>2016-02-21T07:34:08Z</time>
      </trkpt>
      <trkpt lat="41.637742040" lon="2.486879960">
        <ele>498.58</ele>
        <time>2016-02-21T07:34:10Z</time>
      </trkpt>
      <trkpt lat="41.637708430" lon="2.486584670">
        <ele>498.58</ele>
        <time>2016-02-21T07:34:17Z</time>
      </trkpt>
      <trkpt lat="41.637692330" lon="2.486267080">
        <ele>498.58</ele>
        <time>2016-02-21T07:34:26Z</time>
      </trkpt>
      <trkpt lat="41.637700800" lon="2.486159040">
        <ele>498.58</ele>
        <time>2016-02-21T07:34:29Z</time>
      </trkpt>
      <trkpt lat="41.637704400" lon="2.485908750">
        <ele>498.58</ele>
        <time>2016-02-21T07:34:36Z</time>
      </trkpt>
      <trkpt lat="41.637750920" lon="2.485579510">
        <ele>500.02</ele>
        <time>2016-02-21T07:34:45Z</time>
      </trkpt>
      <trkpt lat="41.637753940" lon="2.485320850">
        <ele>500.50</ele>
        <time>2016-02-21T07:34:52Z</time>
      </trkpt>
      <trkpt lat="41.637701890" lon="2.485044750">
        <ele>500.50</ele>
        <time>2016-02-21T07:34:59Z</time>
      </trkpt>
      <trkpt lat="41.637704910" lon="2.484939890">
        <ele>500.50</ele>
        <time>2016-02-21T07:35:01Z</time>
      </trkpt>
      <trkpt lat="41.637765000" lon="2.484767470">
        <ele>499.06</ele>
        <time>2016-02-21T07:35:04Z</time>
      </trkpt>
      <trkpt lat="41.637850670" lon="2.484451220">
        <ele>497.14</ele>
        <time>2016-02-21T07:35:08Z</time>
      </trkpt>
      <trkpt lat="41.637868690" lon="2.484257850">
        <ele>496.18</ele>
        <time>2016-02-21T07:35:10Z</time>
      </trkpt>
      <trkpt lat="41.637916630" lon="2.484064400">
        <ele>495.22</ele>
        <time>2016-02-21T07:35:12Z</time>
      </trkpt>
      <trkpt lat="41.637951080" lon="2.483969930">
        <ele>494.26</ele>
        <time>2016-02-21T07:35:13Z</time>
      </trkpt>
      <trkpt lat="41.637988630" lon="2.483596600">
        <ele>492.33</ele>
        <time>2016-02-21T07:35:17Z</time>
      </trkpt>
      <trkpt lat="41.637981840" lon="2.483169130">
        <ele>488.49</ele>
        <time>2016-02-21T07:35:22Z</time>
      </trkpt>
      <trkpt lat="41.637981340" lon="2.483093270">
        <ele>485.60</ele>
        <time>2016-02-21T07:35:23Z</time>
      </trkpt>
      <trkpt lat="41.638020740" lon="2.482867630">
        <ele>484.16</ele>
        <time>2016-02-21T07:35:26Z</time>
      </trkpt>
      <trkpt lat="41.638175050" lon="2.482683560">
        <ele>481.28</ele>
        <time>2016-02-21T07:35:29Z</time>
      </trkpt>
      <trkpt lat="41.638443350" lon="2.482364880">
        <ele>476.95</ele>
        <time>2016-02-21T07:35:34Z</time>
      </trkpt>
      <trkpt lat="41.638656500" lon="2.482199680">
        <ele>472.63</ele>
        <time>2016-02-21T07:35:39Z</time>
      </trkpt>
      <trkpt lat="41.638788690" lon="2.482300010">
        <ele>470.70</ele>
        <time>2016-02-21T07:35:43Z</time>
      </trkpt>
      <trkpt lat="41.638863960" lon="2.482543840">
        <ele>468.78</ele>
        <time>2016-02-21T07:35:47Z</time>
      </trkpt>
      <trkpt lat="41.638951300" lon="2.482680970">
        <ele>467.34</ele>
        <time>2016-02-21T07:35:50Z</time>
      </trkpt>
      <trkpt lat="41.639104430" lon="2.482697060">
        <ele>465.90</ele>
        <time>2016-02-21T07:35:54Z</time>
      </trkpt>
      <trkpt lat="41.639215240" lon="2.482637040">
        <ele>464.93</ele>
        <time>2016-02-21T07:35:57Z</time>
      </trkpt>
      <trkpt lat="41.639303670" lon="2.482609380">
        <ele>464.93</ele>
        <time>2016-02-21T07:35:59Z</time>
      </trkpt>
      <trkpt lat="41.639466200" lon="2.482492880">
        <ele>464.93</ele>
        <time>2016-02-21T07:36:04Z</time>
      </trkpt>
      <trkpt lat="41.639585890" lon="2.482376620">
        <ele>464.93</ele>
        <time>2016-02-21T07:36:10Z</time>
      </trkpt>
      <trkpt lat="41.639727210" lon="2.482178300">
        <ele>464.93</ele>
        <time>2016-02-21T07:36:19Z</time>
      </trkpt>
      <trkpt lat="41.639774570" lon="2.482105300">
        <ele>466.38</ele>
        <time>2016-02-21T07:36:24Z</time>
      </trkpt>
      <trkpt lat="41.639866930" lon="2.481989290">
        <ele>466.86</ele>
        <time>2016-02-21T07:36:33Z</time>
      </trkpt>
      <trkpt lat="41.639923600" lon="2.481816460">
        <ele>466.86</ele>
        <time>2016-02-21T07:36:41Z</time>
      </trkpt>
      <trkpt lat="41.639935080" lon="2.481589220">
        <ele>467.34</ele>
        <time>2016-02-21T07:36:50Z</time>
      </trkpt>
      <trkpt lat="41.639919570" lon="2.481422590">
        <ele>467.82</ele>
        <time>2016-02-21T07:36:55Z</time>
      </trkpt>
      <trkpt lat="41.639943210" lon="2.481285800">
        <ele>468.30</ele>
        <time>2016-02-21T07:37:00Z</time>
      </trkpt>
      <trkpt lat="41.640048320" lon="2.481065860">
        <ele>470.22</ele>
        <time>2016-02-21T07:37:09Z</time>
      </trkpt>
      <trkpt lat="41.640149570" lon="2.480912970">
        <ele>471.18</ele>
        <time>2016-02-21T07:37:15Z</time>
      </trkpt>
      <trkpt lat="41.640270190" lon="2.480652290">
        <ele>472.14</ele>
        <time>2016-02-21T07:37:23Z</time>
      </trkpt>
      <trkpt lat="41.640387450" lon="2.480481550">
        <ele>470.70</ele>
        <time>2016-02-21T07:37:28Z</time>
      </trkpt>
      <trkpt lat="41.640458950" lon="2.480222640">
        <ele>469.26</ele>
        <time>2016-02-21T07:37:32Z</time>
      </trkpt>
      <trkpt lat="41.640489460" lon="2.479969760">
        <ele>468.78</ele>
        <time>2016-02-21T07:37:35Z</time>
      </trkpt>
      <trkpt lat="41.640641930" lon="2.479644710">
        <ele>468.30</ele>
        <time>2016-02-21T07:37:40Z</time>
      </trkpt>
      <trkpt lat="41.640828670" lon="2.479346560">
        <ele>468.30</ele>
        <time>2016-02-21T07:37:47Z</time>
      </trkpt>
      <trkpt lat="41.640975270" lon="2.479102900">
        <ele>468.30</ele>
        <time>2016-02-21T07:37:54Z</time>
      </trkpt>
      <trkpt lat="41.641060850" lon="2.479040710">
        <ele>469.74</ele>
        <time>2016-02-21T07:37:57Z</time>
      </trkpt>
      <trkpt lat="41.641182220" lon="2.478938870">
        <ele>472.14</ele>
        <time>2016-02-21T07:38:04Z</time>
      </trkpt>
      <trkpt lat="41.641247270" lon="2.478822940">
        <ele>474.07</ele>
        <time>2016-02-21T07:38:10Z</time>
      </trkpt>
      <trkpt lat="41.641264110" lon="2.478640470">
        <ele>475.99</ele>
        <time>2016-02-21T07:38:18Z</time>
      </trkpt>
      <trkpt lat="41.641263440" lon="2.478560840">
        <ele>475.51</ele>
        <time>2016-02-21T07:38:21Z</time>
      </trkpt>
      <trkpt lat="41.641249700" lon="2.478394040">
        <ele>475.99</ele>
        <time>2016-02-21T07:38:27Z</time>
      </trkpt>
      <trkpt lat="41.641235450" lon="2.478139480">
        <ele>476.95</ele>
        <time>2016-02-21T07:38:36Z</time>
      </trkpt>
      <trkpt lat="41.641272330" lon="2.477911330">
        <ele>477.91</ele>
        <time>2016-02-21T07:38:45Z</time>
      </trkpt>
      <trkpt lat="41.641296130" lon="2.477712680">
        <ele>477.91</ele>
        <time>2016-02-21T07:38:51Z</time>
      </trkpt>
      <trkpt lat="41.641374000" lon="2.477452500">
        <ele>477.91</ele>
        <time>2016-02-21T07:38:58Z</time>
      </trkpt>
      <trkpt lat="41.641460590" lon="2.477169610">
        <ele>477.91</ele>
        <time>2016-02-21T07:39:06Z</time>
      </trkpt>
      <trkpt lat="41.641519430" lon="2.476812210">
        <ele>477.91</ele>
        <time>2016-02-21T07:39:15Z</time>
      </trkpt>
      <trkpt lat="41.641538870" lon="2.476581540">
        <ele>477.91</ele>
        <time>2016-02-21T07:39:21Z</time>
      </trkpt>
      <trkpt lat="41.641594780" lon="2.476346430">
        <ele>477.91</ele>
        <time>2016-02-21T07:39:27Z</time>
      </trkpt>
      <trkpt lat="41.641691760" lon="2.476057920">
        <ele>478.39</ele>
        <time>2016-02-21T07:39:34Z</time>
      </trkpt>
      <trkpt lat="41.641762080" lon="2.475858180">
        <ele>475.99</ele>
        <time>2016-02-21T07:39:37Z</time>
      </trkpt>
      <trkpt lat="41.641975740" lon="2.475588530">
        <ele>475.03</ele>
        <time>2016-02-21T07:39:42Z</time>
      </trkpt>
      <trkpt lat="41.642144550" lon="2.475353930">
        <ele>474.55</ele>
        <time>2016-02-21T07:39:46Z</time>
      </trkpt>
      <trkpt lat="41.642178830" lon="2.475133650">
        <ele>474.55</ele>
        <time>2016-02-21T07:39:49Z</time>
      </trkpt>
      <trkpt lat="41.642187550" lon="2.474732070">
        <ele>474.55</ele>
        <time>2016-02-21T07:39:56Z</time>
      </trkpt>
      <trkpt lat="41.642193160" lon="2.474488580">
        <ele>475.99</ele>
        <time>2016-02-21T07:40:02Z</time>
      </trkpt>
      <trkpt lat="41.642295420" lon="2.474346000">
        <ele>477.43</ele>
        <time>2016-02-21T07:40:08Z</time>
      </trkpt>
      <trkpt lat="41.642438330" lon="2.474259420">
        <ele>477.43</ele>
        <time>2016-02-21T07:40:13Z</time>
      </trkpt>
      <trkpt lat="41.642479320" lon="2.474032350">
        <ele>477.91</ele>
        <time>2016-02-21T07:40:19Z</time>
      </trkpt>
      <trkpt lat="41.642498520" lon="2.473610240">
        <ele>477.91</ele>
        <time>2016-02-21T07:40:29Z</time>
      </trkpt>
      <trkpt lat="41.642522150" lon="2.473324920">
        <ele>478.87</ele>
        <time>2016-02-21T07:40:37Z</time>
      </trkpt>
      <trkpt lat="41.642563980" lon="2.473070690">
        <ele>480.32</ele>
        <time>2016-02-21T07:40:45Z</time>
      </trkpt>
      <trkpt lat="41.642658860" lon="2.472875560">
        <ele>482.24</ele>
        <time>2016-02-21T07:40:53Z</time>
      </trkpt>
      <trkpt lat="41.642819290" lon="2.472784030">
        <ele>484.64</ele>
        <time>2016-02-21T07:41:01Z</time>
      </trkpt>
      <trkpt lat="41.642985670" lon="2.472742960">
        <ele>486.08</ele>
        <time>2016-02-21T07:41:09Z</time>
      </trkpt>
      <trkpt lat="41.643139820" lon="2.472603740">
        <ele>488.01</ele>
        <time>2016-02-21T07:41:18Z</time>
      </trkpt>
      <trkpt lat="41.643157170" lon="2.472414980">
        <ele>489.45</ele>
        <time>2016-02-21T07:41:25Z</time>
      </trkpt>
      <trkpt lat="41.643160690" lon="2.472234260">
        <ele>490.41</ele>
        <time>2016-02-21T07:41:32Z</time>
      </trkpt>
      <trkpt lat="41.643172840" lon="2.472062350">
        <ele>490.89</ele>
        <time>2016-02-21T07:41:39Z</time>
      </trkpt>
      <trkpt lat="41.643189350" lon="2.471813740">
        <ele>490.89</ele>
        <time>2016-02-21T07:41:46Z</time>
      </trkpt>
      <trkpt lat="41.643224810" lon="2.471612580">
        <ele>489.45</ele>
        <time>2016-02-21T07:41:50Z</time>
      </trkpt>
      <trkpt lat="41.643322880" lon="2.471347630">
        <ele>488.01</ele>
        <time>2016-02-21T07:41:56Z</time>
      </trkpt>
      <trkpt lat="41.643360850" lon="2.470739520">
        <ele>485.60</ele>
        <time>2016-02-21T07:42:04Z</time>
      </trkpt>
      <trkpt lat="41.643345010" lon="2.470353200">
        <ele>485.12</ele>
        <time>2016-02-21T07:42:09Z</time>
      </trkpt>
      <trkpt lat="41.643232600" lon="2.469910300">
        <ele>484.16</ele>
        <time>2016-02-21T07:42:15Z</time>
      </trkpt>
      <trkpt lat="41.643106880" lon="2.469677530">
        <ele>483.68</ele>
        <time>2016-02-21T07:42:19Z</time>
      </trkpt>
      <trkpt lat="41.642966730" lon="2.469470160">
        <ele>482.72</ele>
        <time>2016-02-21T07:42:23Z</time>
      </trkpt>
      <trkpt lat="41.642734800" lon="2.469140000">
        <ele>481.76</ele>
        <time>2016-02-21T07:42:30Z</time>
      </trkpt>
      <trkpt lat="41.642568420" lon="2.468834060">
        <ele>481.28</ele>
        <time>2016-02-21T07:42:37Z</time>
      </trkpt>
      <trkpt lat="41.642519560" lon="2.468675980">
        <ele>481.28</ele>
        <time>2016-02-21T07:42:40Z</time>
      </trkpt>
      <trkpt lat="41.642387880" lon="2.468393090">
        <ele>480.80</ele>
        <time>2016-02-21T07:42:47Z</time>
      </trkpt>
      <trkpt lat="41.642325350" lon="2.468148760">
        <ele>480.80</ele>
        <time>2016-02-21T07:42:54Z</time>
      </trkpt>
      <trkpt lat="41.642278070" lon="2.467923450">
        <ele>479.84</ele>
        <time>2016-02-21T07:43:00Z</time>
      </trkpt>
      <trkpt lat="41.642151340" lon="2.467605270">
        <ele>477.43</ele>
        <time>2016-02-21T07:43:05Z</time>
      </trkpt>
      <trkpt lat="41.642049750" lon="2.467389690">
        <ele>476.95</ele>
        <time>2016-02-21T07:43:08Z</time>
      </trkpt>
      <trkpt lat="41.641993340" lon="2.467246780">
        <ele>475.99</ele>
        <time>2016-02-21T07:43:10Z</time>
      </trkpt>
      <trkpt lat="41.641861160" lon="2.466624090">
        <ele>472.63</ele>
        <time>2016-02-21T07:43:17Z</time>
      </trkpt>
      <trkpt lat="41.641738110" lon="2.466020840">
        <ele>470.22</ele>
        <time>2016-02-21T07:43:23Z</time>
      </trkpt>
      <trkpt lat="41.641688910" lon="2.465815570">
        <ele>469.26</ele>
        <time>2016-02-21T07:43:25Z</time>
      </trkpt>
      <trkpt lat="41.641659150" lon="2.465617090">
        <ele>468.30</ele>
        <time>2016-02-21T07:43:27Z</time>
      </trkpt>
      <trkpt lat="41.641626040" lon="2.465195810">
        <ele>465.42</ele>
        <time>2016-02-21T07:43:31Z</time>
      </trkpt>
      <trkpt lat="41.641591760" lon="2.464759280">
        <ele>462.05</ele>
        <time>2016-02-21T07:43:35Z</time>
      </trkpt>
      <trkpt lat="41.641594780" lon="2.464432050">
        <ele>460.61</ele>
        <time>2016-02-21T07:43:38Z</time>
      </trkpt>
      <trkpt lat="41.641581030" lon="2.463943720">
        <ele>459.65</ele>
        <time>2016-02-21T07:43:43Z</time>
      </trkpt>
      <trkpt lat="41.641626210" lon="2.463698720">
        <ele>458.69</ele>
        <time>2016-02-21T07:43:49Z</time>
      </trkpt>
      <trkpt lat="41.641617830" lon="2.463627220">
        <ele>458.69</ele>
        <time>2016-02-21T07:43:52Z</time>
      </trkpt>
      <trkpt lat="41.641607020" lon="2.463382470">
        <ele>458.69</ele>
        <time>2016-02-21T07:43:59Z</time>
      </trkpt>
      <trkpt lat="41.641643980" lon="2.463081390">
        <ele>458.69</ele>
        <time>2016-02-21T07:44:07Z</time>
      </trkpt>
      <trkpt lat="41.641704830" lon="2.462855500">
        <ele>458.21</ele>
        <time>2016-02-21T07:44:13Z</time>
      </trkpt>
      <trkpt lat="41.641778760" lon="2.462574790">
        <ele>455.80</ele>
        <time>2016-02-21T07:44:20Z</time>
      </trkpt>
      <trkpt lat="41.641817910" lon="2.462369440">
        <ele>453.88</ele>
        <time>2016-02-21T07:44:25Z</time>
      </trkpt>
      <trkpt lat="41.641761500" lon="2.462175560">
        <ele>452.44</ele>
        <time>2016-02-21T07:44:30Z</time>
      </trkpt>
      <trkpt lat="41.641708690" lon="2.461984040">
        <ele>450.52</ele>
        <time>2016-02-21T07:44:35Z</time>
      </trkpt>
      <trkpt lat="41.641700810" lon="2.461868700">
        <ele>448.59</ele>
        <time>2016-02-21T07:44:39Z</time>
      </trkpt>
      <trkpt lat="41.641728050" lon="2.461776000">
        <ele>446.67</ele>
        <time>2016-02-21T07:44:44Z</time>
      </trkpt>
      <trkpt lat="41.641618670" lon="2.461763760">
        <ele>446.67</ele>
        <time>2016-02-21T07:44:51Z</time>
      </trkpt>
      <trkpt lat="41.641446760" lon="2.461774570">
        <ele>446.67</ele>
        <time>2016-02-21T07:44:58Z</time>
      </trkpt>
      <trkpt lat="41.641407860" lon="2.461773060">
        <ele>446.67</ele>
        <time>2016-02-21T07:45:00Z</time>
      </trkpt>
      <trkpt lat="41.641377190" lon="2.461778180">
        <ele>448.11</ele>
        <time>2016-02-21T07:45:02Z</time>
      </trkpt>
      <trkpt lat="41.641363520" lon="2.461778010">
        <ele>449.07</ele>
        <time>2016-02-21T07:45:03Z</time>
      </trkpt>
      <trkpt lat="41.641230920" lon="2.461766690">
        <ele>450.03</ele>
        <time>2016-02-21T07:45:11Z</time>
      </trkpt>
      <trkpt lat="41.641204100" lon="2.461763680">
        <ele>450.03</ele>
        <time>2016-02-21T07:45:12Z</time>
      </trkpt>
      <trkpt lat="41.641071920" lon="2.461599560">
        <ele>448.59</ele>
        <time>2016-02-21T07:45:18Z</time>
      </trkpt>
      <trkpt lat="41.640937220" lon="2.461384060">
        <ele>447.15</ele>
        <time>2016-02-21T07:45:24Z</time>
      </trkpt>
      <trkpt lat="41.640891120" lon="2.461292030">
        <ele>447.15</ele>
        <time>2016-02-21T07:45:27Z</time>
      </trkpt>
      <trkpt lat="41.640829430" lon="2.461271660">
        <ele>447.15</ele>
        <time>2016-02-21T07:45:31Z</time>
      </trkpt>
      <trkpt lat="41.640714930" lon="2.461322120">
        <ele>444.75</ele>
        <time>2016-02-21T07:45:37Z</time>
      </trkpt>
      <trkpt lat="41.640670260" lon="2.461306440">
        <ele>443.79</ele>
        <time>2016-02-21T07:45:39Z</time>
      </trkpt>
      <trkpt lat="41.640507820" lon="2.461167890">
        <ele>443.79</ele>
        <time>2016-02-21T07:45:46Z</time>
      </trkpt>
      <trkpt lat="41.640338000" lon="2.461023050">
        <ele>442.82</ele>
        <time>2016-02-21T07:45:52Z</time>
      </trkpt>
      <trkpt lat="41.640233810" lon="2.460864050">
        <ele>440.42</ele>
        <time>2016-02-21T07:45:56Z</time>
      </trkpt>
      <trkpt lat="41.640102210" lon="2.460640000">
        <ele>438.02</ele>
        <time>2016-02-21T07:46:02Z</time>
      </trkpt>
      <trkpt lat="41.640005660" lon="2.460384180">
        <ele>434.17</ele>
        <time>2016-02-21T07:46:09Z</time>
      </trkpt>
      <trkpt lat="41.639969450" lon="2.460339510">
        <ele>433.69</ele>
        <time>2016-02-21T07:46:11Z</time>
      </trkpt>
      <trkpt lat="41.639898700" lon="2.460185950">
        <ele>431.29</ele>
        <time>2016-02-21T07:46:16Z</time>
      </trkpt>
      <trkpt lat="41.639878590" lon="2.460062480">
        <ele>429.85</ele>
        <time>2016-02-21T07:46:20Z</time>
      </trkpt>
      <trkpt lat="41.639841290" lon="2.459922760">
        <ele>427.92</ele>
        <time>2016-02-21T07:46:25Z</time>
      </trkpt>
      <trkpt lat="41.639799460" lon="2.459766850">
        <ele>426.96</ele>
        <time>2016-02-21T07:46:30Z</time>
      </trkpt>
      <trkpt lat="41.639679260" lon="2.459560490">
        <ele>425.04</ele>
        <time>2016-02-21T07:46:36Z</time>
      </trkpt>
      <trkpt lat="41.639570800" lon="2.459405850">
        <ele>423.12</ele>
        <time>2016-02-21T07:46:42Z</time>
      </trkpt>
      <trkpt lat="41.639437190" lon="2.459213560">
        <ele>422.16</ele>
        <time>2016-02-21T07:46:49Z</time>
      </trkpt>
      <trkpt lat="41.639469300" lon="2.458984240">
        <ele>419.75</ele>
        <time>2016-02-21T07:46:54Z</time>
      </trkpt>
      <trkpt lat="41.639504170" lon="2.458810060">
        <ele>416.87</ele>
        <time>2016-02-21T07:46:57Z</time>
      </trkpt>
      <trkpt lat="41.639579440" lon="2.458491130">
        <ele>412.54</ele>
        <time>2016-02-21T07:47:03Z</time>
      </trkpt>
      <trkpt lat="41.639647580" lon="2.458268420">
        <ele>409.18</ele>
        <time>2016-02-21T07:47:08Z</time>
      </trkpt>
      <trkpt lat="41.639681530" lon="2.457857210">
        <ele>406.29</ele>
        <time>2016-02-21T07:47:15Z</time>
      </trkpt>
      <trkpt lat="41.639687650" lon="2.457608100">
        <ele>403.41</ele>
        <time>2016-02-21T07:47:20Z</time>
      </trkpt>
      <trkpt lat="41.639646570" lon="2.457456470">
        <ele>401.49</ele>
        <time>2016-02-21T07:47:24Z</time>
      </trkpt>
      <trkpt lat="41.639597790" lon="2.457417410">
        <ele>399.57</ele>
        <time>2016-02-21T07:47:26Z</time>
      </trkpt>
      <trkpt lat="41.639505170" lon="2.457476750">
        <ele>397.64</ele>
        <time>2016-02-21T07:47:30Z</time>
      </trkpt>
      <trkpt lat="41.639413470" lon="2.457686970">
        <ele>396.20</ele>
        <time>2016-02-21T07:47:38Z</time>
      </trkpt>
      <trkpt lat="41.639347760" lon="2.457954940">
        <ele>396.20</ele>
        <time>2016-02-21T07:47:45Z</time>
      </trkpt>
      <trkpt lat="41.639257070" lon="2.458178150">
        <ele>397.64</ele>
        <time>2016-02-21T07:47:52Z</time>
      </trkpt>
      <trkpt lat="41.639100410" lon="2.458352580">
        <ele>398.60</ele>
        <time>2016-02-21T07:48:00Z</time>
      </trkpt>
      <trkpt lat="41.638892120" lon="2.458469750">
        <ele>397.64</ele>
        <time>2016-02-21T07:48:05Z</time>
      </trkpt>
      <trkpt lat="41.638809640" lon="2.458511330">
        <ele>397.64</ele>
        <time>2016-02-21T07:48:07Z</time>
      </trkpt>
      <trkpt lat="41.638630020" lon="2.458578050">
        <ele>396.20</ele>
        <time>2016-02-21T07:48:11Z</time>
      </trkpt>
      <trkpt lat="41.638475870" lon="2.458574700">
        <ele>394.28</ele>
        <time>2016-02-21T07:48:15Z</time>
      </trkpt>
      <trkpt lat="41.638331290" lon="2.458552990">
        <ele>391.87</ele>
        <time>2016-02-21T07:48:19Z</time>
      </trkpt>
      <trkpt lat="41.638320560" lon="2.458686430">
        <ele>390.43</ele>
        <time>2016-02-21T07:48:23Z</time>
      </trkpt>
      <trkpt lat="41.638403790" lon="2.458820790">
        <ele>389.47</ele>
        <time>2016-02-21T07:48:26Z</time>
      </trkpt>
      <trkpt lat="41.638452490" lon="2.458922710">
        <ele>389.47</ele>
        <time>2016-02-21T07:48:28Z</time>
      </trkpt>
      <trkpt lat="41.638508560" lon="2.459082300">
        <ele>388.51</ele>
        <time>2016-02-21T07:48:31Z</time>
      </trkpt>
      <trkpt lat="41.638538910" lon="2.459257070">
        <ele>387.55</ele>
        <time>2016-02-21T07:48:34Z</time>
      </trkpt>
      <trkpt lat="41.638624490" lon="2.459596950">
        <ele>386.11</ele>
        <time>2016-02-21T07:48:40Z</time>
      </trkpt>
      <trkpt lat="41.638650130" lon="2.459768450">
        <ele>385.15</ele>
        <time>2016-02-21T07:48:43Z</time>
      </trkpt>
      <trkpt lat="41.638673600" lon="2.460100200">
        <ele>385.15</ele>
        <time>2016-02-21T07:48:50Z</time>
      </trkpt>
      <trkpt lat="41.638653150" lon="2.460201960">
        <ele>385.15</ele>
        <time>2016-02-21T07:48:53Z</time>
      </trkpt>
      <trkpt lat="41.638526420" lon="2.460289970">
        <ele>383.22</ele>
        <time>2016-02-21T07:48:57Z</time>
      </trkpt>
      <trkpt lat="41.638301450" lon="2.460298020">
        <ele>380.82</ele>
        <time>2016-02-21T07:49:04Z</time>
      </trkpt>
      <trkpt lat="41.638249980" lon="2.460286030">
        <ele>380.34</ele>
        <time>2016-02-21T07:49:06Z</time>
      </trkpt>
      <trkpt lat="41.638216450" lon="2.460130210">
        <ele>378.42</ele>
        <time>2016-02-21T07:49:10Z</time>
      </trkpt>
      <trkpt lat="41.638234560" lon="2.460031550">
        <ele>376.97</ele>
        <time>2016-02-21T07:49:12Z</time>
      </trkpt>
      <trkpt lat="41.638262470" lon="2.459920080">
        <ele>376.01</ele>
        <time>2016-02-21T07:49:14Z</time>
      </trkpt>
      <trkpt lat="41.638302620" lon="2.459663920">
        <ele>375.53</ele>
        <time>2016-02-21T07:49:18Z</time>
      </trkpt>
      <trkpt lat="41.638268840" lon="2.459394780">
        <ele>376.01</ele>
        <time>2016-02-21T07:49:24Z</time>
      </trkpt>
      <trkpt lat="41.638233390" lon="2.459311130">
        <ele>376.01</ele>
        <time>2016-02-21T07:49:26Z</time>
      </trkpt>
      <trkpt lat="41.638126770" lon="2.459307780">
        <ele>372.65</ele>
        <time>2016-02-21T07:49:31Z</time>
      </trkpt>
      <trkpt lat="41.638126520" lon="2.459332420">
        <ele>371.69</ele>
        <time>2016-02-21T07:49:32Z</time>
      </trkpt>
      <trkpt lat="41.638087960" lon="2.459550850">
        <ele>368.80</ele>
        <time>2016-02-21T07:49:38Z</time>
      </trkpt>
      <trkpt lat="41.637997690" lon="2.459668120">
        <ele>366.88</ele>
        <time>2016-02-21T07:49:42Z</time>
      </trkpt>
      <trkpt lat="41.637834240" lon="2.459761990">
        <ele>366.40</ele>
        <time>2016-02-21T07:49:48Z</time>
      </trkpt>
      <trkpt lat="41.637684960" lon="2.459843130">
        <ele>365.92</ele>
        <time>2016-02-21T07:49:55Z</time>
      </trkpt>
      <trkpt lat="41.637539950" lon="2.459746740">
        <ele>364.96</ele>
        <time>2016-02-21T07:50:00Z</time>
      </trkpt>
      <trkpt lat="41.637387900" lon="2.459696450">
        <ele>363.52</ele>
        <time>2016-02-21T07:50:04Z</time>
      </trkpt>
      <trkpt lat="41.637233930" lon="2.459584130">
        <ele>361.59</ele>
        <time>2016-02-21T07:50:09Z</time>
      </trkpt>
      <trkpt lat="41.637189170" lon="2.459451780">
        <ele>360.15</ele>
        <time>2016-02-21T07:50:14Z</time>
      </trkpt>
      <trkpt lat="41.637186990" lon="2.459424790">
        <ele>360.15</ele>
        <time>2016-02-21T07:50:15Z</time>
      </trkpt>
      <trkpt lat="41.637162180" lon="2.459304340">
        <ele>359.19</ele>
        <time>2016-02-21T07:50:22Z</time>
      </trkpt>
      <trkpt lat="41.637146250" lon="2.459304090">
        <ele>359.19</ele>
        <time>2016-02-21T07:50:31Z</time>
      </trkpt>
      <trkpt lat="41.637130330" lon="2.459294950">
        <ele>358.71</ele>
        <time>2016-02-21T07:50:39Z</time>
      </trkpt>
      <trkpt lat="41.637111890" lon="2.459253460">
        <ele>358.71</ele>
        <time>2016-02-21T07:50:47Z</time>
      </trkpt>
      <trkpt lat="41.637109880" lon="2.459246170">
        <ele>358.23</ele>
        <time>2016-02-21T07:50:54Z</time>
      </trkpt>
      <trkpt lat="41.637108870" lon="2.459239720">
        <ele>358.23</ele>
        <time>2016-02-21T07:50:59Z</time>
      </trkpt>
      <trkpt lat="41.637138630" lon="2.459064530">
        <ele>355.83</ele>
        <time>2016-02-21T07:51:06Z</time>
      </trkpt>
      <trkpt lat="41.637152290" lon="2.459031510">
        <ele>355.83</ele>
        <time>2016-02-21T07:51:07Z</time>
      </trkpt>
      <trkpt lat="41.637223700" lon="2.458845930">
        <ele>353.42</ele>
        <time>2016-02-21T07:51:12Z</time>
      </trkpt>
      <trkpt lat="41.637202240" lon="2.458659690">
        <ele>351.02</ele>
        <time>2016-02-21T07:51:17Z</time>
      </trkpt>
      <trkpt lat="41.637154470" lon="2.458457270">
        <ele>349.58</ele>
        <time>2016-02-21T07:51:23Z</time>
      </trkpt>
      <trkpt lat="41.637139710" lon="2.458364310">
        <ele>349.10</ele>
        <time>2016-02-21T07:51:26Z</time>
      </trkpt>
      <trkpt lat="41.637177770" lon="2.458197510">
        <ele>349.10</ele>
        <time>2016-02-21T07:51:32Z</time>
      </trkpt>
      <trkpt lat="41.637348090" lon="2.457848990">
        <ele>349.10</ele>
        <time>2016-02-21T07:51:43Z</time>
      </trkpt>
      <trkpt lat="41.637356810" lon="2.457557470">
        <ele>349.10</ele>
        <time>2016-02-21T07:51:50Z</time>
      </trkpt>
      <trkpt lat="41.637374410" lon="2.457355460">
        <ele>350.54</ele>
        <time>2016-02-21T07:51:56Z</time>
      </trkpt>
      <trkpt lat="41.637441630" lon="2.457174330">
        <ele>351.50</ele>
        <time>2016-02-21T07:52:02Z</time>
      </trkpt>
      <trkpt lat="41.637590490" lon="2.456981970">
        <ele>351.50</ele>
        <time>2016-02-21T07:52:09Z</time>
      </trkpt>
      <trkpt lat="41.637692840" lon="2.456861350">
        <ele>352.46</ele>
        <time>2016-02-21T07:52:16Z</time>
      </trkpt>
      <trkpt lat="41.637702560" lon="2.456845930">
        <ele>352.46</ele>
        <time>2016-02-21T07:52:17Z</time>
      </trkpt>
      <trkpt lat="41.637637680" lon="2.456687010">
        <ele>352.46</ele>
        <time>2016-02-21T07:52:23Z</time>
      </trkpt>
      <trkpt lat="41.637533080" lon="2.456461120">
        <ele>352.46</ele>
        <time>2016-02-21T07:52:30Z</time>
      </trkpt>
      <trkpt lat="41.637514300" lon="2.456426080">
        <ele>352.46</ele>
        <time>2016-02-21T07:52:35Z</time>
      </trkpt>
      <trkpt lat="41.637521340" lon="2.456462790">
        <ele>352.46</ele>
        <time>2016-02-21T07:52:43Z</time>
      </trkpt>
      <trkpt lat="41.637523190" lon="2.456463800">
        <ele>352.46</ele>
        <time>2016-02-21T07:52:45Z</time>
      </trkpt>
      <trkpt lat="41.637587560" lon="2.456600170">
        <ele>352.46</ele>
        <time>2016-02-21T07:52:53Z</time>
      </trkpt>
      <trkpt lat="41.637636260" lon="2.456700750">
        <ele>352.46</ele>
        <time>2016-02-21T07:52:57Z</time>
      </trkpt>
      <trkpt lat="41.637599290" lon="2.456731010">
        <ele>351.02</ele>
        <time>2016-02-21T07:53:02Z</time>
      </trkpt>
      <trkpt lat="41.637566020" lon="2.456724390">
        <ele>350.06</ele>
        <time>2016-02-21T07:53:04Z</time>
      </trkpt>
      <trkpt lat="41.637426960" lon="2.456674770">
        <ele>348.62</ele>
        <time>2016-02-21T07:53:10Z</time>
      </trkpt>
      <trkpt lat="41.637396450" lon="2.456623140">
        <ele>347.65</ele>
        <time>2016-02-21T07:53:12Z</time>
      </trkpt>
      <trkpt lat="41.637297970" lon="2.456647280">
        <ele>345.73</ele>
        <time>2016-02-21T07:53:17Z</time>
      </trkpt>
      <trkpt lat="41.637288160" lon="2.456801090">
        <ele>343.81</ele>
        <time>2016-02-21T07:53:22Z</time>
      </trkpt>
      <trkpt lat="41.637203330" lon="2.457015330">
        <ele>342.85</ele>
        <time>2016-02-21T07:53:30Z</time>
      </trkpt>
      <trkpt lat="41.637118930" lon="2.457093950">
        <ele>341.41</ele>
        <time>2016-02-21T07:53:34Z</time>
      </trkpt>
      <trkpt lat="41.637069560" lon="2.457097720">
        <ele>340.92</ele>
        <time>2016-02-21T07:53:37Z</time>
      </trkpt>
      <trkpt lat="41.637009040" lon="2.457173660">
        <ele>339.96</ele>
        <time>2016-02-21T07:53:42Z</time>
      </trkpt>
      <trkpt lat="41.636948360" lon="2.457234180">
        <ele>339.00</ele>
        <time>2016-02-21T07:53:46Z</time>
      </trkpt>
      <trkpt lat="41.636951710" lon="2.457396700">
        <ele>339.00</ele>
        <time>2016-02-21T07:53:53Z</time>
      </trkpt>
      <trkpt lat="41.636955980" lon="2.457427880">
        <ele>339.00</ele>
        <time>2016-02-21T07:53:55Z</time>
      </trkpt>
      <trkpt lat="41.636976770" lon="2.457554450">
        <ele>339.00</ele>
        <time>2016-02-21T07:54:02Z</time>
      </trkpt>
      <trkpt lat="41.636974510" lon="2.457531650">
        <ele>338.52</ele>
        <time>2016-02-21T07:54:11Z</time>
      </trkpt>
      <trkpt lat="41.636971070" lon="2.457500810">
        <ele>338.52</ele>
        <time>2016-02-21T07:54:16Z</time>
      </trkpt>
      <trkpt lat="41.636953220" lon="2.457426290">
        <ele>339.96</ele>
        <time>2016-02-21T07:54:23Z</time>
      </trkpt>
      <trkpt lat="41.636945760" lon="2.457362510">
        <ele>339.96</ele>
        <time>2016-02-21T07:54:30Z</time>
      </trkpt>
      <trkpt lat="41.636939470" lon="2.457306100">
        <ele>339.96</ele>
        <time>2016-02-21T07:54:32Z</time>
      </trkpt>
      <trkpt lat="41.636929410" lon="2.457197720">
        <ele>339.00</ele>
        <time>2016-02-21T07:54:37Z</time>
      </trkpt>
      <trkpt lat="41.637002840" lon="2.456994120">
        <ele>337.56</ele>
        <time>2016-02-21T07:54:44Z</time>
      </trkpt>
      <trkpt lat="41.637006270" lon="2.456765550">
        <ele>337.08</ele>
        <time>2016-02-21T07:54:50Z</time>
      </trkpt>
      <trkpt lat="41.636846680" lon="2.456560110">
        <ele>335.64</ele>
        <time>2016-02-21T07:54:56Z</time>
      </trkpt>
      <trkpt lat="41.636781890" lon="2.456472850">
        <ele>334.68</ele>
        <time>2016-02-21T07:54:58Z</time>
      </trkpt>
      <trkpt lat="41.636748110" lon="2.456431110">
        <ele>334.20</ele>
        <time>2016-02-21T07:54:59Z</time>
      </trkpt>
      <trkpt lat="41.636454490" lon="2.456145200">
        <ele>330.83</ele>
        <time>2016-02-21T07:55:07Z</time>
      </trkpt>
      <trkpt lat="41.636429680" lon="2.456130950">
        <ele>330.35</ele>
        <time>2016-02-21T07:55:08Z</time>
      </trkpt>
      <trkpt lat="41.636408480" lon="2.456197670">
        <ele>329.39</ele>
        <time>2016-02-21T07:55:13Z</time>
      </trkpt>
      <trkpt lat="41.636460860" lon="2.456242770">
        <ele>328.91</ele>
        <time>2016-02-21T07:55:17Z</time>
      </trkpt>
      <trkpt lat="41.636487180" lon="2.456292300">
        <ele>328.91</ele>
        <time>2016-02-21T07:55:20Z</time>
      </trkpt>
      <trkpt lat="41.636546700" lon="2.456468320">
        <ele>327.95</ele>
        <time>2016-02-21T07:55:27Z</time>
      </trkpt>
      <trkpt lat="41.636581060" lon="2.456534790">
        <ele>326.99</ele>
        <time>2016-02-21T07:55:29Z</time>
      </trkpt>
      <trkpt lat="41.636572090" lon="2.456695470">
        <ele>326.50</ele>
        <time>2016-02-21T07:55:34Z</time>
      </trkpt>
      <trkpt lat="41.636462880" lon="2.456795550">
        <ele>325.06</ele>
        <time>2016-02-21T07:55:38Z</time>
      </trkpt>
      <trkpt lat="41.636398170" lon="2.456787670">
        <ele>324.10</ele>
        <time>2016-02-21T07:55:40Z</time>
      </trkpt>
      <trkpt lat="41.636320300" lon="2.456666050">
        <ele>324.10</ele>
        <time>2016-02-21T07:55:46Z</time>
      </trkpt>
      <trkpt lat="41.636283750" lon="2.456601680">
        <ele>324.10</ele>
        <time>2016-02-21T07:55:50Z</time>
      </trkpt>
      <trkpt lat="41.636144280" lon="2.456516940">
        <ele>324.10</ele>
        <time>2016-02-21T07:55:57Z</time>
      </trkpt>
      <trkpt lat="41.635963310" lon="2.456551810">
        <ele>323.14</ele>
        <time>2016-02-21T07:56:04Z</time>
      </trkpt>
      <trkpt lat="41.635901960" lon="2.456703100">
        <ele>322.18</ele>
        <time>2016-02-21T07:56:08Z</time>
      </trkpt>
      <trkpt lat="41.635780420" lon="2.456880040">
        <ele>320.74</ele>
        <time>2016-02-21T07:56:12Z</time>
      </trkpt>
      <trkpt lat="41.635678080" lon="2.456954810">
        <ele>319.78</ele>
        <time>2016-02-21T07:56:14Z</time>
      </trkpt>
      <trkpt lat="41.635386470" lon="2.457063270">
        <ele>319.78</ele>
        <time>2016-02-21T07:56:20Z</time>
      </trkpt>
      <trkpt lat="41.635341290" lon="2.457047090">
        <ele>320.74</ele>
        <time>2016-02-21T07:56:22Z</time>
      </trkpt>
      <trkpt lat="41.635157810" lon="2.457009290">
        <ele>320.74</ele>
        <time>2016-02-21T07:56:28Z</time>
      </trkpt>
      <trkpt lat="41.634974330" lon="2.456850960">
        <ele>320.74</ele>
        <time>2016-02-21T07:56:34Z</time>
      </trkpt>
      <trkpt lat="41.634809040" lon="2.456787760">
        <ele>320.74</ele>
        <time>2016-02-21T07:56:39Z</time>
      </trkpt>
      <trkpt lat="41.634680050" lon="2.456768310">
        <ele>321.22</ele>
        <time>2016-02-21T07:56:44Z</time>
      </trkpt>
      <trkpt lat="41.634562870" lon="2.456834700">
        <ele>322.18</ele>
        <time>2016-02-21T07:56:49Z</time>
      </trkpt>
      <trkpt lat="41.634450630" lon="2.457027480">
        <ele>321.70</ele>
        <time>2016-02-21T07:56:54Z</time>
      </trkpt>
      <trkpt lat="41.634319120" lon="2.457210040">
        <ele>321.70</ele>
        <time>2016-02-21T07:57:00Z</time>
      </trkpt>
      <trkpt lat="41.634111500" lon="2.457315480">
        <ele>323.14</ele>
        <time>2016-02-21T07:57:09Z</time>
      </trkpt>
      <trkpt lat="41.633988370" lon="2.457357900">
        <ele>324.10</ele>
        <time>2016-02-21T07:57:15Z</time>
      </trkpt>
      <trkpt lat="41.633963480" lon="2.457242560">
        <ele>324.10</ele>
        <time>2016-02-21T07:57:20Z</time>
      </trkpt>
      <trkpt lat="41.633975710" lon="2.457226630">
        <ele>324.10</ele>
        <time>2016-02-21T07:57:21Z</time>
      </trkpt>
      <trkpt lat="41.634030870" lon="2.457070140">
        <ele>326.50</ele>
        <time>2016-02-21T07:57:29Z</time>
      </trkpt>
      <trkpt lat="41.634047880" lon="2.456957830">
        <ele>328.43</ele>
        <time>2016-02-21T07:57:36Z</time>
      </trkpt>
      <trkpt lat="41.634087860" lon="2.456755570">
        <ele>328.91</ele>
        <time>2016-02-21T07:57:41Z</time>
      </trkpt>
      <trkpt lat="41.634098430" lon="2.456705110">
        <ele>328.91</ele>
        <time>2016-02-21T07:57:42Z</time>
      </trkpt>
      <trkpt lat="41.634157180" lon="2.456531100">
        <ele>326.99</ele>
        <time>2016-02-21T07:57:45Z</time>
      </trkpt>
      <trkpt lat="41.634260450" lon="2.456309740">
        <ele>326.99</ele>
        <time>2016-02-21T07:57:50Z</time>
      </trkpt>
      <trkpt lat="41.634288690" lon="2.456255590">
        <ele>326.99</ele>
        <time>2016-02-21T07:57:52Z</time>
      </trkpt>
      <trkpt lat="41.634305540" lon="2.456202110">
        <ele>328.43</ele>
        <time>2016-02-21T07:57:54Z</time>
      </trkpt>
      <trkpt lat="41.634314590" lon="2.456150900">
        <ele>328.91</ele>
        <time>2016-02-21T07:57:56Z</time>
      </trkpt>
      <trkpt lat="41.634319710" lon="2.456028860">
        <ele>330.83</ele>
        <time>2016-02-21T07:58:01Z</time>
      </trkpt>
      <trkpt lat="41.634248040" lon="2.455877400">
        <ele>332.27</ele>
        <time>2016-02-21T07:58:08Z</time>
      </trkpt>
      <trkpt lat="41.634172020" lon="2.455769780">
        <ele>333.23</ele>
        <time>2016-02-21T07:58:14Z</time>
      </trkpt>
      <trkpt lat="41.634062970" lon="2.455840940">
        <ele>333.71</ele>
        <time>2016-02-21T07:58:21Z</time>
      </trkpt>
      <trkpt lat="41.634046540" lon="2.455853260">
        <ele>334.68</ele>
        <time>2016-02-21T07:58:22Z</time>
      </trkpt>
      <trkpt lat="41.633903460" lon="2.455917210">
        <ele>336.12</ele>
        <time>2016-02-21T07:58:31Z</time>
      </trkpt>
      <trkpt lat="41.633893740" lon="2.455914530">
        <ele>336.12</ele>
        <time>2016-02-21T07:58:32Z</time>
      </trkpt>
      <trkpt lat="41.633797180" lon="2.456002120">
        <ele>338.04</ele>
        <time>2016-02-21T07:58:40Z</time>
      </trkpt>
      <trkpt lat="41.633716130" lon="2.456049650">
        <ele>339.00</ele>
        <time>2016-02-21T07:58:45Z</time>
      </trkpt>
      <trkpt lat="41.633647060" lon="2.456208320">
        <ele>339.96</ele>
        <time>2016-02-21T07:58:52Z</time>
      </trkpt>
      <trkpt lat="41.633673970" lon="2.456380060">
        <ele>340.92</ele>
        <time>2016-02-21T07:58:58Z</time>
      </trkpt>
      <trkpt lat="41.633671700" lon="2.456462370">
        <ele>340.92</ele>
        <time>2016-02-21T07:59:01Z</time>
      </trkpt>
      <trkpt lat="41.633609840" lon="2.456669150">
        <ele>341.89</ele>
        <time>2016-02-21T07:59:09Z</time>
      </trkpt>
      <trkpt lat="41.633511360" lon="2.456816930">
        <ele>342.85</ele>
        <time>2016-02-21T07:59:15Z</time>
      </trkpt>
      <trkpt lat="41.633421250" lon="2.456966460">
        <ele>344.29</ele>
        <time>2016-02-21T07:59:22Z</time>
      </trkpt>
      <trkpt lat="41.633401220" lon="2.456982810">
        <ele>344.77</ele>
        <time>2016-02-21T07:59:24Z</time>
      </trkpt>
      <trkpt lat="41.633321090" lon="2.457031250">
        <ele>346.69</ele>
        <time>2016-02-21T07:59:32Z</time>
      </trkpt>
      <trkpt lat="41.633247910" lon="2.457045840">
        <ele>348.62</ele>
        <time>2016-02-21T07:59:39Z</time>
      </trkpt>
      <trkpt lat="41.633226620" lon="2.457067800">
        <ele>348.62</ele>
        <time>2016-02-21T07:59:42Z</time>
      </trkpt>
      <trkpt lat="41.633186140" lon="2.457147010">
        <ele>350.54</ele>
        <time>2016-02-21T07:59:48Z</time>
      </trkpt>
      <trkpt lat="41.633181950" lon="2.457159410">
        <ele>350.54</ele>
        <time>2016-02-21T07:59:49Z</time>
      </trkpt>
      <trkpt lat="41.633179520" lon="2.457222860">
        <ele>351.02</ele>
        <time>2016-02-21T07:59:55Z</time>
      </trkpt>
      <trkpt lat="41.633126380" lon="2.457291340">
        <ele>353.42</ele>
        <time>2016-02-21T08:00:06Z</time>
      </trkpt>
      <trkpt lat="41.633084970" lon="2.457336690">
        <ele>354.38</ele>
        <time>2016-02-21T08:00:13Z</time>
      </trkpt>
      <trkpt lat="41.633051270" lon="2.457388570">
        <ele>355.83</ele>
        <time>2016-02-21T08:00:21Z</time>
      </trkpt>
      <trkpt lat="41.633036270" lon="2.457439530">
        <ele>356.79</ele>
        <time>2016-02-21T08:00:29Z</time>
      </trkpt>
      <trkpt lat="41.632989920" lon="2.457491590">
        <ele>357.75</ele>
        <time>2016-02-21T08:00:37Z</time>
      </trkpt>
      <trkpt lat="41.632942640" lon="2.457523940">
        <ele>358.71</ele>
        <time>2016-02-21T08:00:44Z</time>
      </trkpt>
      <trkpt lat="41.632876090" lon="2.457549510">
        <ele>360.15</ele>
        <time>2016-02-21T08:00:52Z</time>
      </trkpt>
      <trkpt lat="41.632830490" lon="2.457584210">
        <ele>361.59</ele>
        <time>2016-02-21T08:00:59Z</time>
      </trkpt>
      <trkpt lat="41.632771320" lon="2.457633160">
        <ele>362.55</ele>
        <time>2016-02-21T08:01:06Z</time>
      </trkpt>
      <trkpt lat="41.632695630" lon="2.457671130">
        <ele>364.48</ele>
        <time>2016-02-21T08:01:15Z</time>
      </trkpt>
      <trkpt lat="41.632653890" lon="2.457702480">
        <ele>366.40</ele>
        <time>2016-02-21T08:01:23Z</time>
      </trkpt>
      <trkpt lat="41.632618100" lon="2.457703560">
        <ele>368.32</ele>
        <time>2016-02-21T08:01:31Z</time>
      </trkpt>
      <trkpt lat="41.632582390" lon="2.457730390">
        <ele>369.28</ele>
        <time>2016-02-21T08:01:38Z</time>
      </trkpt>
      <trkpt lat="41.632539810" lon="2.457730550">
        <ele>371.69</ele>
        <time>2016-02-21T08:01:45Z</time>
      </trkpt>
      <trkpt lat="41.632515420" lon="2.457730550">
        <ele>373.13</ele>
        <time>2016-02-21T08:01:52Z</time>
      </trkpt>
      <trkpt lat="41.632462110" lon="2.457760140">
        <ele>375.53</ele>
        <time>2016-02-21T08:02:02Z</time>
      </trkpt>
      <trkpt lat="41.632415090" lon="2.457812530">
        <ele>376.97</ele>
        <time>2016-02-21T08:02:11Z</time>
      </trkpt>
      <trkpt lat="41.632348870" lon="2.457871040">
        <ele>378.42</ele>
        <time>2016-02-21T08:02:20Z</time>
      </trkpt>
      <trkpt lat="41.632326320" lon="2.457944880">
        <ele>379.86</ele>
        <time>2016-02-21T08:02:27Z</time>
      </trkpt>
      <trkpt lat="41.632322800" lon="2.457948820">
        <ele>380.34</ele>
        <time>2016-02-21T08:02:36Z</time>
      </trkpt>
      <trkpt lat="41.632297910" lon="2.458000540">
        <ele>381.30</ele>
        <time>2016-02-21T08:02:43Z</time>
      </trkpt>
      <trkpt lat="41.632247950" lon="2.458050910">
        <ele>383.70</ele>
        <time>2016-02-21T08:02:52Z</time>
      </trkpt>
      <trkpt lat="41.632197910" lon="2.458108080">
        <ele>385.15</ele>
        <time>2016-02-21T08:03:02Z</time>
      </trkpt>
      <trkpt lat="41.632169250" lon="2.458167670">
        <ele>386.59</ele>
        <time>2016-02-21T08:03:10Z</time>
      </trkpt>
      <trkpt lat="41.632129260" lon="2.458227850">
        <ele>387.55</ele>
        <time>2016-02-21T08:03:17Z</time>
      </trkpt>
      <trkpt lat="41.632109320" lon="2.458308650">
        <ele>388.51</ele>
        <time>2016-02-21T08:03:26Z</time>
      </trkpt>
      <trkpt lat="41.632091710" lon="2.458399510">
        <ele>390.43</ele>
        <time>2016-02-21T08:03:36Z</time>
      </trkpt>
      <trkpt lat="41.632078810" lon="2.458464310">
        <ele>391.39</ele>
        <time>2016-02-21T08:03:43Z</time>
      </trkpt>
      <trkpt lat="41.632077800" lon="2.458536560">
        <ele>392.36</ele>
        <time>2016-02-21T08:03:52Z</time>
      </trkpt>
      <trkpt lat="41.632085340" lon="2.458582240">
        <ele>392.36</ele>
        <time>2016-02-21T08:04:11Z</time>
      </trkpt>
      <trkpt lat="41.632083000" lon="2.458571590">
        <ele>392.36</ele>
        <time>2016-02-21T08:04:32Z</time>
      </trkpt>
      <trkpt lat="41.632073690" lon="2.458556260">
        <ele>392.84</ele>
        <time>2016-02-21T08:04:58Z</time>
      </trkpt>
      <trkpt lat="41.632062130" lon="2.458553490">
        <ele>392.84</ele>
        <time>2016-02-21T08:05:13Z</time>
      </trkpt>
      <trkpt lat="41.632057260" lon="2.458565810">
        <ele>393.32</ele>
        <time>2016-02-21T08:05:30Z</time>
      </trkpt>
      <trkpt lat="41.632051150" lon="2.458569750">
        <ele>393.32</ele>
        <time>2016-02-21T08:05:41Z</time>
      </trkpt>
      <trkpt lat="41.632056010" lon="2.458571930">
        <ele>392.84</ele>
        <time>2016-02-21T08:06:01Z</time>
      </trkpt>
      <trkpt lat="41.632060110" lon="2.458569000">
        <ele>393.32</ele>
        <time>2016-02-21T08:06:14Z</time>
      </trkpt>
      <trkpt lat="41.632060780" lon="2.458567740">
        <ele>393.32</ele>
        <time>2016-02-21T08:06:26Z</time>
      </trkpt>
      <trkpt lat="41.632037480" lon="2.458557600">
        <ele>393.32</ele>
        <time>2016-02-21T08:06:48Z</time>
      </trkpt>
      <trkpt lat="41.632029690" lon="2.458564720">
        <ele>393.80</ele>
        <time>2016-02-21T08:07:05Z</time>
      </trkpt>
      <trkpt lat="41.632032790" lon="2.458567660">
        <ele>393.80</ele>
        <time>2016-02-21T08:07:25Z</time>
      </trkpt>
      <trkpt lat="41.632035140" lon="2.458561120">
        <ele>393.80</ele>
        <time>2016-02-21T08:07:39Z</time>
      </trkpt>
      <trkpt lat="41.632035300" lon="2.458557760">
        <ele>393.80</ele>
        <time>2016-02-21T08:07:56Z</time>
      </trkpt>
      <trkpt lat="41.632052570" lon="2.458564390">
        <ele>393.80</ele>
        <time>2016-02-21T08:08:18Z</time>
      </trkpt>
      <trkpt lat="41.632067490" lon="2.458584250">
        <ele>393.80</ele>
        <time>2016-02-21T08:08:45Z</time>
      </trkpt>
      <trkpt lat="41.632079640" lon="2.458581150">
        <ele>393.80</ele>
        <time>2016-02-21T08:09:10Z</time>
      </trkpt>
      <trkpt lat="41.632094650" lon="2.458576540">
        <ele>393.80</ele>
        <time>2016-02-21T08:09:36Z</time>
      </trkpt>
      <trkpt lat="41.632085260" lon="2.458600340">
        <ele>393.80</ele>
        <time>2016-02-21T08:09:45Z</time>
      </trkpt>
      <trkpt lat="41.632083670" lon="2.458664300">
        <ele>394.28</ele>
        <time>2016-02-21T08:09:50Z</time>
      </trkpt>
      <trkpt lat="41.632064560" lon="2.458792630">
        <ele>395.72</ele>
        <time>2016-02-21T08:09:58Z</time>
      </trkpt>
      <trkpt lat="41.632059110" lon="2.458825820">
        <ele>395.72</ele>
        <time>2016-02-21T08:10:00Z</time>
      </trkpt>
      <trkpt lat="41.632043270" lon="2.458949200">
        <ele>396.68</ele>
        <time>2016-02-21T08:10:07Z</time>
      </trkpt>
      <trkpt lat="41.632030780" lon="2.458990770">
        <ele>396.68</ele>
        <time>2016-02-21T08:10:10Z</time>
      </trkpt>
      <trkpt lat="41.632019960" lon="2.459013570">
        <ele>397.16</ele>
        <time>2016-02-21T08:10:12Z</time>
      </trkpt>
      <trkpt lat="41.631999430" lon="2.459106360">
        <ele>397.16</ele>
        <time>2016-02-21T08:10:17Z</time>
      </trkpt>
      <trkpt lat="41.631950560" lon="2.459230580">
        <ele>399.57</ele>
        <time>2016-02-21T08:10:26Z</time>
      </trkpt>
      <trkpt lat="41.631944700" lon="2.459326300">
        <ele>400.53</ele>
        <time>2016-02-21T08:10:34Z</time>
      </trkpt>
      <trkpt lat="41.631934130" lon="2.459425960">
        <ele>401.01</ele>
        <time>2016-02-21T08:10:41Z</time>
      </trkpt>
      <trkpt lat="41.631938070" lon="2.459528980">
        <ele>402.45</ele>
        <time>2016-02-21T08:10:47Z</time>
      </trkpt>
      <trkpt lat="41.631925330" lon="2.459635010">
        <ele>403.89</ele>
        <time>2016-02-21T08:10:54Z</time>
      </trkpt>
      <trkpt lat="41.631918540" lon="2.459764670">
        <ele>405.81</ele>
        <time>2016-02-21T08:11:03Z</time>
      </trkpt>
      <trkpt lat="41.631896080" lon="2.459899540">
        <ele>407.74</ele>
        <time>2016-02-21T08:11:11Z</time>
      </trkpt>
      <trkpt lat="41.631907650" lon="2.459972380">
        <ele>408.70</ele>
        <time>2016-02-21T08:11:16Z</time>
      </trkpt>
      <trkpt lat="41.631911250" lon="2.460008590">
        <ele>409.66</ele>
        <time>2016-02-21T08:11:18Z</time>
      </trkpt>
      <trkpt lat="41.631918880" lon="2.460141270">
        <ele>410.14</ele>
        <time>2016-02-21T08:11:27Z</time>
      </trkpt>
      <trkpt lat="41.631951230" lon="2.460163230">
        <ele>410.14</ele>
        <time>2016-02-21T08:11:40Z</time>
      </trkpt>
      <trkpt lat="41.631952910" lon="2.460176810">
        <ele>410.14</ele>
        <time>2016-02-21T08:11:53Z</time>
      </trkpt>
      <trkpt lat="41.631951570" lon="2.460184520">
        <ele>410.14</ele>
        <time>2016-02-21T08:11:57Z</time>
      </trkpt>
      <trkpt lat="41.632040840" lon="2.460332380">
        <ele>407.26</ele>
        <time>2016-02-21T08:12:04Z</time>
      </trkpt>
      <trkpt lat="41.632121640" lon="2.460434810">
        <ele>403.89</ele>
        <time>2016-02-21T08:12:09Z</time>
      </trkpt>
      <trkpt lat="41.632155580" lon="2.460461800">
        <ele>402.93</ele>
        <time>2016-02-21T08:12:11Z</time>
      </trkpt>
      <trkpt lat="41.632221630" lon="2.460500860">
        <ele>400.05</ele>
        <time>2016-02-21T08:12:16Z</time>
      </trkpt>
      <trkpt lat="41.632336210" lon="2.460595150">
        <ele>396.20</ele>
        <time>2016-02-21T08:12:23Z</time>
      </trkpt>
      <trkpt lat="41.632402930" lon="2.460730190">
        <ele>394.28</ele>
        <time>2016-02-21T08:12:27Z</time>
      </trkpt>
      <trkpt lat="41.632418780" lon="2.460805960">
        <ele>393.80</ele>
        <time>2016-02-21T08:12:30Z</time>
      </trkpt>
      <trkpt lat="41.632483320" lon="2.460955410">
        <ele>391.39</ele>
        <time>2016-02-21T08:12:35Z</time>
      </trkpt>
      <trkpt lat="41.632552050" lon="2.461058510">
        <ele>389.47</ele>
        <time>2016-02-21T08:12:39Z</time>
      </trkpt>
      <trkpt lat="41.632665540" lon="2.461152300">
        <ele>386.11</ele>
        <time>2016-02-21T08:12:44Z</time>
      </trkpt>
      <trkpt lat="41.632793280" lon="2.461216500">
        <ele>382.74</ele>
        <time>2016-02-21T08:12:50Z</time>
      </trkpt>
      <trkpt lat="41.632906180" lon="2.461345170">
        <ele>379.86</ele>
        <time>2016-02-21T08:12:55Z</time>
      </trkpt>
      <trkpt lat="41.632959910" lon="2.461442820">
        <ele>376.97</ele>
        <time>2016-02-21T08:13:00Z</time>
      </trkpt>
      <trkpt lat="41.632967120" lon="2.461454970">
        <ele>376.97</ele>
        <time>2016-02-21T08:13:01Z</time>
      </trkpt>
      <trkpt lat="41.633127720" lon="2.461490010">
        <ele>374.57</ele>
        <time>2016-02-21T08:13:07Z</time>
      </trkpt>
      <trkpt lat="41.633227290" lon="2.461537620">
        <ele>374.09</ele>
        <time>2016-02-21T08:13:12Z</time>
      </trkpt>
      <trkpt lat="41.633316980" lon="2.461611710">
        <ele>372.17</ele>
        <time>2016-02-21T08:13:17Z</time>
      </trkpt>
      <trkpt lat="41.633390150" lon="2.461676590">
        <ele>372.17</ele>
        <time>2016-02-21T08:13:22Z</time>
      </trkpt>
      <trkpt lat="41.633449580" lon="2.461703580">
        <ele>371.69</ele>
        <time>2016-02-21T08:13:25Z</time>
      </trkpt>
      <trkpt lat="41.633540690" lon="2.461633250">
        <ele>371.21</ele>
        <time>2016-02-21T08:13:31Z</time>
      </trkpt>
      <trkpt lat="41.633688970" lon="2.461480790">
        <ele>371.21</ele>
        <time>2016-02-21T08:13:41Z</time>
      </trkpt>
      <trkpt lat="41.633795170" lon="2.461355560">
        <ele>372.65</ele>
        <time>2016-02-21T08:13:49Z</time>
      </trkpt>
      <trkpt lat="41.633864910" lon="2.461219350">
        <ele>373.61</ele>
        <time>2016-02-21T08:13:56Z</time>
      </trkpt>
      <trkpt lat="41.633917800" lon="2.461055240">
        <ele>376.01</ele>
        <time>2016-02-21T08:14:04Z</time>
      </trkpt>
      <trkpt lat="41.633944870" lon="2.460848870">
        <ele>376.49</ele>
        <time>2016-02-21T08:14:11Z</time>
      </trkpt>
      <trkpt lat="41.634000690" lon="2.460581660">
        <ele>377.45</ele>
        <time>2016-02-21T08:14:20Z</time>
      </trkpt>
      <trkpt lat="41.634073360" lon="2.460425170">
        <ele>378.42</ele>
        <time>2016-02-21T08:14:26Z</time>
      </trkpt>
      <trkpt lat="41.634160370" lon="2.460138170">
        <ele>378.90</ele>
        <time>2016-02-21T08:14:35Z</time>
      </trkpt>
      <trkpt lat="41.634253490" lon="2.459922250">
        <ele>379.38</ele>
        <time>2016-02-21T08:14:43Z</time>
      </trkpt>
      <trkpt lat="41.634347790" lon="2.459683040">
        <ele>380.82</ele>
        <time>2016-02-21T08:14:52Z</time>
      </trkpt>
      <trkpt lat="41.634445940" lon="2.459528220">
        <ele>378.90</ele>
        <time>2016-02-21T08:14:57Z</time>
      </trkpt>
      <trkpt lat="41.634533030" lon="2.459356640">
        <ele>375.53</ele>
        <time>2016-02-21T08:15:03Z</time>
      </trkpt>
      <trkpt lat="41.634586750" lon="2.459272490">
        <ele>373.61</ele>
        <time>2016-02-21T08:15:07Z</time>
      </trkpt>
      <trkpt lat="41.634660180" lon="2.459153550">
        <ele>372.65</ele>
        <time>2016-02-21T08:15:12Z</time>
      </trkpt>
      <trkpt lat="41.634750290" lon="2.458957920">
        <ele>371.69</ele>
        <time>2016-02-21T08:15:18Z</time>
      </trkpt>
      <trkpt lat="41.634839720" lon="2.458833700">
        <ele>370.73</ele>
        <time>2016-02-21T08:15:21Z</time>
      </trkpt>
      <trkpt lat="41.635024040" lon="2.458578470">
        <ele>366.40</ele>
        <time>2016-02-21T08:15:26Z</time>
      </trkpt>
      <trkpt lat="41.635063850" lon="2.458528680">
        <ele>365.92</ele>
        <time>2016-02-21T08:15:27Z</time>
      </trkpt>
      <trkpt lat="41.635138120" lon="2.458452400">
        <ele>364.00</ele>
        <time>2016-02-21T08:15:29Z</time>
      </trkpt>
      <trkpt lat="41.635268290" lon="2.458355590">
        <ele>361.59</ele>
        <time>2016-02-21T08:15:33Z</time>
      </trkpt>
      <trkpt lat="41.635394020" lon="2.458264060">
        <ele>360.15</ele>
        <time>2016-02-21T08:15:40Z</time>
      </trkpt>
      <trkpt lat="41.635611360" lon="2.458237490">
        <ele>357.75</ele>
        <time>2016-02-21T08:15:45Z</time>
      </trkpt>
      <trkpt lat="41.635785120" lon="2.458253920">
        <ele>355.34</ele>
        <time>2016-02-21T08:15:48Z</time>
      </trkpt>
      <trkpt lat="41.635840520" lon="2.458260540">
        <ele>354.38</ele>
        <time>2016-02-21T08:15:49Z</time>
      </trkpt>
      <trkpt lat="41.635961720" lon="2.458269340">
        <ele>353.42</ele>
        <time>2016-02-21T08:15:53Z</time>
      </trkpt>
      <trkpt lat="41.636019310" lon="2.458320560">
        <ele>352.94</ele>
        <time>2016-02-21T08:15:58Z</time>
      </trkpt>
      <trkpt lat="41.636037410" lon="2.458503110">
        <ele>354.38</ele>
        <time>2016-02-21T08:16:06Z</time>
      </trkpt>
      <trkpt lat="41.636046880" lon="2.458747110">
        <ele>354.86</ele>
        <time>2016-02-21T08:16:14Z</time>
      </trkpt>
      <trkpt lat="41.636016960" lon="2.458923800">
        <ele>355.34</ele>
        <time>2016-02-21T08:16:21Z</time>
      </trkpt>
      <trkpt lat="41.635976640" lon="2.459119020">
        <ele>355.34</ele>
        <time>2016-02-21T08:16:27Z</time>
      </trkpt>
      <trkpt lat="41.635924170" lon="2.459387990">
        <ele>355.83</ele>
        <time>2016-02-21T08:16:35Z</time>
      </trkpt>
      <trkpt lat="41.635918810" lon="2.459572560">
        <ele>358.23</ele>
        <time>2016-02-21T08:16:42Z</time>
      </trkpt>
      <trkpt lat="41.635939680" lon="2.459789740">
        <ele>360.15</ele>
        <time>2016-02-21T08:16:50Z</time>
      </trkpt>
      <trkpt lat="41.635969010" lon="2.459987550">
        <ele>361.11</ele>
        <time>2016-02-21T08:16:57Z</time>
      </trkpt>
      <trkpt lat="41.636003130" lon="2.460211100">
        <ele>362.55</ele>
        <time>2016-02-21T08:17:05Z</time>
      </trkpt>
      <trkpt lat="41.636011430" lon="2.460233730">
        <ele>362.55</ele>
        <time>2016-02-21T08:17:06Z</time>
      </trkpt>
      <trkpt lat="41.636043110" lon="2.460464560">
        <ele>364.48</ele>
        <time>2016-02-21T08:17:16Z</time>
      </trkpt>
      <trkpt lat="41.636045880" lon="2.460488870">
        <ele>364.48</ele>
        <time>2016-02-21T08:17:17Z</time>
      </trkpt>
      <trkpt lat="41.636109910" lon="2.460706550">
        <ele>366.40</ele>
        <time>2016-02-21T08:17:27Z</time>
      </trkpt>
      <trkpt lat="41.636178730" lon="2.460857760">
        <ele>368.32</ele>
        <time>2016-02-21T08:17:35Z</time>
      </trkpt>
      <trkpt lat="41.636222990" lon="2.460950550">
        <ele>369.28</ele>
        <time>2016-02-21T08:17:39Z</time>
      </trkpt>
      <trkpt lat="41.636292640" lon="2.461033020">
        <ele>369.76</ele>
        <time>2016-02-21T08:17:44Z</time>
      </trkpt>
      <trkpt lat="41.636333120" lon="2.461074850">
        <ele>371.21</ele>
        <time>2016-02-21T08:17:47Z</time>
      </trkpt>
      <trkpt lat="41.636466150" lon="2.461251120">
        <ele>371.21</ele>
        <time>2016-02-21T08:17:56Z</time>
      </trkpt>
      <trkpt lat="41.636610480" lon="2.461425470">
        <ele>371.69</ele>
        <time>2016-02-21T08:18:04Z</time>
      </trkpt>
      <trkpt lat="41.636736290" lon="2.461609530">
        <ele>372.17</ele>
        <time>2016-02-21T08:18:12Z</time>
      </trkpt>
      <trkpt lat="41.636797310" lon="2.461748500">
        <ele>372.17</ele>
        <time>2016-02-21T08:18:18Z</time>
      </trkpt>
      <trkpt lat="41.636923710" lon="2.461978420">
        <ele>372.65</ele>
        <time>2016-02-21T08:18:27Z</time>
      </trkpt>
      <trkpt lat="41.637010890" lon="2.462197440">
        <ele>374.09</ele>
        <time>2016-02-21T08:18:35Z</time>
      </trkpt>
      <trkpt lat="41.637059080" lon="2.462428530">
        <ele>376.01</ele>
        <time>2016-02-21T08:18:44Z</time>
      </trkpt>
      <trkpt lat="41.637079530" lon="2.462577310">
        <ele>377.45</ele>
        <time>2016-02-21T08:18:49Z</time>
      </trkpt>
      <trkpt lat="41.637126560" lon="2.462750140">
        <ele>379.38</ele>
        <time>2016-02-21T08:18:56Z</time>
      </trkpt>
      <trkpt lat="41.637217330" lon="2.462909900">
        <ele>381.78</ele>
        <time>2016-02-21T08:19:04Z</time>
      </trkpt>
      <trkpt lat="41.637321850" lon="2.463045440">
        <ele>383.22</ele>
        <time>2016-02-21T08:19:12Z</time>
      </trkpt>
      <trkpt lat="41.637384630" lon="2.463121380">
        <ele>384.66</ele>
        <time>2016-02-21T08:19:17Z</time>
      </trkpt>
      <trkpt lat="41.637487060" lon="2.463146270">
        <ele>386.11</ele>
        <time>2016-02-21T08:19:24Z</time>
      </trkpt>
      <trkpt lat="41.637611530" lon="2.463136970">
        <ele>386.11</ele>
        <time>2016-02-21T08:19:32Z</time>
      </trkpt>
      <trkpt lat="41.637682530" lon="2.463102770">
        <ele>386.59</ele>
        <time>2016-02-21T08:19:39Z</time>
      </trkpt>
      <trkpt lat="41.637710440" lon="2.463059770">
        <ele>386.59</ele>
        <time>2016-02-21T08:19:46Z</time>
      </trkpt>
      <trkpt lat="41.637724940" lon="2.463032610">
        <ele>387.07</ele>
        <time>2016-02-21T08:19:53Z</time>
      </trkpt>
      <trkpt lat="41.637779760" lon="2.462883580">
        <ele>385.63</ele>
        <time>2016-02-21T08:19:59Z</time>
      </trkpt>
      <trkpt lat="41.637867350" lon="2.462890540">
        <ele>385.15</ele>
        <time>2016-02-21T08:20:03Z</time>
      </trkpt>
      <trkpt lat="41.637980840" lon="2.463092040">
        <ele>385.15</ele>
        <time>2016-02-21T08:20:11Z</time>
      </trkpt>
      <trkpt lat="41.638128280" lon="2.463368470">
        <ele>385.15</ele>
        <time>2016-02-21T08:20:19Z</time>
      </trkpt>
      <trkpt lat="41.638323240" lon="2.463724030">
        <ele>385.15</ele>
        <time>2016-02-21T08:20:28Z</time>
      </trkpt>
      <trkpt lat="41.638341340" lon="2.463765860">
        <ele>385.15</ele>
        <time>2016-02-21T08:20:29Z</time>
      </trkpt>
      <trkpt lat="41.638297000" lon="2.463986300">
        <ele>383.70</ele>
        <time>2016-02-21T08:20:34Z</time>
      </trkpt>
      <trkpt lat="41.638215110" lon="2.464120500">
        <ele>382.26</ele>
        <time>2016-02-21T08:20:37Z</time>
      </trkpt>
      <trkpt lat="41.638114190" lon="2.464233240">
        <ele>381.78</ele>
        <time>2016-02-21T08:20:40Z</time>
      </trkpt>
      <trkpt lat="41.638094750" lon="2.464462980">
        <ele>381.30</ele>
        <time>2016-02-21T08:20:45Z</time>
      </trkpt>
      <trkpt lat="41.638119980" lon="2.464654840">
        <ele>381.30</ele>
        <time>2016-02-21T08:20:52Z</time>
      </trkpt>
      <trkpt lat="41.638176300" lon="2.464741180">
        <ele>382.74</ele>
        <time>2016-02-21T08:20:58Z</time>
      </trkpt>
      <trkpt lat="41.638194580" lon="2.464772360">
        <ele>382.74</ele>
        <time>2016-02-21T08:21:00Z</time>
      </trkpt>
      <trkpt lat="41.638190890" lon="2.464940670">
        <ele>384.18</ele>
        <time>2016-02-21T08:21:08Z</time>
      </trkpt>
      <trkpt lat="41.638221900" lon="2.465092550">
        <ele>384.18</ele>
        <time>2016-02-21T08:21:14Z</time>
      </trkpt>
      <trkpt lat="41.638233970" lon="2.465128590">
        <ele>384.18</ele>
        <time>2016-02-21T08:21:16Z</time>
      </trkpt>
      <trkpt lat="41.638268920" lon="2.465312410">
        <ele>384.18</ele>
        <time>2016-02-21T08:21:24Z</time>
      </trkpt>
      <trkpt lat="41.638285190" lon="2.465478700">
        <ele>384.18</ele>
        <time>2016-02-21T08:21:31Z</time>
      </trkpt>
      <trkpt lat="41.638312430" lon="2.465709120">
        <ele>384.66</ele>
        <time>2016-02-21T08:21:39Z</time>
      </trkpt>
      <trkpt lat="41.638320050" lon="2.465936270">
        <ele>385.15</ele>
        <time>2016-02-21T08:21:47Z</time>
      </trkpt>
      <trkpt lat="41.638349310" lon="2.466102320">
        <ele>385.63</ele>
        <time>2016-02-21T08:21:54Z</time>
      </trkpt>
      <trkpt lat="41.638424740" lon="2.466164840">
        <ele>386.59</ele>
        <time>2016-02-21T08:21:59Z</time>
      </trkpt>
      <trkpt lat="41.638500180" lon="2.466312700">
        <ele>387.55</ele>
        <time>2016-02-21T08:22:06Z</time>
      </trkpt>
      <trkpt lat="41.638531450" lon="2.466361150">
        <ele>387.55</ele>
        <time>2016-02-21T08:22:09Z</time>
      </trkpt>
      <trkpt lat="41.638549130" lon="2.466454610">
        <ele>388.03</ele>
        <time>2016-02-21T08:22:13Z</time>
      </trkpt>
      <trkpt lat="41.638621550" lon="2.466633560">
        <ele>388.99</ele>
        <time>2016-02-21T08:22:22Z</time>
      </trkpt>
      <trkpt lat="41.638635130" lon="2.466672790">
        <ele>388.99</ele>
        <time>2016-02-21T08:22:24Z</time>
      </trkpt>
      <trkpt lat="41.638717270" lon="2.466882170">
        <ele>390.43</ele>
        <time>2016-02-21T08:22:33Z</time>
      </trkpt>
      <trkpt lat="41.638760100" lon="2.467045200">
        <ele>391.87</ele>
        <time>2016-02-21T08:22:40Z</time>
      </trkpt>
      <trkpt lat="41.638784830" lon="2.467187860">
        <ele>392.84</ele>
        <time>2016-02-21T08:22:46Z</time>
      </trkpt>
      <trkpt lat="41.638813830" lon="2.467350050">
        <ele>393.32</ele>
        <time>2016-02-21T08:22:52Z</time>
      </trkpt>
      <trkpt lat="41.638878540" lon="2.467539560">
        <ele>393.32</ele>
        <time>2016-02-21T08:23:00Z</time>
      </trkpt>
      <trkpt lat="41.638937210" lon="2.467628070">
        <ele>394.28</ele>
        <time>2016-02-21T08:23:06Z</time>
      </trkpt>
      <trkpt lat="41.638990270" lon="2.467726480">
        <ele>394.76</ele>
        <time>2016-02-21T08:23:12Z</time>
      </trkpt>
      <trkpt lat="41.639086580" lon="2.467876090">
        <ele>395.72</ele>
        <time>2016-02-21T08:23:19Z</time>
      </trkpt>
      <trkpt lat="41.639146260" lon="2.468006940">
        <ele>396.68</ele>
        <time>2016-02-21T08:23:26Z</time>
      </trkpt>
      <trkpt lat="41.639181630" lon="2.468188490">
        <ele>398.12</ele>
        <time>2016-02-21T08:23:34Z</time>
      </trkpt>
      <trkpt lat="41.639179700" lon="2.468222600">
        <ele>398.12</ele>
        <time>2016-02-21T08:23:35Z</time>
      </trkpt>
      <trkpt lat="41.639096890" lon="2.468402730">
        <ele>398.12</ele>
        <time>2016-02-21T08:23:41Z</time>
      </trkpt>
      <trkpt lat="41.639066130" lon="2.468597110">
        <ele>398.12</ele>
        <time>2016-02-21T08:23:47Z</time>
      </trkpt>
      <trkpt lat="41.639016670" lon="2.468737080">
        <ele>398.12</ele>
        <time>2016-02-21T08:23:53Z</time>
      </trkpt>
      <trkpt lat="41.638990520" lon="2.468886620">
        <ele>399.08</ele>
        <time>2016-02-21T08:24:02Z</time>
      </trkpt>
      <trkpt lat="41.638978620" lon="2.468945120">
        <ele>400.53</ele>
        <time>2016-02-21T08:24:06Z</time>
      </trkpt>
      <trkpt lat="41.638988680" lon="2.469038240">
        <ele>401.49</ele>
        <time>2016-02-21T08:24:11Z</time>
      </trkpt>
      <trkpt lat="41.639023380" lon="2.469180820">
        <ele>402.45</ele>
        <time>2016-02-21T08:24:19Z</time>
      </trkpt>
      <trkpt lat="41.639030090" lon="2.469270590">
        <ele>403.89</ele>
        <time>2016-02-21T08:24:24Z</time>
      </trkpt>
      <trkpt lat="41.638987170" lon="2.469408310">
        <ele>405.33</ele>
        <time>2016-02-21T08:24:33Z</time>
      </trkpt>
      <trkpt lat="41.638955490" lon="2.469530010">
        <ele>405.81</ele>
        <time>2016-02-21T08:24:41Z</time>
      </trkpt>
      <trkpt lat="41.638971580" lon="2.469614000">
        <ele>405.81</ele>
        <time>2016-02-21T08:24:48Z</time>
      </trkpt>
      <trkpt lat="41.638977700" lon="2.469621540">
        <ele>405.81</ele>
        <time>2016-02-21T08:24:49Z</time>
      </trkpt>
      <trkpt lat="41.638991280" lon="2.469654820">
        <ele>406.29</ele>
        <time>2016-02-21T08:24:52Z</time>
      </trkpt>
      <trkpt lat="41.639008210" lon="2.469805520">
        <ele>408.70</ele>
        <time>2016-02-21T08:25:02Z</time>
      </trkpt>
      <trkpt lat="41.639027910" lon="2.469983810">
        <ele>410.62</ele>
        <time>2016-02-21T08:25:13Z</time>
      </trkpt>
      <trkpt lat="41.639046260" lon="2.470115650">
        <ele>412.06</ele>
        <time>2016-02-21T08:25:22Z</time>
      </trkpt>
      <trkpt lat="41.639097310" lon="2.470208610">
        <ele>413.02</ele>
        <time>2016-02-21T08:25:29Z</time>
      </trkpt>
      <trkpt lat="41.639161680" lon="2.470295110">
        <ele>413.98</ele>
        <time>2016-02-21T08:25:36Z</time>
      </trkpt>
      <trkpt lat="41.639227730" lon="2.470425030">
        <ele>413.98</ele>
        <time>2016-02-21T08:25:44Z</time>
      </trkpt>
      <trkpt lat="41.639323450" lon="2.470629800">
        <ele>413.98</ele>
        <time>2016-02-21T08:25:50Z</time>
      </trkpt>
      <trkpt lat="41.639455890" lon="2.470943200">
        <ele>413.98</ele>
        <time>2016-02-21T08:25:59Z</time>
      </trkpt>
      <trkpt lat="41.639553200" lon="2.471212010">
        <ele>413.98</ele>
        <time>2016-02-21T08:26:08Z</time>
      </trkpt>
      <trkpt lat="41.639651850" lon="2.471535130">
        <ele>413.98</ele>
        <time>2016-02-21T08:26:17Z</time>
      </trkpt>
      <trkpt lat="41.639717400" lon="2.471762280">
        <ele>413.98</ele>
        <time>2016-02-21T08:26:23Z</time>
      </trkpt>
      <trkpt lat="41.639775660" lon="2.471849120">
        <ele>413.98</ele>
        <time>2016-02-21T08:26:26Z</time>
      </trkpt>
      <trkpt lat="41.639782280" lon="2.472156480">
        <ele>414.47</ele>
        <time>2016-02-21T08:26:34Z</time>
      </trkpt>
      <trkpt lat="41.639831310" lon="2.472424110">
        <ele>414.95</ele>
        <time>2016-02-21T08:26:42Z</time>
      </trkpt>
      <trkpt lat="41.639846730" lon="2.472566360">
        <ele>415.91</ele>
        <time>2016-02-21T08:26:48Z</time>
      </trkpt>
      <trkpt lat="41.639862410" lon="2.472699120">
        <ele>417.35</ele>
        <time>2016-02-21T08:26:56Z</time>
      </trkpt>
      <trkpt lat="41.639872890" lon="2.472768690">
        <ele>417.83</ele>
        <time>2016-02-21T08:27:03Z</time>
      </trkpt>
      <trkpt lat="41.639884960" lon="2.472828790">
        <ele>418.79</ele>
        <time>2016-02-21T08:27:06Z</time>
      </trkpt>
      <trkpt lat="41.639893090" lon="2.472944550">
        <ele>419.75</ele>
        <time>2016-02-21T08:27:11Z</time>
      </trkpt>
      <trkpt lat="41.639922840" lon="2.473103050">
        <ele>421.68</ele>
        <time>2016-02-21T08:27:20Z</time>
      </trkpt>
      <trkpt lat="41.639954940" lon="2.473248220">
        <ele>422.64</ele>
        <time>2016-02-21T08:27:28Z</time>
      </trkpt>
      <trkpt lat="41.639995430" lon="2.473370600">
        <ele>423.60</ele>
        <time>2016-02-21T08:27:36Z</time>
      </trkpt>
      <trkpt lat="41.640012190" lon="2.473514520">
        <ele>423.60</ele>
        <time>2016-02-21T08:27:42Z</time>
      </trkpt>
      <trkpt lat="41.639884620" lon="2.473597160">
        <ele>423.60</ele>
        <time>2016-02-21T08:27:50Z</time>
      </trkpt>
      <trkpt lat="41.639806580" lon="2.473711410">
        <ele>424.08</ele>
        <time>2016-02-21T08:27:56Z</time>
      </trkpt>
      <trkpt lat="41.639780940" lon="2.473750890">
        <ele>424.08</ele>
        <time>2016-02-21T08:27:58Z</time>
      </trkpt>
      <trkpt lat="41.639733660" lon="2.473862780">
        <ele>424.08</ele>
        <time>2016-02-21T08:28:03Z</time>
      </trkpt>
      <trkpt lat="41.639615480" lon="2.474008880">
        <ele>425.04</ele>
        <time>2016-02-21T08:28:11Z</time>
      </trkpt>
      <trkpt lat="41.639468710" lon="2.474119610">
        <ele>425.04</ele>
        <time>2016-02-21T08:28:19Z</time>
      </trkpt>
      <trkpt lat="41.639405180" lon="2.474154470">
        <ele>425.52</ele>
        <time>2016-02-21T08:28:22Z</time>
      </trkpt>
      <trkpt lat="41.639295290" lon="2.474288000">
        <ele>426.48</ele>
        <time>2016-02-21T08:28:30Z</time>
      </trkpt>
      <trkpt lat="41.639290260" lon="2.474308200">
        <ele>426.48</ele>
        <time>2016-02-21T08:28:31Z</time>
      </trkpt>
      <trkpt lat="41.639282380" lon="2.474380120">
        <ele>426.48</ele>
        <time>2016-02-21T08:28:34Z</time>
      </trkpt>
      <trkpt lat="41.639315240" lon="2.474592760">
        <ele>427.44</ele>
        <time>2016-02-21T08:28:44Z</time>
      </trkpt>
      <trkpt lat="41.639359330" lon="2.474761580">
        <ele>429.37</ele>
        <time>2016-02-21T08:28:52Z</time>
      </trkpt>
      <trkpt lat="41.639408950" lon="2.474937260">
        <ele>430.33</ele>
        <time>2016-02-21T08:29:00Z</time>
      </trkpt>
      <trkpt lat="41.639448170" lon="2.475140860">
        <ele>431.29</ele>
        <time>2016-02-21T08:29:08Z</time>
      </trkpt>
      <trkpt lat="41.639438450" lon="2.475391480">
        <ele>432.25</ele>
        <time>2016-02-21T08:29:17Z</time>
      </trkpt>
      <trkpt lat="41.639408280" lon="2.475622820">
        <ele>432.25</ele>
        <time>2016-02-21T08:29:23Z</time>
      </trkpt>
      <trkpt lat="41.639360500" lon="2.475845690">
        <ele>432.25</ele>
        <time>2016-02-21T08:29:30Z</time>
      </trkpt>
      <trkpt lat="41.639323540" lon="2.476036300">
        <ele>432.25</ele>
        <time>2016-02-21T08:29:38Z</time>
      </trkpt>
      <trkpt lat="41.639324120" lon="2.476365620">
        <ele>433.21</ele>
        <time>2016-02-21T08:29:49Z</time>
      </trkpt>
      <trkpt lat="41.639255730" lon="2.476576090">
        <ele>434.65</ele>
        <time>2016-02-21T08:29:57Z</time>
      </trkpt>
      <trkpt lat="41.639216750" lon="2.476792760">
        <ele>435.61</ele>
        <time>2016-02-21T08:30:04Z</time>
      </trkpt>
      <trkpt lat="41.639190600" lon="2.477009350">
        <ele>435.61</ele>
        <time>2016-02-21T08:30:10Z</time>
      </trkpt>
      <trkpt lat="41.639113400" lon="2.477329540">
        <ele>436.58</ele>
        <time>2016-02-21T08:30:20Z</time>
      </trkpt>
      <trkpt lat="41.639083480" lon="2.477534980">
        <ele>436.58</ele>
        <time>2016-02-21T08:30:27Z</time>
      </trkpt>
      <trkpt lat="41.639064200" lon="2.477681660">
        <ele>437.06</ele>
        <time>2016-02-21T08:30:32Z</time>
      </trkpt>
      <trkpt lat="41.639082140" lon="2.477995650">
        <ele>438.02</ele>
        <time>2016-02-21T08:30:41Z</time>
      </trkpt>
      <trkpt lat="41.639082050" lon="2.478244260">
        <ele>438.98</ele>
        <time>2016-02-21T08:30:49Z</time>
      </trkpt>
      <trkpt lat="41.639041070" lon="2.478425050">
        <ele>439.46</ele>
        <time>2016-02-21T08:30:55Z</time>
      </trkpt>
      <trkpt lat="41.639017760" lon="2.478617420">
        <ele>441.38</ele>
        <time>2016-02-21T08:31:02Z</time>
      </trkpt>
      <trkpt lat="41.639039720" lon="2.478768880">
        <ele>441.38</ele>
        <time>2016-02-21T08:31:07Z</time>
      </trkpt>
      <trkpt lat="41.639057660" lon="2.478883960">
        <ele>442.34</ele>
        <time>2016-02-21T08:31:11Z</time>
      </trkpt>
      <trkpt lat="41.639053890" lon="2.479143970">
        <ele>443.31</ele>
        <time>2016-02-21T08:31:19Z</time>
      </trkpt>
      <trkpt lat="41.639042160" lon="2.479276570">
        <ele>443.79</ele>
        <time>2016-02-21T08:31:23Z</time>
      </trkpt>
      <trkpt lat="41.639118770" lon="2.479348820">
        <ele>445.23</ele>
        <time>2016-02-21T08:31:29Z</time>
      </trkpt>
      <trkpt lat="41.639159170" lon="2.479299540">
        <ele>445.71</ele>
        <time>2016-02-21T08:31:32Z</time>
      </trkpt>
      <trkpt lat="41.639248010" lon="2.479124610">
        <ele>447.15</ele>
        <time>2016-02-21T08:31:40Z</time>
      </trkpt>
      <trkpt lat="41.639337530" lon="2.478952610">
        <ele>448.59</ele>
        <time>2016-02-21T08:31:48Z</time>
      </trkpt>
      <trkpt lat="41.639425800" lon="2.478859990">
        <ele>450.03</ele>
        <time>2016-02-21T08:31:54Z</time>
      </trkpt>
      <trkpt lat="41.639526800" lon="2.478931070">
        <ele>450.52</ele>
        <time>2016-02-21T08:32:00Z</time>
      </trkpt>
      <trkpt lat="41.639565350" lon="2.479121590">
        <ele>452.44</ele>
        <time>2016-02-21T08:32:08Z</time>
      </trkpt>
      <trkpt lat="41.639603830" lon="2.479328290">
        <ele>454.36</ele>
        <time>2016-02-21T08:32:16Z</time>
      </trkpt>
      <trkpt lat="41.639623520" lon="2.479494080">
        <ele>455.32</ele>
        <time>2016-02-21T08:32:23Z</time>
      </trkpt>
      <trkpt lat="41.639640540" lon="2.479654930">
        <ele>456.76</ele>
        <time>2016-02-21T08:32:31Z</time>
      </trkpt>
      <trkpt lat="41.639672310" lon="2.479794990">
        <ele>458.21</ele>
        <time>2016-02-21T08:32:39Z</time>
      </trkpt>
      <trkpt lat="41.639709100" lon="2.479923570">
        <ele>459.17</ele>
        <time>2016-02-21T08:32:47Z</time>
      </trkpt>
      <trkpt lat="41.639736930" lon="2.480043430">
        <ele>460.61</ele>
        <time>2016-02-21T08:32:54Z</time>
      </trkpt>
      <trkpt lat="41.639758310" lon="2.480193050">
        <ele>461.57</ele>
        <time>2016-02-21T08:33:02Z</time>
      </trkpt>
      <trkpt lat="41.639770290" lon="2.480303020">
        <ele>462.53</ele>
        <time>2016-02-21T08:33:08Z</time>
      </trkpt>
      <trkpt lat="41.639772470" lon="2.480375860">
        <ele>463.97</ele>
        <time>2016-02-21T08:33:12Z</time>
      </trkpt>
      <trkpt lat="41.639779850" lon="2.480550620">
        <ele>465.42</ele>
        <time>2016-02-21T08:33:21Z</time>
      </trkpt>
      <trkpt lat="41.639783530" lon="2.480598310">
        <ele>465.42</ele>
        <time>2016-02-21T08:33:23Z</time>
      </trkpt>
      <trkpt lat="41.639823770" lon="2.480844830">
        <ele>466.86</ele>
        <time>2016-02-21T08:33:33Z</time>
      </trkpt>
      <trkpt lat="41.639860980" lon="2.481028050">
        <ele>468.30</ele>
        <time>2016-02-21T08:33:42Z</time>
      </trkpt>
      <trkpt lat="41.639907000" lon="2.481212620">
        <ele>469.74</ele>
        <time>2016-02-21T08:33:51Z</time>
      </trkpt>
      <trkpt lat="41.639949330" lon="2.481308600">
        <ele>470.22</ele>
        <time>2016-02-21T08:33:56Z</time>
      </trkpt>
      <trkpt lat="41.639960310" lon="2.481577660">
        <ele>470.22</ele>
        <time>2016-02-21T08:34:03Z</time>
      </trkpt>
      <trkpt lat="41.639912360" lon="2.481899190">
        <ele>470.22</ele>
        <time>2016-02-21T08:34:10Z</time>
      </trkpt>
      <trkpt lat="41.639817400" lon="2.482058530">
        <ele>469.26</ele>
        <time>2016-02-21T08:34:15Z</time>
      </trkpt>
      <trkpt lat="41.639635930" lon="2.482313250">
        <ele>467.82</ele>
        <time>2016-02-21T08:34:21Z</time>
      </trkpt>
      <trkpt lat="41.639475580" lon="2.482469830">
        <ele>467.82</ele>
        <time>2016-02-21T08:34:25Z</time>
      </trkpt>
      <trkpt lat="41.639331830" lon="2.482573090">
        <ele>467.34</ele>
        <time>2016-02-21T08:34:29Z</time>
      </trkpt>
      <trkpt lat="41.639163610" lon="2.482627740">
        <ele>467.34</ele>
        <time>2016-02-21T08:34:37Z</time>
      </trkpt>
      <trkpt lat="41.639087920" lon="2.482684490">
        <ele>468.78</ele>
        <time>2016-02-21T08:34:43Z</time>
      </trkpt>
      <trkpt lat="41.638940400" lon="2.482622460">
        <ele>469.74</ele>
        <time>2016-02-21T08:34:52Z</time>
      </trkpt>
      <trkpt lat="41.638863030" lon="2.482480140">
        <ele>471.66</ele>
        <time>2016-02-21T08:35:00Z</time>
      </trkpt>
      <trkpt lat="41.638817940" lon="2.482309480">
        <ele>473.11</ele>
        <time>2016-02-21T08:35:07Z</time>
      </trkpt>
      <trkpt lat="41.638713250" lon="2.482214260">
        <ele>474.55</ele>
        <time>2016-02-21T08:35:14Z</time>
      </trkpt>
      <trkpt lat="41.638587440" lon="2.482245110">
        <ele>476.95</ele>
        <time>2016-02-21T08:35:21Z</time>
      </trkpt>
      <trkpt lat="41.638490460" lon="2.482337480">
        <ele>478.39</ele>
        <time>2016-02-21T08:35:29Z</time>
      </trkpt>
      <trkpt lat="41.638415020" lon="2.482435800">
        <ele>479.84</ele>
        <time>2016-02-21T08:35:36Z</time>
      </trkpt>
      <trkpt lat="41.638293480" lon="2.482593460">
        <ele>480.80</ele>
        <time>2016-02-21T08:35:46Z</time>
      </trkpt>
      <trkpt lat="41.638176050" lon="2.482710130">
        <ele>482.72</ele>
        <time>2016-02-21T08:35:55Z</time>
      </trkpt>
      <trkpt lat="41.638083350" lon="2.482825300">
        <ele>484.16</ele>
        <time>2016-02-21T08:36:03Z</time>
      </trkpt>
      <trkpt lat="41.638044210" lon="2.482893870">
        <ele>485.12</ele>
        <time>2016-02-21T08:36:07Z</time>
      </trkpt>
      <trkpt lat="41.638022080" lon="2.483104590">
        <ele>487.53</ele>
        <time>2016-02-21T08:36:17Z</time>
      </trkpt>
      <trkpt lat="41.638015880" lon="2.483267110">
        <ele>489.45</ele>
        <time>2016-02-21T08:36:26Z</time>
      </trkpt>
      <trkpt lat="41.638019140" lon="2.483380100">
        <ele>490.89</ele>
        <time>2016-02-21T08:36:32Z</time>
      </trkpt>
      <trkpt lat="41.638013360" lon="2.483469120">
        <ele>491.85</ele>
        <time>2016-02-21T08:36:37Z</time>
      </trkpt>
      <trkpt lat="41.638025600" lon="2.483542960">
        <ele>492.33</ele>
        <time>2016-02-21T08:36:41Z</time>
      </trkpt>
      <trkpt lat="41.638033640" lon="2.483765750">
        <ele>493.77</ele>
        <time>2016-02-21T08:36:52Z</time>
      </trkpt>
      <trkpt lat="41.638032220" lon="2.483785870">
        <ele>494.26</ele>
        <time>2016-02-21T08:36:53Z</time>
      </trkpt>
      <trkpt lat="41.638020490" lon="2.483879660">
        <ele>494.26</ele>
        <time>2016-02-21T08:36:58Z</time>
      </trkpt>
      <trkpt lat="41.637929960" lon="2.484082250">
        <ele>495.22</ele>
        <time>2016-02-21T08:37:08Z</time>
      </trkpt>
      <trkpt lat="41.637906320" lon="2.484234720">
        <ele>496.18</ele>
        <time>2016-02-21T08:37:15Z</time>
      </trkpt>
      <trkpt lat="41.637881430" lon="2.484424400">
        <ele>496.66</ele>
        <time>2016-02-21T08:37:24Z</time>
      </trkpt>
      <trkpt lat="41.637870700" lon="2.484618530">
        <ele>498.58</ele>
        <time>2016-02-21T08:37:33Z</time>
      </trkpt>
      <trkpt lat="41.637791070" lon="2.484779290">
        <ele>500.02</ele>
        <time>2016-02-21T08:37:42Z</time>
      </trkpt>
      <trkpt lat="41.637726870" lon="2.484911810">
        <ele>501.46</ele>
        <time>2016-02-21T08:37:50Z</time>
      </trkpt>
      <trkpt lat="41.637735170" lon="2.485112640">
        <ele>501.95</ele>
        <time>2016-02-21T08:37:58Z</time>
      </trkpt>
      <trkpt lat="41.637783030" lon="2.485346080">
        <ele>502.43</ele>
        <time>2016-02-21T08:38:06Z</time>
      </trkpt>
      <trkpt lat="41.637766680" lon="2.485686210">
        <ele>502.43</ele>
        <time>2016-02-21T08:38:13Z</time>
      </trkpt>
      <trkpt lat="41.637723180" lon="2.486127690">
        <ele>500.98</ele>
        <time>2016-02-21T08:38:21Z</time>
      </trkpt>
      <trkpt lat="41.637714130" lon="2.486378470">
        <ele>500.50</ele>
        <time>2016-02-21T08:38:25Z</time>
      </trkpt>
      <trkpt lat="41.637750920" lon="2.486742840">
        <ele>500.50</ele>
        <time>2016-02-21T08:38:31Z</time>
      </trkpt>
      <trkpt lat="41.637694600" lon="2.487079870">
        <ele>500.50</ele>
        <time>2016-02-21T08:38:37Z</time>
      </trkpt>
      <trkpt lat="41.637534590" lon="2.487148690">
        <ele>501.95</ele>
        <time>2016-02-21T08:38:42Z</time>
      </trkpt>
      <trkpt lat="41.637286650" lon="2.487114660">
        <ele>503.87</ele>
        <time>2016-02-21T08:38:51Z</time>
      </trkpt>
      <trkpt lat="41.637085650" lon="2.487168050">
        <ele>503.87</ele>
        <time>2016-02-21T08:38:58Z</time>
      </trkpt>
      <trkpt lat="41.636980370" lon="2.487201240">
        <ele>503.87</ele>
        <time>2016-02-21T08:39:01Z</time>
      </trkpt>
      <trkpt lat="41.636852300" lon="2.487210040">
        <ele>502.43</ele>
        <time>2016-02-21T08:39:04Z</time>
      </trkpt>
      <trkpt lat="41.636813990" lon="2.487208870">
        <ele>502.43</ele>
        <time>2016-02-21T08:39:05Z</time>
      </trkpt>
      <trkpt lat="41.636585920" lon="2.487198060">
        <ele>502.43</ele>
        <time>2016-02-21T08:39:12Z</time>
      </trkpt>
      <trkpt lat="41.636361870" lon="2.487136620">
        <ele>504.35</ele>
        <time>2016-02-21T08:39:20Z</time>
      </trkpt>
      <trkpt lat="41.636042020" lon="2.487069650">
        <ele>504.83</ele>
        <time>2016-02-21T08:39:31Z</time>
      </trkpt>
      <trkpt lat="41.635821910" lon="2.487002840">
        <ele>504.83</ele>
        <time>2016-02-21T08:39:38Z</time>
      </trkpt>
      <trkpt lat="41.635643210" lon="2.486874770">
        <ele>505.31</ele>
        <time>2016-02-21T08:39:45Z</time>
      </trkpt>
      <trkpt lat="41.635540360" lon="2.486907120">
        <ele>505.31</ele>
        <time>2016-02-21T08:39:49Z</time>
      </trkpt>
      <trkpt lat="41.635281780" lon="2.487098060">
        <ele>505.79</ele>
        <time>2016-02-21T08:39:58Z</time>
      </trkpt>
      <trkpt lat="41.635129730" lon="2.487111810">
        <ele>507.23</ele>
        <time>2016-02-21T08:40:04Z</time>
      </trkpt>
      <trkpt lat="41.634946250" lon="2.487104350">
        <ele>508.19</ele>
        <time>2016-02-21T08:40:11Z</time>
      </trkpt>
      <trkpt lat="41.634756150" lon="2.487110630">
        <ele>508.67</ele>
        <time>2016-02-21T08:40:19Z</time>
      </trkpt>
      <trkpt lat="41.634603850" lon="2.487068220">
        <ele>509.16</ele>
        <time>2016-02-21T08:40:25Z</time>
      </trkpt>
      <trkpt lat="41.634513500" lon="2.487193360">
        <ele>509.16</ele>
        <time>2016-02-21T08:40:30Z</time>
      </trkpt>
      <trkpt lat="41.634522380" lon="2.487272570">
        <ele>509.16</ele>
        <time>2016-02-21T08:40:32Z</time>
      </trkpt>
      <trkpt lat="41.634509140" lon="2.487470640">
        <ele>509.64</ele>
        <time>2016-02-21T08:40:39Z</time>
      </trkpt>
      <trkpt lat="41.634469660" lon="2.487570300">
        <ele>510.60</ele>
        <time>2016-02-21T08:40:45Z</time>
      </trkpt>
      <trkpt lat="41.634435130" lon="2.487673560">
        <ele>512.52</ele>
        <time>2016-02-21T08:40:52Z</time>
      </trkpt>
      <trkpt lat="41.634393720" lon="2.487798540">
        <ele>515.40</ele>
        <time>2016-02-21T08:41:01Z</time>
      </trkpt>
      <trkpt lat="41.634347120" lon="2.487934830">
        <ele>516.37</ele>
        <time>2016-02-21T08:41:10Z</time>
      </trkpt>
      <trkpt lat="41.634301690" lon="2.488006990">
        <ele>517.81</ele>
        <time>2016-02-21T08:41:17Z</time>
      </trkpt>
      <trkpt lat="41.634234630" lon="2.488084020">
        <ele>518.77</ele>
        <time>2016-02-21T08:41:25Z</time>
      </trkpt>
      <trkpt lat="41.634137070" lon="2.488149400">
        <ele>519.73</ele>
        <time>2016-02-21T08:41:33Z</time>
      </trkpt>
      <trkpt lat="41.634060620" lon="2.488198350">
        <ele>521.17</ele>
        <time>2016-02-21T08:41:40Z</time>
      </trkpt>
      <trkpt lat="41.633995240" lon="2.488282010">
        <ele>521.65</ele>
        <time>2016-02-21T08:41:49Z</time>
      </trkpt>
      <trkpt lat="41.633950740" lon="2.488386360">
        <ele>522.61</ele>
        <time>2016-02-21T08:41:56Z</time>
      </trkpt>
      <trkpt lat="41.633924420" lon="2.488446040">
        <ele>523.09</ele>
        <time>2016-02-21T08:42:01Z</time>
      </trkpt>
      <trkpt lat="41.633903880" lon="2.488495910">
        <ele>524.06</ele>
        <time>2016-02-21T08:42:05Z</time>
      </trkpt>
      <trkpt lat="41.633863310" lon="2.488657010">
        <ele>525.02</ele>
        <time>2016-02-21T08:42:13Z</time>
      </trkpt>
      <trkpt lat="41.633783270" lon="2.488794310">
        <ele>525.50</ele>
        <time>2016-02-21T08:42:21Z</time>
      </trkpt>
      <trkpt lat="41.633663490" lon="2.488869830">
        <ele>527.42</ele>
        <time>2016-02-21T08:42:30Z</time>
      </trkpt>
      <trkpt lat="41.633615630" lon="2.489046940">
        <ele>527.42</ele>
        <time>2016-02-21T08:42:37Z</time>
      </trkpt>
      <trkpt lat="41.633602800" lon="2.489301080">
        <ele>527.42</ele>
        <time>2016-02-21T08:42:44Z</time>
      </trkpt>
      <trkpt lat="41.633638590" lon="2.489508530">
        <ele>527.42</ele>
        <time>2016-02-21T08:42:48Z</time>
      </trkpt>
      <trkpt lat="41.633519820" lon="2.489665440">
        <ele>524.06</ele>
        <time>2016-02-21T08:42:52Z</time>
      </trkpt>
      <trkpt lat="41.633408180" lon="2.489656720">
        <ele>522.61</ele>
        <time>2016-02-21T08:42:54Z</time>
      </trkpt>
      <trkpt lat="41.633227290" lon="2.489638700">
        <ele>518.29</ele>
        <time>2016-02-21T08:42:58Z</time>
      </trkpt>
      <trkpt lat="41.633111040" lon="2.489605840">
        <ele>516.37</ele>
        <time>2016-02-21T08:43:01Z</time>
      </trkpt>
      <trkpt lat="41.633032920" lon="2.489572990">
        <ele>515.40</ele>
        <time>2016-02-21T08:43:03Z</time>
      </trkpt>
      <trkpt lat="41.632933170" lon="2.489547090">
        <ele>513.96</ele>
        <time>2016-02-21T08:43:05Z</time>
      </trkpt>
      <trkpt lat="41.632771070" lon="2.489508450">
        <ele>510.12</ele>
        <time>2016-02-21T08:43:10Z</time>
      </trkpt>
      <trkpt lat="41.632743990" lon="2.489514230">
        <ele>509.16</ele>
        <time>2016-02-21T08:43:11Z</time>
      </trkpt>
      <trkpt lat="41.632638380" lon="2.489725870">
        <ele>504.83</ele>
        <time>2016-02-21T08:43:17Z</time>
      </trkpt>
      <trkpt lat="41.632626140" lon="2.489964670">
        <ele>502.43</ele>
        <time>2016-02-21T08:43:22Z</time>
      </trkpt>
      <trkpt lat="41.632608710" lon="2.490221910">
        <ele>498.10</ele>
        <time>2016-02-21T08:43:27Z</time>
      </trkpt>
      <trkpt lat="41.632560090" lon="2.490292570">
        <ele>497.14</ele>
        <time>2016-02-21T08:43:29Z</time>
      </trkpt>
      <trkpt lat="41.632450210" lon="2.490237670">
        <ele>495.70</ele>
        <time>2016-02-21T08:43:33Z</time>
      </trkpt>
      <trkpt lat="41.632428410" lon="2.490207830">
        <ele>495.70</ele>
        <time>2016-02-21T08:43:34Z</time>
      </trkpt>
      <trkpt lat="41.632351640" lon="2.489945480">
        <ele>495.22</ele>
        <time>2016-02-21T08:43:40Z</time>
      </trkpt>
      <trkpt lat="41.632344340" lon="2.489893090">
        <ele>494.74</ele>
        <time>2016-02-21T08:43:41Z</time>
      </trkpt>
      <trkpt lat="41.632237560" lon="2.489774910">
        <ele>495.22</ele>
        <time>2016-02-21T08:43:46Z</time>
      </trkpt>
      <trkpt lat="41.632154070" lon="2.489855870">
        <ele>496.66</ele>
        <time>2016-02-21T08:43:52Z</time>
      </trkpt>
      <trkpt lat="41.632142170" lon="2.489877160">
        <ele>496.66</ele>
        <time>2016-02-21T08:43:53Z</time>
      </trkpt>
      <trkpt lat="41.632077460" lon="2.489976660">
        <ele>496.66</ele>
        <time>2016-02-21T08:43:56Z</time>
      </trkpt>
      <trkpt lat="41.631898930" lon="2.490054950">
        <ele>493.29</ele>
        <time>2016-02-21T08:44:00Z</time>
      </trkpt>
      <trkpt lat="41.631836820" lon="2.490074890">
        <ele>492.33</ele>
        <time>2016-02-21T08:44:01Z</time>
      </trkpt>
      <trkpt lat="41.631693410" lon="2.490099290">
        <ele>490.41</ele>
        <time>2016-02-21T08:44:03Z</time>
      </trkpt>
      <trkpt lat="41.631510340" lon="2.490105990">
        <ele>488.97</ele>
        <time>2016-02-21T08:44:06Z</time>
      </trkpt>
      <trkpt lat="41.631333240" lon="2.490164660">
        <ele>487.05</ele>
        <time>2016-02-21T08:44:10Z</time>
      </trkpt>
      <trkpt lat="41.631217310" lon="2.490125100">
        <ele>485.60</ele>
        <time>2016-02-21T08:44:13Z</time>
      </trkpt>
      <trkpt lat="41.631033000" lon="2.489962660">
        <ele>482.72</ele>
        <time>2016-02-21T08:44:18Z</time>
      </trkpt>
      <trkpt lat="41.630893690" lon="2.489978420">
        <ele>482.24</ele>
        <time>2016-02-21T08:44:22Z</time>
      </trkpt>
      <trkpt lat="41.630764610" lon="2.490181430">
        <ele>482.24</ele>
        <time>2016-02-21T08:44:29Z</time>
      </trkpt>
      <trkpt lat="41.630734600" lon="2.490316130">
        <ele>482.24</ele>
        <time>2016-02-21T08:44:32Z</time>
      </trkpt>
      <trkpt lat="41.630538800" lon="2.490424920">
        <ele>481.76</ele>
        <time>2016-02-21T08:44:38Z</time>
      </trkpt>
      <trkpt lat="41.630447440" lon="2.490564230">
        <ele>481.28</ele>
        <time>2016-02-21T08:44:42Z</time>
      </trkpt>
      <trkpt lat="41.630405780" lon="2.490901850">
        <ele>478.87</ele>
        <time>2016-02-21T08:44:47Z</time>
      </trkpt>
      <trkpt lat="41.630340990" lon="2.491029340">
        <ele>477.91</ele>
        <time>2016-02-21T08:44:49Z</time>
      </trkpt>
      <trkpt lat="41.630252720" lon="2.491147690">
        <ele>476.95</ele>
        <time>2016-02-21T08:44:51Z</time>
      </trkpt>
      <trkpt lat="41.630037230" lon="2.491254480">
        <ele>476.95</ele>
        <time>2016-02-21T08:44:55Z</time>
      </trkpt>
      <trkpt lat="41.629874030" lon="2.491215080">
        <ele>476.95</ele>
        <time>2016-02-21T08:45:00Z</time>
      </trkpt>
      <trkpt lat="41.629728690" lon="2.490984080">
        <ele>476.95</ele>
        <time>2016-02-21T08:45:08Z</time>
      </trkpt>
      <trkpt lat="41.629684850" lon="2.490934710">
        <ele>477.91</ele>
        <time>2016-02-21T08:45:10Z</time>
      </trkpt>
      <trkpt lat="41.629520560" lon="2.490782410">
        <ele>478.87</ele>
        <time>2016-02-21T08:45:18Z</time>
      </trkpt>
      <trkpt lat="41.629321750" lon="2.490724990">
        <ele>478.87</ele>
        <time>2016-02-21T08:45:25Z</time>
      </trkpt>
      <trkpt lat="41.629210270" lon="2.490728180">
        <ele>478.87</ele>
        <time>2016-02-21T08:45:29Z</time>
      </trkpt>
      <trkpt lat="41.629157040" lon="2.490585440">
        <ele>478.87</ele>
        <time>2016-02-21T08:45:35Z</time>
      </trkpt>
      <trkpt lat="41.629157130" lon="2.490541770">
        <ele>478.87</ele>
        <time>2016-02-21T08:45:36Z</time>
      </trkpt>
      <trkpt lat="41.629159220" lon="2.490284780">
        <ele>475.51</ele>
        <time>2016-02-21T08:45:41Z</time>
      </trkpt>
      <trkpt lat="41.629166760" lon="2.490148400">
        <ele>474.07</ele>
        <time>2016-02-21T08:45:44Z</time>
      </trkpt>
      <trkpt lat="41.629160390" lon="2.490051930">
        <ele>472.63</ele>
        <time>2016-02-21T08:45:46Z</time>
      </trkpt>
      <trkpt lat="41.629080350" lon="2.489879260">
        <ele>469.26</ele>
        <time>2016-02-21T08:45:52Z</time>
      </trkpt>
      <trkpt lat="41.629008930" lon="2.489800550">
        <ele>467.34</ele>
        <time>2016-02-21T08:45:55Z</time>
      </trkpt>
      <trkpt lat="41.628891170" lon="2.489746070">
        <ele>464.45</ele>
        <time>2016-02-21T08:45:59Z</time>
      </trkpt>
      <trkpt lat="41.628864010" lon="2.489738700">
        <ele>464.45</ele>
        <time>2016-02-21T08:46:00Z</time>
      </trkpt>
      <trkpt lat="41.628768710" lon="2.489623280">
        <ele>462.53</ele>
        <time>2016-02-21T08:46:06Z</time>
      </trkpt>
      <trkpt lat="41.628673910" lon="2.489463180">
        <ele>460.61</ele>
        <time>2016-02-21T08:46:11Z</time>
      </trkpt>
      <trkpt lat="41.628654380" lon="2.489325720">
        <ele>462.53</ele>
        <time>2016-02-21T08:46:16Z</time>
      </trkpt>
      <trkpt lat="41.628700140" lon="2.489108040">
        <ele>462.53</ele>
        <time>2016-02-21T08:46:23Z</time>
      </trkpt>
      <trkpt lat="41.628731410" lon="2.488965470">
        <ele>461.09</ele>
        <time>2016-02-21T08:46:26Z</time>
      </trkpt>
      <trkpt lat="41.628643150" lon="2.488845270">
        <ele>459.65</ele>
        <time>2016-02-21T08:46:30Z</time>
      </trkpt>
      <trkpt lat="41.628575000" lon="2.488809060">
        <ele>459.17</ele>
        <time>2016-02-21T08:46:32Z</time>
      </trkpt>
      <trkpt lat="41.628387160" lon="2.488595240">
        <ele>456.28</ele>
        <time>2016-02-21T08:46:39Z</time>
      </trkpt>
      <trkpt lat="41.628400240" lon="2.488453410">
        <ele>454.84</ele>
        <time>2016-02-21T08:46:42Z</time>
      </trkpt>
      <trkpt lat="41.628320280" lon="2.488208240">
        <ele>453.88</ele>
        <time>2016-02-21T08:46:48Z</time>
      </trkpt>
      <trkpt lat="41.628120540" lon="2.488142700">
        <ele>453.88</ele>
        <time>2016-02-21T08:46:54Z</time>
      </trkpt>
      <trkpt lat="41.628031440" lon="2.487960140">
        <ele>452.44</ele>
        <time>2016-02-21T08:46:58Z</time>
      </trkpt>
      <trkpt lat="41.627943430" lon="2.487768780">
        <ele>451.96</ele>
        <time>2016-02-21T08:47:02Z</time>
      </trkpt>
      <trkpt lat="41.627847370" lon="2.487791160">
        <ele>451.96</ele>
        <time>2016-02-21T08:47:06Z</time>
      </trkpt>
      <trkpt lat="41.627720220" lon="2.488073380">
        <ele>451.96</ele>
        <time>2016-02-21T08:47:14Z</time>
      </trkpt>
      <trkpt lat="41.627695320" lon="2.488163820">
        <ele>451.96</ele>
        <time>2016-02-21T08:47:16Z</time>
      </trkpt>
      <trkpt lat="41.627614770" lon="2.488505630">
        <ele>450.03</ele>
        <time>2016-02-21T08:47:21Z</time>
      </trkpt>
      <trkpt lat="41.627522150" lon="2.488753650">
        <ele>448.11</ele>
        <time>2016-02-21T08:47:24Z</time>
      </trkpt>
      <trkpt lat="41.627312270" lon="2.489006540">
        <ele>447.15</ele>
        <time>2016-02-21T08:47:29Z</time>
      </trkpt>
      <trkpt lat="41.627150160" lon="2.489205190">
        <ele>446.67</ele>
        <time>2016-02-21T08:47:34Z</time>
      </trkpt>
      <trkpt lat="41.627167680" lon="2.489339720">
        <ele>446.67</ele>
        <time>2016-02-21T08:47:36Z</time>
      </trkpt>
      <trkpt lat="41.627240020" lon="2.489669290">
        <ele>448.11</ele>
        <time>2016-02-21T08:47:43Z</time>
      </trkpt>
      <trkpt lat="41.627222500" lon="2.489904240">
        <ele>448.11</ele>
        <time>2016-02-21T08:47:48Z</time>
      </trkpt>
      <trkpt lat="41.627124680" lon="2.489937850">
        <ele>449.07</ele>
        <time>2016-02-21T08:47:52Z</time>
      </trkpt>
      <trkpt lat="41.627104820" lon="2.489908180">
        <ele>449.55</ele>
        <time>2016-02-21T08:47:53Z</time>
      </trkpt>
      <trkpt lat="41.626995680" lon="2.489724030">
        <ele>450.03</ele>
        <time>2016-02-21T08:47:59Z</time>
      </trkpt>
      <trkpt lat="41.626967100" lon="2.489719170">
        <ele>450.03</ele>
        <time>2016-02-21T08:48:00Z</time>
      </trkpt>
      <trkpt lat="41.626879260" lon="2.489833750">
        <ele>451.48</ele>
        <time>2016-02-21T08:48:05Z</time>
      </trkpt>
      <trkpt lat="41.626856960" lon="2.490076320">
        <ele>451.48</ele>
        <time>2016-02-21T08:48:10Z</time>
      </trkpt>
      <trkpt lat="41.626840200" lon="2.490148240">
        <ele>449.55</ele>
        <time>2016-02-21T08:48:11Z</time>
      </trkpt>
      <trkpt lat="41.626825450" lon="2.490517880">
        <ele>448.59</ele>
        <time>2016-02-21T08:48:17Z</time>
      </trkpt>
      <trkpt lat="41.626736350" lon="2.490616870">
        <ele>450.03</ele>
        <time>2016-02-21T08:48:21Z</time>
      </trkpt>
      <trkpt lat="41.626713300" lon="2.490622320">
        <ele>450.03</ele>
        <time>2016-02-21T08:48:22Z</time>
      </trkpt>
      <trkpt lat="41.626524700" lon="2.490611250">
        <ele>451.48</ele>
        <time>2016-02-21T08:48:29Z</time>
      </trkpt>
      <trkpt lat="41.626362520" lon="2.490649560">
        <ele>452.92</ele>
        <time>2016-02-21T08:48:36Z</time>
      </trkpt>
      <trkpt lat="41.626238380" lon="2.490762550">
        <ele>454.36</ele>
        <time>2016-02-21T08:48:43Z</time>
      </trkpt>
      <trkpt lat="41.626262350" lon="2.490921970">
        <ele>454.36</ele>
        <time>2016-02-21T08:48:48Z</time>
      </trkpt>
      <trkpt lat="41.626396800" lon="2.491023140">
        <ele>452.92</ele>
        <time>2016-02-21T08:48:52Z</time>
      </trkpt>
      <trkpt lat="41.626569800" lon="2.491338970">
        <ele>448.59</ele>
        <time>2016-02-21T08:48:58Z</time>
      </trkpt>
      <trkpt lat="41.626596290" lon="2.491527810">
        <ele>447.15</ele>
        <time>2016-02-21T08:49:01Z</time>
      </trkpt>
      <trkpt lat="41.626504250" lon="2.491649270">
        <ele>446.19</ele>
        <time>2016-02-21T08:49:04Z</time>
      </trkpt>
      <trkpt lat="41.626340970" lon="2.491768210">
        <ele>444.75</ele>
        <time>2016-02-21T08:49:08Z</time>
      </trkpt>
      <trkpt lat="41.626229830" lon="2.492049500">
        <ele>444.27</ele>
        <time>2016-02-21T08:49:13Z</time>
      </trkpt>
      <trkpt lat="41.626128320" lon="2.492322750">
        <ele>442.82</ele>
        <time>2016-02-21T08:49:17Z</time>
      </trkpt>
      <trkpt lat="41.625901680" lon="2.492440270">
        <ele>441.86</ele>
        <time>2016-02-21T08:49:22Z</time>
      </trkpt>
      <trkpt lat="41.625824230" lon="2.492600030">
        <ele>441.38</ele>
        <time>2016-02-21T08:49:25Z</time>
      </trkpt>
      <trkpt lat="41.625842080" lon="2.492717040">
        <ele>441.38</ele>
        <time>2016-02-21T08:49:27Z</time>
      </trkpt>
      <trkpt lat="41.625863880" lon="2.492847630">
        <ele>441.38</ele>
        <time>2016-02-21T08:49:30Z</time>
      </trkpt>
      <trkpt lat="41.625822300" lon="2.492985010">
        <ele>442.34</ele>
        <time>2016-02-21T08:49:34Z</time>
      </trkpt>
      <trkpt lat="41.625771000" lon="2.493102020">
        <ele>442.82</ele>
        <time>2016-02-21T08:49:37Z</time>
      </trkpt>
      <trkpt lat="41.625829680" lon="2.493301260">
        <ele>441.86</ele>
        <time>2016-02-21T08:49:41Z</time>
      </trkpt>
      <trkpt lat="41.625943080" lon="2.493377360">
        <ele>440.90</ele>
        <time>2016-02-21T08:49:44Z</time>
      </trkpt>
      <trkpt lat="41.626043670" lon="2.493431340">
        <ele>440.42</ele>
        <time>2016-02-21T08:49:46Z</time>
      </trkpt>
      <trkpt lat="41.626313820" lon="2.493359340">
        <ele>438.98</ele>
        <time>2016-02-21T08:49:51Z</time>
      </trkpt>
      <trkpt lat="41.626436360" lon="2.493295890">
        <ele>438.50</ele>
        <time>2016-02-21T08:49:53Z</time>
      </trkpt>
      <trkpt lat="41.626629390" lon="2.493214840">
        <ele>435.61</ele>
        <time>2016-02-21T08:49:56Z</time>
      </trkpt>
      <trkpt lat="41.626953020" lon="2.493289270">
        <ele>435.13</ele>
        <time>2016-02-21T08:50:01Z</time>
      </trkpt>
      <trkpt lat="41.627031640" lon="2.493490180">
        <ele>434.17</ele>
        <time>2016-02-21T08:50:04Z</time>
      </trkpt>
      <trkpt lat="41.627019990" lon="2.493646590">
        <ele>434.65</ele>
        <time>2016-02-21T08:50:06Z</time>
      </trkpt>
      <trkpt lat="41.626769790" lon="2.494118990">
        <ele>432.25</ele>
        <time>2016-02-21T08:50:13Z</time>
      </trkpt>
      <trkpt lat="41.626755210" lon="2.494349500">
        <ele>431.29</ele>
        <time>2016-02-21T08:50:16Z</time>
      </trkpt>
      <trkpt lat="41.626750760" lon="2.494648560">
        <ele>431.29</ele>
        <time>2016-02-21T08:50:20Z</time>
      </trkpt>
      <trkpt lat="41.626695860" lon="2.494751740">
        <ele>431.29</ele>
        <time>2016-02-21T08:50:22Z</time>
      </trkpt>
      <trkpt lat="41.626505590" lon="2.495094900">
        <ele>430.81</ele>
        <time>2016-02-21T08:50:30Z</time>
      </trkpt>
      <trkpt lat="41.626442900" lon="2.495208060">
        <ele>431.77</ele>
        <time>2016-02-21T08:50:33Z</time>
      </trkpt>
      <trkpt lat="41.626298900" lon="2.495424560">
        <ele>431.77</ele>
        <time>2016-02-21T08:50:38Z</time>
      </trkpt>
      <trkpt lat="41.626261180" lon="2.495522960">
        <ele>431.77</ele>
        <time>2016-02-21T08:50:40Z</time>
      </trkpt>
      <trkpt lat="41.626282720" lon="2.495778700">
        <ele>430.81</ele>
        <time>2016-02-21T08:50:44Z</time>
      </trkpt>
      <trkpt lat="41.626384310" lon="2.495846590">
        <ele>430.81</ele>
        <time>2016-02-21T08:50:47Z</time>
      </trkpt>
      <trkpt lat="41.626557810" lon="2.495860250">
        <ele>431.77</ele>
        <time>2016-02-21T08:50:52Z</time>
      </trkpt>
      <trkpt lat="41.626767950" lon="2.496065110">
        <ele>430.33</ele>
        <time>2016-02-21T08:50:58Z</time>
      </trkpt>
      <trkpt lat="41.626776410" lon="2.496251180">
        <ele>429.85</ele>
        <time>2016-02-21T08:51:01Z</time>
      </trkpt>
      <trkpt lat="41.626742050" lon="2.496381100">
        <ele>429.85</ele>
        <time>2016-02-21T08:51:03Z</time>
      </trkpt>
      <trkpt lat="41.626597960" lon="2.496753760">
        <ele>429.37</ele>
        <time>2016-02-21T08:51:10Z</time>
      </trkpt>
      <trkpt lat="41.626546080" lon="2.496843620">
        <ele>429.37</ele>
        <time>2016-02-21T08:51:12Z</time>
      </trkpt>
      <trkpt lat="41.626527390" lon="2.497096410">
        <ele>428.40</ele>
        <time>2016-02-21T08:51:16Z</time>
      </trkpt>
      <trkpt lat="41.626549350" lon="2.497165730">
        <ele>427.44</ele>
        <time>2016-02-21T08:51:17Z</time>
      </trkpt>
      <trkpt lat="41.626540460" lon="2.497462200">
        <ele>426.96</ele>
        <time>2016-02-21T08:51:22Z</time>
      </trkpt>
      <trkpt lat="41.626586140" lon="2.497661860">
        <ele>426.48</ele>
        <time>2016-02-21T08:51:26Z</time>
      </trkpt>
      <trkpt lat="41.626812120" lon="2.497931000">
        <ele>426.48</ele>
        <time>2016-02-21T08:51:34Z</time>
      </trkpt>
      <trkpt lat="41.626841210" lon="2.497966040">
        <ele>426.48</ele>
        <time>2016-02-21T08:51:35Z</time>
      </trkpt>
      <trkpt lat="41.626989820" lon="2.498078940">
        <ele>426.48</ele>
        <time>2016-02-21T08:51:39Z</time>
      </trkpt>
      <trkpt lat="41.627066180" lon="2.498111210">
        <ele>426.48</ele>
        <time>2016-02-21T08:51:41Z</time>
      </trkpt>
      <trkpt lat="41.627279080" lon="2.498301560">
        <ele>426.48</ele>
        <time>2016-02-21T08:51:48Z</time>
      </trkpt>
      <trkpt lat="41.627245970" lon="2.498367950">
        <ele>427.92</ele>
        <time>2016-02-21T08:51:50Z</time>
      </trkpt>
      <trkpt lat="41.627140190" lon="2.498387980">
        <ele>427.92</ele>
        <time>2016-02-21T08:51:53Z</time>
      </trkpt>
      <trkpt lat="41.626992670" lon="2.498355880">
        <ele>428.40</ele>
        <time>2016-02-21T08:51:57Z</time>
      </trkpt>
      <trkpt lat="41.626797700" lon="2.498399630">
        <ele>428.40</ele>
        <time>2016-02-21T08:52:02Z</time>
      </trkpt>
      <trkpt lat="41.626730150" lon="2.498487060">
        <ele>426.96</ele>
        <time>2016-02-21T08:52:04Z</time>
      </trkpt>
      <trkpt lat="41.626621770" lon="2.498623600">
        <ele>425.52</ele>
        <time>2016-02-21T08:52:07Z</time>
      </trkpt>
      <trkpt lat="41.626631910" lon="2.498795090">
        <ele>425.52</ele>
        <time>2016-02-21T08:52:11Z</time>
      </trkpt>
      <trkpt lat="41.626670800" lon="2.498853260">
        <ele>425.52</ele>
        <time>2016-02-21T08:52:13Z</time>
      </trkpt>
      <trkpt lat="41.626779510" lon="2.499110000">
        <ele>426.96</ele>
        <time>2016-02-21T08:52:19Z</time>
      </trkpt>
      <trkpt lat="41.626761580" lon="2.499331370">
        <ele>427.44</ele>
        <time>2016-02-21T08:52:24Z</time>
      </trkpt>
      <trkpt lat="41.626705080" lon="2.499699160">
        <ele>428.40</ele>
        <time>2016-02-21T08:52:32Z</time>
      </trkpt>
      <trkpt lat="41.626703660" lon="2.499744680">
        <ele>428.40</ele>
        <time>2016-02-21T08:52:33Z</time>
      </trkpt>
      <trkpt lat="41.626823270" lon="2.499883820">
        <ele>428.89</ele>
        <time>2016-02-21T08:52:38Z</time>
      </trkpt>
      <trkpt lat="41.626864840" lon="2.499892950">
        <ele>428.89</ele>
        <time>2016-02-21T08:52:39Z</time>
      </trkpt>
      <trkpt lat="41.627127200" lon="2.499930000">
        <ele>428.89</ele>
        <time>2016-02-21T08:52:46Z</time>
      </trkpt>
      <trkpt lat="41.627340010" lon="2.500103340">
        <ele>428.89</ele>
        <time>2016-02-21T08:52:52Z</time>
      </trkpt>
      <trkpt lat="41.627410670" lon="2.500333590">
        <ele>430.33</ele>
        <time>2016-02-21T08:52:57Z</time>
      </trkpt>
      <trkpt lat="41.627371030" lon="2.500511870">
        <ele>431.29</ele>
        <time>2016-02-21T08:53:02Z</time>
      </trkpt>
      <trkpt lat="41.627389720" lon="2.500717060">
        <ele>432.73</ele>
        <time>2016-02-21T08:53:07Z</time>
      </trkpt>
      <trkpt lat="41.627547880" lon="2.500942530">
        <ele>433.69</ele>
        <time>2016-02-21T08:53:14Z</time>
      </trkpt>
      <trkpt lat="41.627684170" lon="2.500986620">
        <ele>434.17</ele>
        <time>2016-02-21T08:53:19Z</time>
      </trkpt>
      <trkpt lat="41.627788780" lon="2.501124760">
        <ele>434.65</ele>
        <time>2016-02-21T08:53:24Z</time>
      </trkpt>
      <trkpt lat="41.627753240" lon="2.501302370">
        <ele>436.10</ele>
        <time>2016-02-21T08:53:29Z</time>
      </trkpt>
      <trkpt lat="41.627716950" lon="2.501528350">
        <ele>437.06</ele>
        <time>2016-02-21T08:53:35Z</time>
      </trkpt>
      <trkpt lat="41.627705210" lon="2.501822630">
        <ele>437.54</ele>
        <time>2016-02-21T08:53:42Z</time>
      </trkpt>
      <trkpt lat="41.627645870" lon="2.502077190">
        <ele>437.54</ele>
        <time>2016-02-21T08:53:48Z</time>
      </trkpt>
      <trkpt lat="41.627580240" lon="2.502364190">
        <ele>437.54</ele>
        <time>2016-02-21T08:53:54Z</time>
      </trkpt>
      <trkpt lat="41.627550060" lon="2.502465860">
        <ele>438.02</ele>
        <time>2016-02-21T08:53:56Z</time>
      </trkpt>
      <trkpt lat="41.627382430" lon="2.502487070">
        <ele>436.58</ele>
        <time>2016-02-21T08:54:00Z</time>
      </trkpt>
      <trkpt lat="41.627172880" lon="2.502439040">
        <ele>436.58</ele>
        <time>2016-02-21T08:54:07Z</time>
      </trkpt>
      <trkpt lat="41.626967520" lon="2.502392940">
        <ele>437.54</ele>
        <time>2016-02-21T08:54:13Z</time>
      </trkpt>
      <trkpt lat="41.626727460" lon="2.502392600">
        <ele>436.58</ele>
        <time>2016-02-21T08:54:17Z</time>
      </trkpt>
      <trkpt lat="41.626395540" lon="2.502379190">
        <ele>432.25</ele>
        <time>2016-02-21T08:54:21Z</time>
      </trkpt>
      <trkpt lat="41.626237620" lon="2.502411380">
        <ele>431.29</ele>
        <time>2016-02-21T08:54:23Z</time>
      </trkpt>
      <trkpt lat="41.626068810" lon="2.502526130">
        <ele>428.40</ele>
        <time>2016-02-21T08:54:26Z</time>
      </trkpt>
      <trkpt lat="41.626071660" lon="2.502741710">
        <ele>427.44</ele>
        <time>2016-02-21T08:54:29Z</time>
      </trkpt>
      <trkpt lat="41.626062780" lon="2.502927370">
        <ele>427.92</ele>
        <time>2016-02-21T08:54:32Z</time>
      </trkpt>
      <trkpt lat="41.625956410" lon="2.503225430">
        <ele>428.89</ele>
        <time>2016-02-21T08:54:39Z</time>
      </trkpt>
      <trkpt lat="41.625857420" lon="2.503395250">
        <ele>429.37</ele>
        <time>2016-02-21T08:54:44Z</time>
      </trkpt>
      <trkpt lat="41.625659860" lon="2.503501780">
        <ele>427.92</ele>
        <time>2016-02-21T08:54:48Z</time>
      </trkpt>
      <trkpt lat="41.625555590" lon="2.503520140">
        <ele>427.44</ele>
        <time>2016-02-21T08:54:50Z</time>
      </trkpt>
      <trkpt lat="41.625505550" lon="2.503521980">
        <ele>427.44</ele>
        <time>2016-02-21T08:54:51Z</time>
      </trkpt>
      <trkpt lat="41.625361550" lon="2.503633540">
        <ele>425.04</ele>
        <time>2016-02-21T08:54:55Z</time>
      </trkpt>
      <trkpt lat="41.625393900" lon="2.503724660">
        <ele>425.04</ele>
        <time>2016-02-21T08:54:57Z</time>
      </trkpt>
      <trkpt lat="41.625462470" lon="2.503900010">
        <ele>424.08</ele>
        <time>2016-02-21T08:55:00Z</time>
      </trkpt>
      <trkpt lat="41.625482830" lon="2.504261520">
        <ele>423.60</ele>
        <time>2016-02-21T08:55:06Z</time>
      </trkpt>
      <trkpt lat="41.625412680" lon="2.504503080">
        <ele>425.04</ele>
        <time>2016-02-21T08:55:12Z</time>
      </trkpt>
      <trkpt lat="41.625386690" lon="2.504540720">
        <ele>425.04</ele>
        <time>2016-02-21T08:55:13Z</time>
      </trkpt>
      <trkpt lat="41.625353080" lon="2.504586570">
        <ele>425.04</ele>
        <time>2016-02-21T08:55:14Z</time>
      </trkpt>
      <trkpt lat="41.625238840" lon="2.504774070">
        <ele>423.12</ele>
        <time>2016-02-21T08:55:17Z</time>
      </trkpt>
      <trkpt lat="41.625020660" lon="2.504967860">
        <ele>421.68</ele>
        <time>2016-02-21T08:55:21Z</time>
      </trkpt>
      <trkpt lat="41.625008670" lon="2.505076070">
        <ele>421.19</ele>
        <time>2016-02-21T08:55:23Z</time>
      </trkpt>
      <trkpt lat="41.625121830" lon="2.505197860">
        <ele>420.71</ele>
        <time>2016-02-21T08:55:27Z</time>
      </trkpt>
      <trkpt lat="41.625184610" lon="2.505357790">
        <ele>419.27</ele>
        <time>2016-02-21T08:55:30Z</time>
      </trkpt>
      <trkpt lat="41.625201540" lon="2.505751150">
        <ele>419.75</ele>
        <time>2016-02-21T08:55:37Z</time>
      </trkpt>
      <trkpt lat="41.625228780" lon="2.505976960">
        <ele>419.75</ele>
        <time>2016-02-21T08:55:41Z</time>
      </trkpt>
      <trkpt lat="41.625253000" lon="2.506231520">
        <ele>417.83</ele>
        <time>2016-02-21T08:55:46Z</time>
      </trkpt>
      <trkpt lat="41.625233470" lon="2.506380880">
        <ele>416.39</ele>
        <time>2016-02-21T08:55:49Z</time>
      </trkpt>
      <trkpt lat="41.625275130" lon="2.506844320">
        <ele>412.54</ele>
        <time>2016-02-21T08:55:55Z</time>
      </trkpt>
      <trkpt lat="41.625346540" lon="2.507217650">
        <ele>409.66</ele>
        <time>2016-02-21T08:56:00Z</time>
      </trkpt>
      <trkpt lat="41.625400190" lon="2.507535740">
        <ele>409.66</ele>
        <time>2016-02-21T08:56:04Z</time>
      </trkpt>
      <trkpt lat="41.625414940" lon="2.507728770">
        <ele>409.18</ele>
        <time>2016-02-21T08:56:07Z</time>
      </trkpt>
      <trkpt lat="41.625437910" lon="2.507820980">
        <ele>408.70</ele>
        <time>2016-02-21T08:56:09Z</time>
      </trkpt>
      <trkpt lat="41.625444950" lon="2.507858690">
        <ele>408.70</ele>
        <time>2016-02-21T08:56:15Z</time>
      </trkpt>
      <trkpt lat="41.625452990" lon="2.507858690">
        <ele>408.70</ele>
        <time>2016-02-21T08:56:25Z</time>
      </trkpt>
      <trkpt lat="41.625456180" lon="2.507863640">
        <ele>408.70</ele>
        <time>2016-02-21T08:56:35Z</time>
      </trkpt>
      <trkpt lat="41.625456010" lon="2.507867910">
        <ele>408.70</ele>
        <time>2016-02-21T08:56:36Z</time>
      </trkpt>
      <trkpt lat="41.625549640" lon="2.507919040">
        <ele>408.70</ele>
        <time>2016-02-21T08:56:42Z</time>
      </trkpt>
      <trkpt lat="41.625701600" lon="2.507914770">
        <ele>410.14</ele>
        <time>2016-02-21T08:56:51Z</time>
      </trkpt>
      <trkpt lat="41.625809560" lon="2.507953070">
        <ele>411.10</ele>
        <time>2016-02-21T08:56:58Z</time>
      </trkpt>
      <trkpt lat="41.625847360" lon="2.507946700">
        <ele>411.10</ele>
        <time>2016-02-21T08:57:00Z</time>
      </trkpt>
      <trkpt lat="41.626039640" lon="2.507936310">
        <ele>412.54</ele>
        <time>2016-02-21T08:57:10Z</time>
      </trkpt>
      <trkpt lat="41.626183650" lon="2.507882420">
        <ele>413.02</ele>
        <time>2016-02-21T08:57:17Z</time>
      </trkpt>
      <trkpt lat="41.626327140" lon="2.507849220">
        <ele>413.98</ele>
        <time>2016-02-21T08:57:24Z</time>
      </trkpt>
      <trkpt lat="41.626456640" lon="2.507828940">
        <ele>415.43</ele>
        <time>2016-02-21T08:57:30Z</time>
      </trkpt>
      <trkpt lat="41.626658730" lon="2.507829190">
        <ele>416.87</ele>
        <time>2016-02-21T08:57:40Z</time>
      </trkpt>
      <trkpt lat="41.626785800" lon="2.507885600">
        <ele>418.31</ele>
        <time>2016-02-21T08:57:46Z</time>
      </trkpt>
      <trkpt lat="41.626828630" lon="2.507943690">
        <ele>418.79</ele>
        <time>2016-02-21T08:57:49Z</time>
      </trkpt>
      <trkpt lat="41.626784800" lon="2.508060360">
        <ele>419.75</ele>
        <time>2016-02-21T08:57:54Z</time>
      </trkpt>
      <trkpt lat="41.626727880" lon="2.508226490">
        <ele>420.71</ele>
        <time>2016-02-21T08:58:01Z</time>
      </trkpt>
      <trkpt lat="41.626692340" lon="2.508369990">
        <ele>420.71</ele>
        <time>2016-02-21T08:58:06Z</time>
      </trkpt>
      <trkpt lat="41.626651770" lon="2.508513660">
        <ele>422.16</ele>
        <time>2016-02-21T08:58:11Z</time>
      </trkpt>
      <trkpt lat="41.626573490" lon="2.508668720">
        <ele>423.12</ele>
        <time>2016-02-21T08:58:18Z</time>
      </trkpt>
      <trkpt lat="41.626478860" lon="2.508830320">
        <ele>424.56</ele>
        <time>2016-02-21T08:58:26Z</time>
      </trkpt>
      <trkpt lat="41.626438370" lon="2.509028390">
        <ele>425.04</ele>
        <time>2016-02-21T08:58:33Z</time>
      </trkpt>
      <trkpt lat="41.626463270" lon="2.509290410">
        <ele>425.52</ele>
        <time>2016-02-21T08:58:40Z</time>
      </trkpt>
      <trkpt lat="41.626482540" lon="2.509558130">
        <ele>426.48</ele>
        <time>2016-02-21T08:58:48Z</time>
      </trkpt>
      <trkpt lat="41.626376850" lon="2.509800870">
        <ele>427.44</ele>
        <time>2016-02-21T08:58:57Z</time>
      </trkpt>
      <trkpt lat="41.626285490" lon="2.509990130">
        <ele>428.40</ele>
        <time>2016-02-21T08:59:04Z</time>
      </trkpt>
      <trkpt lat="41.626183650" lon="2.510296070">
        <ele>429.37</ele>
        <time>2016-02-21T08:59:14Z</time>
      </trkpt>
      <trkpt lat="41.626088340" lon="2.510610390">
        <ele>431.29</ele>
        <time>2016-02-21T08:59:24Z</time>
      </trkpt>
      <trkpt lat="41.626021460" lon="2.510825550">
        <ele>433.69</ele>
        <time>2016-02-21T08:59:32Z</time>
      </trkpt>
      <trkpt lat="41.625960600" lon="2.510985230">
        <ele>433.69</ele>
        <time>2016-02-21T08:59:39Z</time>
      </trkpt>
      <trkpt lat="41.625900000" lon="2.511191090">
        <ele>435.61</ele>
        <time>2016-02-21T08:59:48Z</time>
      </trkpt>
      <trkpt lat="41.625849630" lon="2.511384960">
        <ele>437.54</ele>
        <time>2016-02-21T08:59:57Z</time>
      </trkpt>
      <trkpt lat="41.625853060" lon="2.511592660">
        <ele>438.50</ele>
        <time>2016-02-21T09:00:05Z</time>
      </trkpt>
      <trkpt lat="41.625952390" lon="2.511693250">
        <ele>439.46</ele>
        <time>2016-02-21T09:00:12Z</time>
      </trkpt>
      <trkpt lat="41.626087760" lon="2.511740440">
        <ele>442.34</ele>
        <time>2016-02-21T09:00:22Z</time>
      </trkpt>
      <trkpt lat="41.626098230" lon="2.511747810">
        <ele>442.34</ele>
        <time>2016-02-21T09:00:23Z</time>
      </trkpt>
      <trkpt lat="41.626194120" lon="2.511807410">
        <ele>443.31</ele>
        <time>2016-02-21T09:00:30Z</time>
      </trkpt>
      <trkpt lat="41.626282300" lon="2.512054340">
        <ele>446.19</ele>
        <time>2016-02-21T09:00:43Z</time>
      </trkpt>
      <trkpt lat="41.626317340" lon="2.512176300">
        <ele>447.63</ele>
        <time>2016-02-21T09:00:50Z</time>
      </trkpt>
      <trkpt lat="41.626356310" lon="2.512341920">
        <ele>448.11</ele>
        <time>2016-02-21T09:00:57Z</time>
      </trkpt>
      <trkpt lat="41.626368470" lon="2.512480220">
        <ele>448.59</ele>
        <time>2016-02-21T09:01:03Z</time>
      </trkpt>
      <trkpt lat="41.626377350" lon="2.512665460">
        <ele>449.07</ele>
        <time>2016-02-21T09:01:10Z</time>
      </trkpt>
      <trkpt lat="41.626382380" lon="2.512797140">
        <ele>450.52</ele>
        <time>2016-02-21T09:01:15Z</time>
      </trkpt>
      <trkpt lat="41.626485140" lon="2.512913740">
        <ele>451.96</ele>
        <time>2016-02-21T09:01:23Z</time>
      </trkpt>
      <trkpt lat="41.626627220" lon="2.512905690">
        <ele>452.44</ele>
        <time>2016-02-21T09:01:31Z</time>
      </trkpt>
      <trkpt lat="41.626799300" lon="2.512925470">
        <ele>452.92</ele>
        <time>2016-02-21T09:01:38Z</time>
      </trkpt>
      <trkpt lat="41.627020830" lon="2.513044410">
        <ele>453.88</ele>
        <time>2016-02-21T09:01:47Z</time>
      </trkpt>
      <trkpt lat="41.627167090" lon="2.513315820">
        <ele>455.32</ele>
        <time>2016-02-21T09:01:56Z</time>
      </trkpt>
      <trkpt lat="41.627301790" lon="2.513593420">
        <ele>456.28</ele>
        <time>2016-02-21T09:02:05Z</time>
      </trkpt>
      <trkpt lat="41.627390970" lon="2.513738680">
        <ele>454.84</ele>
        <time>2016-02-21T09:02:08Z</time>
      </trkpt>
      <trkpt lat="41.627438500" lon="2.514042110">
        <ele>453.40</ele>
        <time>2016-02-21T09:02:13Z</time>
      </trkpt>
      <trkpt lat="41.627470020" lon="2.514165150">
        <ele>451.96</ele>
        <time>2016-02-21T09:02:16Z</time>
      </trkpt>
      <trkpt lat="41.627497840" lon="2.514341930">
        <ele>451.00</ele>
        <time>2016-02-21T09:02:19Z</time>
      </trkpt>
      <trkpt lat="41.627492900" lon="2.514539660">
        <ele>450.03</ele>
        <time>2016-02-21T09:02:22Z</time>
      </trkpt>
      <trkpt lat="41.627400700" lon="2.514922120">
        <ele>448.59</ele>
        <time>2016-02-21T09:02:27Z</time>
      </trkpt>
      <trkpt lat="41.627287120" lon="2.515156060">
        <ele>446.67</ele>
        <time>2016-02-21T09:02:30Z</time>
      </trkpt>
      <trkpt lat="41.626983360" lon="2.515552360">
        <ele>442.34</ele>
        <time>2016-02-21T09:02:35Z</time>
      </trkpt>
      <trkpt lat="41.626918070" lon="2.515623940">
        <ele>442.34</ele>
        <time>2016-02-21T09:02:36Z</time>
      </trkpt>
      <trkpt lat="41.626750850" lon="2.516074470">
        <ele>438.02</ele>
        <time>2016-02-21T09:02:41Z</time>
      </trkpt>
      <trkpt lat="41.626673480" lon="2.516509410">
        <ele>435.61</ele>
        <time>2016-02-21T09:02:45Z</time>
      </trkpt>
      <trkpt lat="41.626636690" lon="2.516861030">
        <ele>434.17</ele>
        <time>2016-02-21T09:02:48Z</time>
      </trkpt>
      <trkpt lat="41.626555970" lon="2.517338120">
        <ele>431.29</ele>
        <time>2016-02-21T09:02:52Z</time>
      </trkpt>
      <trkpt lat="41.626536190" lon="2.517559240">
        <ele>430.33</ele>
        <time>2016-02-21T09:02:54Z</time>
      </trkpt>
      <trkpt lat="41.626553620" lon="2.518122250">
        <ele>427.92</ele>
        <time>2016-02-21T09:02:59Z</time>
      </trkpt>
      <trkpt lat="41.626554960" lon="2.518232640">
        <ele>426.96</ele>
        <time>2016-02-21T09:03:00Z</time>
      </trkpt>
      <trkpt lat="41.626544400" lon="2.518520140">
        <ele>426.96</ele>
        <time>2016-02-21T09:03:03Z</time>
      </trkpt>
      <trkpt lat="41.626586980" lon="2.518713680">
        <ele>428.40</ele>
        <time>2016-02-21T09:03:06Z</time>
      </trkpt>
      <trkpt lat="41.626704160" lon="2.519024230">
        <ele>429.37</ele>
        <time>2016-02-21T09:03:13Z</time>
      </trkpt>
      <trkpt lat="41.626735010" lon="2.519297060">
        <ele>427.92</ele>
        <time>2016-02-21T09:03:17Z</time>
      </trkpt>
      <trkpt lat="41.626759060" lon="2.519558410">
        <ele>426.48</ele>
        <time>2016-02-21T09:03:20Z</time>
      </trkpt>
      <trkpt lat="41.626766860" lon="2.519640970">
        <ele>426.00</ele>
        <time>2016-02-21T09:03:21Z</time>
      </trkpt>
      <trkpt lat="41.626707850" lon="2.519969370">
        <ele>425.52</ele>
        <time>2016-02-21T09:03:25Z</time>
      </trkpt>
      <trkpt lat="41.626628560" lon="2.520151840">
        <ele>425.04</ele>
        <time>2016-02-21T09:03:28Z</time>
      </trkpt>
      <trkpt lat="41.626548510" lon="2.520444620">
        <ele>425.04</ele>
        <time>2016-02-21T09:03:34Z</time>
      </trkpt>
      <trkpt lat="41.626493190" lon="2.520560800">
        <ele>426.48</ele>
        <time>2016-02-21T09:03:37Z</time>
      </trkpt>
      <trkpt lat="41.626396800" lon="2.520674370">
        <ele>427.92</ele>
        <time>2016-02-21T09:03:42Z</time>
      </trkpt>
      <trkpt lat="41.626352210" lon="2.520840670">
        <ele>427.92</ele>
        <time>2016-02-21T09:03:46Z</time>
      </trkpt>
      <trkpt lat="41.626298310" lon="2.521207960">
        <ele>426.00</ele>
        <time>2016-02-21T09:03:52Z</time>
      </trkpt>
      <trkpt lat="41.626111230" lon="2.521636870">
        <ele>424.08</ele>
        <time>2016-02-21T09:03:59Z</time>
      </trkpt>
      <trkpt lat="41.626071330" lon="2.521681370">
        <ele>423.60</ele>
        <time>2016-02-21T09:04:00Z</time>
      </trkpt>
      <trkpt lat="41.625945430" lon="2.522007680">
        <ele>419.27</ele>
        <time>2016-02-21T09:04:06Z</time>
      </trkpt>
      <trkpt lat="41.625920710" lon="2.522110780">
        <ele>417.83</ele>
        <time>2016-02-21T09:04:08Z</time>
      </trkpt>
      <trkpt lat="41.625880970" lon="2.522235080">
        <ele>415.91</ele>
        <time>2016-02-21T09:04:10Z</time>
      </trkpt>
      <trkpt lat="41.625855910" lon="2.522543620">
        <ele>413.50</ele>
        <time>2016-02-21T09:04:14Z</time>
      </trkpt>
      <trkpt lat="41.625902010" lon="2.522963970">
        <ele>410.62</ele>
        <time>2016-02-21T09:04:18Z</time>
      </trkpt>
      <trkpt lat="41.625952810" lon="2.523188440">
        <ele>409.18</ele>
        <time>2016-02-21T09:04:20Z</time>
      </trkpt>
      <trkpt lat="41.626006370" lon="2.523366470">
        <ele>406.29</ele>
        <time>2016-02-21T09:04:22Z</time>
      </trkpt>
      <trkpt lat="41.626091610" lon="2.523745500">
        <ele>401.01</ele>
        <time>2016-02-21T09:04:27Z</time>
      </trkpt>
      <trkpt lat="41.626165040" lon="2.524008780">
        <ele>398.60</ele>
        <time>2016-02-21T09:04:30Z</time>
      </trkpt>
      <trkpt lat="41.626262270" lon="2.524279260">
        <ele>394.76</ele>
        <time>2016-02-21T09:04:33Z</time>
      </trkpt>
      <trkpt lat="41.626296300" lon="2.524381440">
        <ele>393.32</ele>
        <time>2016-02-21T09:04:34Z</time>
      </trkpt>
      <trkpt lat="41.626345580" lon="2.524601040">
        <ele>391.87</ele>
        <time>2016-02-21T09:04:36Z</time>
      </trkpt>
      <trkpt lat="41.626429400" lon="2.524961880">
        <ele>388.03</ele>
        <time>2016-02-21T09:04:39Z</time>
      </trkpt>
      <trkpt lat="41.626527810" lon="2.525180990">
        <ele>385.63</ele>
        <time>2016-02-21T09:04:41Z</time>
      </trkpt>
      <trkpt lat="41.626749510" lon="2.525714160">
        <ele>379.38</ele>
        <time>2016-02-21T09:04:46Z</time>
      </trkpt>
      <trkpt lat="41.626836600" lon="2.526004090">
        <ele>375.53</ele>
        <time>2016-02-21T09:04:49Z</time>
      </trkpt>
      <trkpt lat="41.626852270" lon="2.526064610">
        <ele>374.57</ele>
        <time>2016-02-21T09:04:50Z</time>
      </trkpt>
      <trkpt lat="41.626821760" lon="2.526130070">
        <ele>374.57</ele>
        <time>2016-02-21T09:04:55Z</time>
      </trkpt>
      <trkpt lat="41.626786560" lon="2.526132840">
        <ele>374.57</ele>
        <time>2016-02-21T09:05:02Z</time>
      </trkpt>
      <trkpt lat="41.626704250" lon="2.526086570">
        <ele>374.57</ele>
        <time>2016-02-21T09:05:08Z</time>
      </trkpt>
      <trkpt lat="41.626556810" lon="2.525969720">
        <ele>374.57</ele>
        <time>2016-02-21T09:05:16Z</time>
      </trkpt>
      <trkpt lat="41.626474330" lon="2.525909960">
        <ele>374.57</ele>
        <time>2016-02-21T09:05:19Z</time>
      </trkpt>
      <trkpt lat="41.626166380" lon="2.525784650">
        <ele>373.61</ele>
        <time>2016-02-21T09:05:27Z</time>
      </trkpt>
      <trkpt lat="41.625905700" lon="2.525598070">
        <ele>373.61</ele>
        <time>2016-02-21T09:05:36Z</time>
      </trkpt>
      <trkpt lat="41.625804780" lon="2.525499830">
        <ele>372.17</ele>
        <time>2016-02-21T09:05:41Z</time>
      </trkpt>
      <trkpt lat="41.625778380" lon="2.525605280">
        <ele>370.24</ele>
        <time>2016-02-21T09:05:47Z</time>
      </trkpt>
      <trkpt lat="41.625796740" lon="2.525691440">
        <ele>368.80</ele>
        <time>2016-02-21T09:05:50Z</time>
      </trkpt>
      <trkpt lat="41.625918530" lon="2.525843830">
        <ele>365.44</ele>
        <time>2016-02-21T09:05:56Z</time>
      </trkpt>
      <trkpt lat="41.625960600" lon="2.525894790">
        <ele>364.48</ele>
        <time>2016-02-21T09:05:58Z</time>
      </trkpt>
      <trkpt lat="41.626059170" lon="2.526035440">
        <ele>361.59</ele>
        <time>2016-02-21T09:06:03Z</time>
      </trkpt>
      <trkpt lat="41.626191020" lon="2.526232750">
        <ele>359.67</ele>
        <time>2016-02-21T09:06:08Z</time>
      </trkpt>
      <trkpt lat="41.626207280" lon="2.526317150">
        <ele>358.23</ele>
        <time>2016-02-21T09:06:10Z</time>
      </trkpt>
      <trkpt lat="41.626271990" lon="2.526559980">
        <ele>355.83</ele>
        <time>2016-02-21T09:06:16Z</time>
      </trkpt>
      <trkpt lat="41.626297050" lon="2.526590660">
        <ele>355.83</ele>
        <time>2016-02-21T09:06:17Z</time>
      </trkpt>
      <trkpt lat="41.626277520" lon="2.526712280">
        <ele>352.94</ele>
        <time>2016-02-21T09:06:23Z</time>
      </trkpt>
      <trkpt lat="41.626222030" lon="2.526635160">
        <ele>352.94</ele>
        <time>2016-02-21T09:06:27Z</time>
      </trkpt>
      <trkpt lat="41.626205520" lon="2.526619240">
        <ele>352.94</ele>
        <time>2016-02-21T09:06:33Z</time>
      </trkpt>
      <trkpt lat="41.626170490" lon="2.526557040">
        <ele>352.46</ele>
        <time>2016-02-21T09:06:43Z</time>
      </trkpt>
      <trkpt lat="41.626051210" lon="2.526387730">
        <ele>351.98</ele>
        <time>2016-02-21T09:06:49Z</time>
      </trkpt>
      <trkpt lat="41.625865550" lon="2.526229480">
        <ele>351.98</ele>
        <time>2016-02-21T09:06:56Z</time>
      </trkpt>
      <trkpt lat="41.625594650" lon="2.526017670">
        <ele>351.98</ele>
        <time>2016-02-21T09:07:06Z</time>
      </trkpt>
      <trkpt lat="41.625450230" lon="2.525789180">
        <ele>351.98</ele>
        <time>2016-02-21T09:07:13Z</time>
      </trkpt>
      <trkpt lat="41.625245460" lon="2.525486000">
        <ele>351.50</ele>
        <time>2016-02-21T09:07:21Z</time>
      </trkpt>
      <trkpt lat="41.625026020" lon="2.525235050">
        <ele>351.02</ele>
        <time>2016-02-21T09:07:28Z</time>
      </trkpt>
      <trkpt lat="41.624970110" lon="2.525157350">
        <ele>351.02</ele>
        <time>2016-02-21T09:07:30Z</time>
      </trkpt>
      <trkpt lat="41.624915040" lon="2.525071850">
        <ele>351.02</ele>
        <time>2016-02-21T09:07:32Z</time>
      </trkpt>
      <trkpt lat="41.624785120" lon="2.524724930">
        <ele>350.06</ele>
        <time>2016-02-21T09:07:38Z</time>
      </trkpt>
      <trkpt lat="41.624729390" lon="2.524611190">
        <ele>349.58</ele>
        <time>2016-02-21T09:07:40Z</time>
      </trkpt>
      <trkpt lat="41.624641540" lon="2.524337100">
        <ele>348.62</ele>
        <time>2016-02-21T09:07:44Z</time>
      </trkpt>
      <trkpt lat="41.624419590" lon="2.523820600">
        <ele>345.73</ele>
        <time>2016-02-21T09:07:50Z</time>
      </trkpt>
      <trkpt lat="41.624298300" lon="2.523512230">
        <ele>343.81</ele>
        <time>2016-02-21T09:07:53Z</time>
      </trkpt>
      <trkpt lat="41.624100070" lon="2.522881580">
        <ele>341.41</ele>
        <time>2016-02-21T09:07:59Z</time>
      </trkpt>
      <trkpt lat="41.623985410" lon="2.522643530">
        <ele>340.44</ele>
        <time>2016-02-21T09:08:02Z</time>
      </trkpt>
      <trkpt lat="41.623890110" lon="2.522530210">
        <ele>339.96</ele>
        <time>2016-02-21T09:08:04Z</time>
      </trkpt>
      <trkpt lat="41.623615680" lon="2.522285790">
        <ele>338.04</ele>
        <time>2016-02-21T09:08:10Z</time>
      </trkpt>
      <trkpt lat="41.623563630" lon="2.522271130">
        <ele>337.56</ele>
        <time>2016-02-21T09:08:16Z</time>
      </trkpt>
      <trkpt lat="41.623556000" lon="2.522255120">
        <ele>337.56</ele>
        <time>2016-02-21T09:08:22Z</time>
      </trkpt>
      <trkpt lat="41.623514600" lon="2.522207170">
        <ele>337.56</ele>
        <time>2016-02-21T09:08:26Z</time>
      </trkpt>
      <trkpt lat="41.623384680" lon="2.522065010">
        <ele>337.08</ele>
        <time>2016-02-21T09:08:32Z</time>
      </trkpt>
      <trkpt lat="41.623203710" lon="2.521836270">
        <ele>336.12</ele>
        <time>2016-02-21T09:08:38Z</time>
      </trkpt>
      <trkpt lat="41.622993740" lon="2.521867290">
        <ele>333.71</ele>
        <time>2016-02-21T09:08:42Z</time>
      </trkpt>
      <trkpt lat="41.622876900" lon="2.521880950">
        <ele>333.23</ele>
        <time>2016-02-21T09:08:44Z</time>
      </trkpt>
      <trkpt lat="41.622684200" lon="2.521869880">
        <ele>330.83</ele>
        <time>2016-02-21T09:08:47Z</time>
      </trkpt>
      <trkpt lat="41.622455880" lon="2.521739460">
        <ele>327.95</ele>
        <time>2016-02-21T09:08:51Z</time>
      </trkpt>
      <trkpt lat="41.622295700" lon="2.521592950">
        <ele>325.54</ele>
        <time>2016-02-21T09:08:54Z</time>
      </trkpt>
      <trkpt lat="41.622086070" lon="2.521552040">
        <ele>324.10</ele>
        <time>2016-02-21T09:08:58Z</time>
      </trkpt>
      <trkpt lat="41.621975340" lon="2.521784810">
        <ele>321.22</ele>
        <time>2016-02-21T09:09:02Z</time>
      </trkpt>
      <trkpt lat="41.621958240" lon="2.521915900">
        <ele>320.74</ele>
        <time>2016-02-21T09:09:04Z</time>
      </trkpt>
      <trkpt lat="41.621966790" lon="2.522201970">
        <ele>317.37</ele>
        <time>2016-02-21T09:09:10Z</time>
      </trkpt>
      <trkpt lat="41.621896720" lon="2.522266180">
        <ele>315.45</ele>
        <time>2016-02-21T09:09:14Z</time>
      </trkpt>
      <trkpt lat="41.621840650" lon="2.522129220">
        <ele>314.49</ele>
        <time>2016-02-21T09:09:17Z</time>
      </trkpt>
      <trkpt lat="41.621727910" lon="2.521856560">
        <ele>311.12</ele>
        <time>2016-02-21T09:09:21Z</time>
      </trkpt>
      <trkpt lat="41.621704440" lon="2.521803330">
        <ele>311.12</ele>
        <time>2016-02-21T09:09:22Z</time>
      </trkpt>
      <trkpt lat="41.621572680" lon="2.521546850">
        <ele>308.24</ele>
        <time>2016-02-21T09:09:26Z</time>
      </trkpt>
      <trkpt lat="41.621510820" lon="2.521428240">
        <ele>307.28</ele>
        <time>2016-02-21T09:09:28Z</time>
      </trkpt>
      <trkpt lat="41.621364640" lon="2.521224560">
        <ele>303.91</ele>
        <time>2016-02-21T09:09:32Z</time>
      </trkpt>
      <trkpt lat="41.621199930" lon="2.521146270">
        <ele>300.55</ele>
        <time>2016-02-21T09:09:36Z</time>
      </trkpt>
      <trkpt lat="41.621092310" lon="2.521061870">
        <ele>298.15</ele>
        <time>2016-02-21T09:09:41Z</time>
      </trkpt>
      <trkpt lat="41.621148300" lon="2.521020460">
        <ele>297.67</ele>
        <time>2016-02-21T09:09:43Z</time>
      </trkpt>
      <trkpt lat="41.621335890" lon="2.520979220">
        <ele>296.70</ele>
        <time>2016-02-21T09:09:47Z</time>
      </trkpt>
      <trkpt lat="41.621564040" lon="2.521020960">
        <ele>295.74</ele>
        <time>2016-02-21T09:09:51Z</time>
      </trkpt>
      <trkpt lat="41.621726650" lon="2.521020960">
        <ele>294.30</ele>
        <time>2016-02-21T09:09:54Z</time>
      </trkpt>
      <trkpt lat="41.621811730" lon="2.520951810">
        <ele>293.82</ele>
        <time>2016-02-21T09:09:56Z</time>
      </trkpt>
      <trkpt lat="41.622100070" lon="2.520695830">
        <ele>290.46</ele>
        <time>2016-02-21T09:10:02Z</time>
      </trkpt>
      <trkpt lat="41.622138710" lon="2.520668510">
        <ele>289.01</ele>
        <time>2016-02-21T09:10:03Z</time>
      </trkpt>
      <trkpt lat="41.622367200" lon="2.520514450">
        <ele>285.65</ele>
        <time>2016-02-21T09:10:09Z</time>
      </trkpt>
      <trkpt lat="41.622468450" lon="2.520370190">
        <ele>283.73</ele>
        <time>2016-02-21T09:10:14Z</time>
      </trkpt>
      <trkpt lat="41.622338870" lon="2.520346980">
        <ele>281.80</ele>
        <time>2016-02-21T09:10:17Z</time>
      </trkpt>
      <trkpt lat="41.622223620" lon="2.520385780">
        <ele>280.84</ele>
        <time>2016-02-21T09:10:19Z</time>
      </trkpt>
      <trkpt lat="41.622043570" lon="2.520452840">
        <ele>277.48</ele>
        <time>2016-02-21T09:10:24Z</time>
      </trkpt>
      <trkpt lat="41.621895800" lon="2.520434900">
        <ele>274.59</ele>
        <time>2016-02-21T09:10:28Z</time>
      </trkpt>
      <trkpt lat="41.621665720" lon="2.520369690">
        <ele>270.75</ele>
        <time>2016-02-21T09:10:33Z</time>
      </trkpt>
      <trkpt lat="41.621547780" lon="2.520325270">
        <ele>268.83</ele>
        <time>2016-02-21T09:10:35Z</time>
      </trkpt>
      <trkpt lat="41.621482400" lon="2.520301380">
        <ele>268.35</ele>
        <time>2016-02-21T09:10:36Z</time>
      </trkpt>
      <trkpt lat="41.621244780" lon="2.520271710">
        <ele>264.98</ele>
        <time>2016-02-21T09:10:39Z</time>
      </trkpt>
      <trkpt lat="41.620866250" lon="2.520194420">
        <ele>261.14</ele>
        <time>2016-02-21T09:10:44Z</time>
      </trkpt>
      <trkpt lat="41.620647570" lon="2.520167270">
        <ele>258.25</ele>
        <time>2016-02-21T09:10:47Z</time>
      </trkpt>
      <trkpt lat="41.620416900" lon="2.520117560">
        <ele>254.89</ele>
        <time>2016-02-21T09:10:50Z</time>
      </trkpt>
      <trkpt lat="41.620293770" lon="2.520089400">
        <ele>254.41</ele>
        <time>2016-02-21T09:10:52Z</time>
      </trkpt>
      <trkpt lat="41.620012890" lon="2.520128540">
        <ele>250.56</ele>
        <time>2016-02-21T09:10:56Z</time>
      </trkpt>
      <trkpt lat="41.619796300" lon="2.520238430">
        <ele>247.20</ele>
        <time>2016-02-21T09:11:00Z</time>
      </trkpt>
      <trkpt lat="41.619608460" lon="2.520296940">
        <ele>244.31</ele>
        <time>2016-02-21T09:11:03Z</time>
      </trkpt>
      <trkpt lat="41.619389610" lon="2.520262910">
        <ele>240.95</ele>
        <time>2016-02-21T09:11:07Z</time>
      </trkpt>
      <trkpt lat="41.619127840" lon="2.520321330">
        <ele>237.58</ele>
        <time>2016-02-21T09:11:11Z</time>
      </trkpt>
      <trkpt lat="41.618918130" lon="2.520429120">
        <ele>234.70</ele>
        <time>2016-02-21T09:11:14Z</time>
      </trkpt>
      <trkpt lat="41.618854510" lon="2.520464240">
        <ele>233.26</ele>
        <time>2016-02-21T09:11:15Z</time>
      </trkpt>
      <trkpt lat="41.618722490" lon="2.520512770">
        <ele>231.33</ele>
        <time>2016-02-21T09:11:17Z</time>
      </trkpt>
      <trkpt lat="41.618509170" lon="2.520555100">
        <ele>230.37</ele>
        <time>2016-02-21T09:11:20Z</time>
      </trkpt>
      <trkpt lat="41.618320670" lon="2.520736570">
        <ele>227.01</ele>
        <time>2016-02-21T09:11:24Z</time>
      </trkpt>
      <trkpt lat="41.618287890" lon="2.520886770">
        <ele>225.09</ele>
        <time>2016-02-21T09:11:26Z</time>
      </trkpt>
      <trkpt lat="41.618196030" lon="2.521133030">
        <ele>222.20</ele>
        <time>2016-02-21T09:11:29Z</time>
      </trkpt>
      <trkpt lat="41.618074410" lon="2.521336540">
        <ele>219.80</ele>
        <time>2016-02-21T09:11:32Z</time>
      </trkpt>
      <trkpt lat="41.618023190" lon="2.521450120">
        <ele>217.88</ele>
        <time>2016-02-21T09:11:34Z</time>
      </trkpt>
      <trkpt lat="41.617966870" lon="2.521591940">
        <ele>216.43</ele>
        <time>2016-02-21T09:11:37Z</time>
      </trkpt>
      <trkpt lat="41.617889840" lon="2.521531000">
        <ele>214.99</ele>
        <time>2016-02-21T09:11:40Z</time>
      </trkpt>
      <trkpt lat="41.617847840" lon="2.521402340">
        <ele>213.55</ele>
        <time>2016-02-21T09:11:42Z</time>
      </trkpt>
      <trkpt lat="41.617706780" lon="2.520898420">
        <ele>211.63</ele>
        <time>2016-02-21T09:11:49Z</time>
      </trkpt>
      <trkpt lat="41.617670060" lon="2.520685100">
        <ele>210.19</ele>
        <time>2016-02-21T09:11:52Z</time>
      </trkpt>
      <trkpt lat="41.617705100" lon="2.520451920">
        <ele>209.70</ele>
        <time>2016-02-21T09:11:56Z</time>
      </trkpt>
      <trkpt lat="41.617692270" lon="2.520312190">
        <ele>208.26</ele>
        <time>2016-02-21T09:11:59Z</time>
      </trkpt>
      <trkpt lat="41.617778610" lon="2.520106410">
        <ele>206.34</ele>
        <time>2016-02-21T09:12:03Z</time>
      </trkpt>
      <trkpt lat="41.617889250" lon="2.519966190">
        <ele>203.94</ele>
        <time>2016-02-21T09:12:07Z</time>
      </trkpt>
      <trkpt lat="41.617876170" lon="2.519819420">
        <ele>202.49</ele>
        <time>2016-02-21T09:12:11Z</time>
      </trkpt>
      <trkpt lat="41.617844410" lon="2.519770300">
        <ele>202.01</ele>
        <time>2016-02-21T09:12:13Z</time>
      </trkpt>
      <trkpt lat="41.617807780" lon="2.519694190">
        <ele>201.53</ele>
        <time>2016-02-21T09:12:19Z</time>
      </trkpt>
      <trkpt lat="41.617810210" lon="2.519682540">
        <ele>201.53</ele>
        <time>2016-02-21T09:12:20Z</time>
      </trkpt>
      <trkpt lat="41.617770980" lon="2.519635770">
        <ele>200.57</ele>
        <time>2016-02-21T09:12:26Z</time>
      </trkpt>
      <trkpt lat="41.617506360" lon="2.519655470">
        <ele>199.61</ele>
        <time>2016-02-21T09:12:33Z</time>
      </trkpt>
      <trkpt lat="41.617351210" lon="2.519671480">
        <ele>198.65</ele>
        <time>2016-02-21T09:12:36Z</time>
      </trkpt>
      <trkpt lat="41.616823150" lon="2.519752280">
        <ele>196.25</ele>
        <time>2016-02-21T09:12:45Z</time>
      </trkpt>
      <trkpt lat="41.616543700" lon="2.519867530">
        <ele>194.32</ele>
        <time>2016-02-21T09:12:50Z</time>
      </trkpt>
      <trkpt lat="41.616338430" lon="2.520025110">
        <ele>195.28</ele>
        <time>2016-02-21T09:12:56Z</time>
      </trkpt>
      <trkpt lat="41.616330050" lon="2.520036760">
        <ele>195.28</ele>
        <time>2016-02-21T09:12:57Z</time>
      </trkpt>
      <trkpt lat="41.616327780" lon="2.520045230">
        <ele>195.28</ele>
        <time>2016-02-21T09:12:58Z</time>
      </trkpt>
      <trkpt lat="41.616317140" lon="2.520072300">
        <ele>195.28</ele>
        <time>2016-02-21T09:13:00Z</time>
      </trkpt>
      <trkpt lat="41.616276320" lon="2.520130550">
        <ele>195.28</ele>
        <time>2016-02-21T09:13:04Z</time>
      </trkpt>
      <trkpt lat="41.616161320" lon="2.520405820">
        <ele>195.28</ele>
        <time>2016-02-21T09:13:12Z</time>
      </trkpt>
      <trkpt lat="41.616076160" lon="2.520651320">
        <ele>193.84</ele>
        <time>2016-02-21T09:13:17Z</time>
      </trkpt>
      <trkpt lat="41.616055710" lon="2.520708910">
        <ele>193.84</ele>
        <time>2016-02-21T09:13:18Z</time>
      </trkpt>
      <trkpt lat="41.615978680" lon="2.521093550">
        <ele>193.36</ele>
        <time>2016-02-21T09:13:25Z</time>
      </trkpt>
      <trkpt lat="41.615919250" lon="2.521508290">
        <ele>192.40</ele>
        <time>2016-02-21T09:13:32Z</time>
      </trkpt>
      <trkpt lat="41.615882120" lon="2.521851440">
        <ele>191.92</ele>
        <time>2016-02-21T09:13:38Z</time>
      </trkpt>
      <trkpt lat="41.615847670" lon="2.522142210">
        <ele>190.96</ele>
        <time>2016-02-21T09:13:42Z</time>
      </trkpt>
      <trkpt lat="41.615749940" lon="2.522720730">
        <ele>189.04</ele>
        <time>2016-02-21T09:13:49Z</time>
      </trkpt>
      <trkpt lat="41.615707100" lon="2.522999350">
        <ele>188.56</ele>
        <time>2016-02-21T09:13:52Z</time>
      </trkpt>
      <trkpt lat="41.615675920" lon="2.523276450">
        <ele>187.59</ele>
        <time>2016-02-21T09:13:55Z</time>
      </trkpt>
      <trkpt lat="41.615599310" lon="2.524045740">
        <ele>185.19</ele>
        <time>2016-02-21T09:14:03Z</time>
      </trkpt>
      <trkpt lat="41.615516840" lon="2.524954420">
        <ele>182.31</ele>
        <time>2016-02-21T09:14:11Z</time>
      </trkpt>
      <trkpt lat="41.615505100" lon="2.525719860">
        <ele>179.42</ele>
        <time>2016-02-21T09:14:18Z</time>
      </trkpt>
      <trkpt lat="41.615563690" lon="2.526695510">
        <ele>177.02</ele>
        <time>2016-02-21T09:14:27Z</time>
      </trkpt>
      <trkpt lat="41.615489260" lon="2.527339160">
        <ele>174.62</ele>
        <time>2016-02-21T09:14:33Z</time>
      </trkpt>
      <trkpt lat="41.615365210" lon="2.527967300">
        <ele>171.73</ele>
        <time>2016-02-21T09:14:39Z</time>
      </trkpt>
      <trkpt lat="41.615226490" lon="2.528684790">
        <ele>170.29</ele>
        <time>2016-02-21T09:14:46Z</time>
      </trkpt>
      <trkpt lat="41.615169910" lon="2.529275970">
        <ele>168.85</ele>
        <time>2016-02-21T09:14:52Z</time>
      </trkpt>
      <trkpt lat="41.615149790" lon="2.530137960">
        <ele>165.96</ele>
        <time>2016-02-21T09:15:01Z</time>
      </trkpt>
      <trkpt lat="41.615116430" lon="2.530911110">
        <ele>163.56</ele>
        <time>2016-02-21T09:15:09Z</time>
      </trkpt>
      <trkpt lat="41.615089020" lon="2.531276980">
        <ele>162.60</ele>
        <time>2016-02-21T09:15:13Z</time>
      </trkpt>
      <trkpt lat="41.615168320" lon="2.531620640">
        <ele>161.16</ele>
        <time>2016-02-21T09:15:17Z</time>
      </trkpt>
      <trkpt lat="41.615201340" lon="2.531808220">
        <ele>160.20</ele>
        <time>2016-02-21T09:15:19Z</time>
      </trkpt>
      <trkpt lat="41.615177960" lon="2.532123050">
        <ele>159.24</ele>
        <time>2016-02-21T09:15:22Z</time>
      </trkpt>
      <trkpt lat="41.615018780" lon="2.532831990">
        <ele>157.31</ele>
        <time>2016-02-21T09:15:30Z</time>
      </trkpt>
      <trkpt lat="41.614785010" lon="2.533587950">
        <ele>154.91</ele>
        <time>2016-02-21T09:15:39Z</time>
      </trkpt>
      <trkpt lat="41.614558530" lon="2.534291950">
        <ele>152.51</ele>
        <time>2016-02-21T09:15:47Z</time>
      </trkpt>
      <trkpt lat="41.614325100" lon="2.535021760">
        <ele>150.10</ele>
        <time>2016-02-21T09:15:56Z</time>
      </trkpt>
      <trkpt lat="41.614097020" lon="2.535714940">
        <ele>147.70</ele>
        <time>2016-02-21T09:16:05Z</time>
      </trkpt>
      <trkpt lat="41.613899130" lon="2.536253560">
        <ele>146.26</ele>
        <time>2016-02-21T09:16:12Z</time>
      </trkpt>
      <trkpt lat="41.613742810" lon="2.536566130">
        <ele>144.34</ele>
        <time>2016-02-21T09:16:18Z</time>
      </trkpt>
      <trkpt lat="41.613697380" lon="2.536626390">
        <ele>143.85</ele>
        <time>2016-02-21T09:16:24Z</time>
      </trkpt>
      <trkpt lat="41.613687900" lon="2.536638880">
        <ele>143.85</ele>
        <time>2016-02-21T09:16:35Z</time>
      </trkpt>
      <trkpt lat="41.613623030" lon="2.536787490">
        <ele>143.85</ele>
        <time>2016-02-21T09:16:40Z</time>
      </trkpt>
      <trkpt lat="41.613472490" lon="2.537037190">
        <ele>142.89</ele>
        <time>2016-02-21T09:16:47Z</time>
      </trkpt>
      <trkpt lat="41.613187840" lon="2.537388140">
        <ele>141.45</ele>
        <time>2016-02-21T09:16:55Z</time>
      </trkpt>
      <trkpt lat="41.612798080" lon="2.537811840">
        <ele>140.49</ele>
        <time>2016-02-21T09:17:04Z</time>
      </trkpt>
      <trkpt lat="41.612374880" lon="2.538318280">
        <ele>138.57</ele>
        <time>2016-02-21T09:17:13Z</time>
      </trkpt>
      <trkpt lat="41.612189560" lon="2.538693960">
        <ele>137.13</ele>
        <time>2016-02-21T09:17:19Z</time>
      </trkpt>
      <trkpt lat="41.612094090" lon="2.538858410">
        <ele>136.16</ele>
        <time>2016-02-21T09:17:22Z</time>
      </trkpt>
      <trkpt lat="41.611957710" lon="2.539045490">
        <ele>135.20</ele>
        <time>2016-02-21T09:17:27Z</time>
      </trkpt>
      <trkpt lat="41.611909180" lon="2.539037700">
        <ele>134.24</ele>
        <time>2016-02-21T09:17:31Z</time>
      </trkpt>
      <trkpt lat="41.611912700" lon="2.538867960">
        <ele>135.68</ele>
        <time>2016-02-21T09:17:38Z</time>
      </trkpt>
      <trkpt lat="41.611701980" lon="2.538784980">
        <ele>137.13</ele>
        <time>2016-02-21T09:17:45Z</time>
      </trkpt>
      <trkpt lat="41.611659150" lon="2.538776520">
        <ele>137.13</ele>
        <time>2016-02-21T09:17:47Z</time>
      </trkpt>
      <trkpt lat="41.611550350" lon="2.538775340">
        <ele>137.13</ele>
        <time>2016-02-21T09:17:50Z</time>
      </trkpt>
      <trkpt lat="41.611467040" lon="2.538781710">
        <ele>137.13</ele>
        <time>2016-02-21T09:17:52Z</time>
      </trkpt>
      <trkpt lat="41.611366790" lon="2.538808540">
        <ele>136.16</ele>
        <time>2016-02-21T09:17:54Z</time>
      </trkpt>
      <trkpt lat="41.611112820" lon="2.538847090">
        <ele>134.72</ele>
        <time>2016-02-21T09:17:59Z</time>
      </trkpt>
      <trkpt lat="41.610658270" lon="2.539053040">
        <ele>132.80</ele>
        <time>2016-02-21T09:18:08Z</time>
      </trkpt>
      <trkpt lat="41.610283930" lon="2.539250770">
        <ele>130.88</ele>
        <time>2016-02-21T09:18:15Z</time>
      </trkpt>
      <trkpt lat="41.609901550" lon="2.539478840">
        <ele>128.47</ele>
        <time>2016-02-21T09:18:22Z</time>
      </trkpt>
      <trkpt lat="41.609701050" lon="2.539613370">
        <ele>127.51</ele>
        <time>2016-02-21T09:18:27Z</time>
      </trkpt>
      <trkpt lat="41.609551350" lon="2.539693500">
        <ele>127.03</ele>
        <time>2016-02-21T09:18:31Z</time>
      </trkpt>
      <trkpt lat="41.609422690" lon="2.539772790">
        <ele>126.55</ele>
        <time>2016-02-21T09:18:34Z</time>
      </trkpt>
      <trkpt lat="41.609208620" lon="2.539918970">
        <ele>125.11</ele>
        <time>2016-02-21T09:18:41Z</time>
      </trkpt>
      <trkpt lat="41.609153970" lon="2.540015530">
        <ele>124.63</ele>
        <time>2016-02-21T09:18:46Z</time>
      </trkpt>
      <trkpt lat="41.609138040" lon="2.540111080">
        <ele>124.15</ele>
        <time>2016-02-21T09:18:52Z</time>
      </trkpt>
      <trkpt lat="41.609128990" lon="2.540095490">
        <ele>124.15</ele>
        <time>2016-02-21T09:18:58Z</time>
      </trkpt>
      <trkpt lat="41.609131250" lon="2.540102450">
        <ele>124.15</ele>
        <time>2016-02-21T09:19:07Z</time>
      </trkpt>
    </trkseg>
  </trk>
</gpx>
